<?xml version="1.0" encoding="UTF-8" standalone="no" ?>
<gpx xmlns="http://www.topografix.com/GPX/1/1" xmlns:xsi="http://www.w3.org/2001/XMLSchema-instance" xsi:schemaLocation="http://www.topografix.com/GPX/1/1 http://www.topografix.com/GPX/1/1/gpx.xsd" version="1.1" creator="VisuGPX - https://www.visugpx.com">
  <metadata>
    <name>VERNOIL Circuit blanc</name>
    <desc><![CDATA[Circuit balisé en blanc. Bon balisage.]]></desc>
  </metadata>
  <trk>
    <name><![CDATA[Le Village]]></name>
    <desc><![CDATA[]]></desc>
    <trkseg>
      <trkpt lat="47.38631" lon="0.07814">
        <ele>70</ele>
        <time>2013-02-17T13:25:21.778Z</time>
      </trkpt>
      <trkpt lat="47.38636" lon="0.07808">
        <ele>70</ele>
        <time>2013-02-17T13:25:22.649Z</time>
      </trkpt>
      <trkpt lat="47.38636" lon="0.07808">
        <ele>70</ele>
        <time>2013-02-17T13:25:25.646Z</time>
      </trkpt>
      <trkpt lat="47.38644" lon="0.07793">
        <ele>70</ele>
        <time>2013-02-17T13:25:26.645Z</time>
      </trkpt>
      <trkpt lat="47.38644" lon="0.07793">
        <ele>70</ele>
        <time>2013-02-17T13:25:34.999Z</time>
      </trkpt>
      <trkpt lat="47.38654" lon="0.07796">
        <ele>70</ele>
        <time>2013-02-17T13:25:35.999Z</time>
      </trkpt>
      <trkpt lat="47.38654" lon="0.07796">
        <ele>70</ele>
        <time>2013-02-17T13:25:51.999Z</time>
      </trkpt>
      <trkpt lat="47.38664" lon="0.07816">
        <ele>70</ele>
        <time>2013-02-17T13:25:52.999Z</time>
      </trkpt>
      <trkpt lat="47.38667" lon="0.07822">
        <ele>69</ele>
        <time>2013-02-17T13:25:56.999Z</time>
      </trkpt>
      <trkpt lat="47.38667" lon="0.07822">
        <ele>69</ele>
        <time>2013-02-17T13:25:57.999Z</time>
      </trkpt>
      <trkpt lat="47.38671" lon="0.07824">
        <ele>69</ele>
        <time>2013-02-17T13:26:01.999Z</time>
      </trkpt>
      <trkpt lat="47.38672" lon="0.07825">
        <ele>69</ele>
        <time>2013-02-17T13:26:02.999Z</time>
      </trkpt>
      <trkpt lat="47.38676" lon="0.07823">
        <ele>69</ele>
        <time>2013-02-17T13:26:05.999Z</time>
      </trkpt>
      <trkpt lat="47.38677" lon="0.07822">
        <ele>69</ele>
        <time>2013-02-17T13:26:06.999Z</time>
      </trkpt>
      <trkpt lat="47.3868" lon="0.07827">
        <ele>69</ele>
        <time>2013-02-17T13:26:10.999Z</time>
      </trkpt>
      <trkpt lat="47.3868" lon="0.0783">
        <ele>69</ele>
        <time>2013-02-17T13:26:11.999Z</time>
      </trkpt>
      <trkpt lat="47.38682" lon="0.07835">
        <ele>69</ele>
        <time>2013-02-17T13:26:19.999Z</time>
      </trkpt>
      <trkpt lat="47.38683" lon="0.07836">
        <ele>69</ele>
        <time>2013-02-17T13:26:20.999Z</time>
      </trkpt>
      <trkpt lat="47.38684" lon="0.07842">
        <ele>69</ele>
        <time>2013-02-17T13:26:22.999Z</time>
      </trkpt>
      <trkpt lat="47.38683" lon="0.07846">
        <ele>69</ele>
        <time>2013-02-17T13:26:23.999Z</time>
      </trkpt>
      <trkpt lat="47.38685" lon="0.0785">
        <ele>69</ele>
        <time>2013-02-17T13:26:25.999Z</time>
      </trkpt>
      <trkpt lat="47.38687" lon="0.07851">
        <ele>69</ele>
        <time>2013-02-17T13:26:26.999Z</time>
      </trkpt>
      <trkpt lat="47.3869" lon="0.07853">
        <ele>68</ele>
        <time>2013-02-17T13:26:28.999Z</time>
      </trkpt>
      <trkpt lat="47.38693" lon="0.07852">
        <ele>68</ele>
        <time>2013-02-17T13:26:29.999Z</time>
      </trkpt>
      <trkpt lat="47.38696" lon="0.07852">
        <ele>68</ele>
        <time>2013-02-17T13:26:30.999Z</time>
      </trkpt>
      <trkpt lat="47.38698" lon="0.07851">
        <ele>68</ele>
        <time>2013-02-17T13:26:31.999Z</time>
      </trkpt>
      <trkpt lat="47.38702" lon="0.07849">
        <ele>68</ele>
        <time>2013-02-17T13:26:34.999Z</time>
      </trkpt>
      <trkpt lat="47.38703" lon="0.07849">
        <ele>68</ele>
        <time>2013-02-17T13:26:35.999Z</time>
      </trkpt>
      <trkpt lat="47.38706" lon="0.07852">
        <ele>68</ele>
        <time>2013-02-17T13:26:38.999Z</time>
      </trkpt>
      <trkpt lat="47.38707" lon="0.07853">
        <ele>68</ele>
        <time>2013-02-17T13:26:39.999Z</time>
      </trkpt>
      <trkpt lat="47.38709" lon="0.07855">
        <ele>68</ele>
        <time>2013-02-17T13:26:41.999Z</time>
      </trkpt>
      <trkpt lat="47.38711" lon="0.07855">
        <ele>68</ele>
        <time>2013-02-17T13:26:42.999Z</time>
      </trkpt>
      <trkpt lat="47.38715" lon="0.07854">
        <ele>68</ele>
        <time>2013-02-17T13:26:45.999Z</time>
      </trkpt>
      <trkpt lat="47.38716" lon="0.07853">
        <ele>68</ele>
        <time>2013-02-17T13:26:46.999Z</time>
      </trkpt>
      <trkpt lat="47.38719" lon="0.07852">
        <ele>68</ele>
        <time>2013-02-17T13:26:48.999Z</time>
      </trkpt>
      <trkpt lat="47.38721" lon="0.07852">
        <ele>68</ele>
        <time>2013-02-17T13:26:49.999Z</time>
      </trkpt>
      <trkpt lat="47.38725" lon="0.07854">
        <ele>68</ele>
        <time>2013-02-17T13:26:54.999Z</time>
      </trkpt>
      <trkpt lat="47.38725" lon="0.07855">
        <ele>68</ele>
        <time>2013-02-17T13:26:55.999Z</time>
      </trkpt>
      <trkpt lat="47.38728" lon="0.07858">
        <ele>68</ele>
        <time>2013-02-17T13:27:01.999Z</time>
      </trkpt>
      <trkpt lat="47.38729" lon="0.07859">
        <ele>68</ele>
        <time>2013-02-17T13:27:02.999Z</time>
      </trkpt>
      <trkpt lat="47.38732" lon="0.07863">
        <ele>68</ele>
        <time>2013-02-17T13:27:07.999Z</time>
      </trkpt>
      <trkpt lat="47.38733" lon="0.07865">
        <ele>68</ele>
        <time>2013-02-17T13:27:08.999Z</time>
      </trkpt>
      <trkpt lat="47.38732" lon="0.07871">
        <ele>68</ele>
        <time>2013-02-17T13:27:58.999Z</time>
      </trkpt>
      <trkpt lat="47.38731" lon="0.07871">
        <ele>68</ele>
        <time>2013-02-17T13:27:59.999Z</time>
      </trkpt>
      <trkpt lat="47.38728" lon="0.07875">
        <ele>68</ele>
        <time>2013-02-17T13:28:05.999Z</time>
      </trkpt>
      <trkpt lat="47.38727" lon="0.07875">
        <ele>68</ele>
        <time>2013-02-17T13:28:06.999Z</time>
      </trkpt>
      <trkpt lat="47.38725" lon="0.0788">
        <ele>68</ele>
        <time>2013-02-17T13:28:09.999Z</time>
      </trkpt>
      <trkpt lat="47.38724" lon="0.07881">
        <ele>68</ele>
        <time>2013-02-17T13:28:10.999Z</time>
      </trkpt>
      <trkpt lat="47.38724" lon="0.07886">
        <ele>68</ele>
        <time>2013-02-17T13:28:55.999Z</time>
      </trkpt>
      <trkpt lat="47.38725" lon="0.07888">
        <ele>68</ele>
        <time>2013-02-17T13:28:56.999Z</time>
      </trkpt>
      <trkpt lat="47.38726" lon="0.07894">
        <ele>68</ele>
        <time>2013-02-17T13:29:01.999Z</time>
      </trkpt>
      <trkpt lat="47.38726" lon="0.07895">
        <ele>68</ele>
        <time>2013-02-17T13:29:02.999Z</time>
      </trkpt>
      <trkpt lat="47.38729" lon="0.07899">
        <ele>68</ele>
        <time>2013-02-17T13:29:10.999Z</time>
      </trkpt>
      <trkpt lat="47.3873" lon="0.07901">
        <ele>68</ele>
        <time>2013-02-17T13:29:11.999Z</time>
      </trkpt>
      <trkpt lat="47.38728" lon="0.07906">
        <ele>68</ele>
        <time>2013-02-17T13:29:14.999Z</time>
      </trkpt>
      <trkpt lat="47.38727" lon="0.07908">
        <ele>68</ele>
        <time>2013-02-17T13:29:15.999Z</time>
      </trkpt>
      <trkpt lat="47.38727" lon="0.07912">
        <ele>68</ele>
        <time>2013-02-17T13:29:25.999Z</time>
      </trkpt>
      <trkpt lat="47.38727" lon="0.07915">
        <ele>68</ele>
        <time>2013-02-17T13:29:26.999Z</time>
      </trkpt>
      <trkpt lat="47.38727" lon="0.0792">
        <ele>67</ele>
        <time>2013-02-17T13:29:28.999Z</time>
      </trkpt>
      <trkpt lat="47.38728" lon="0.07922">
        <ele>67</ele>
        <time>2013-02-17T13:29:29.999Z</time>
      </trkpt>
      <trkpt lat="47.38727" lon="0.07928">
        <ele>67</ele>
        <time>2013-02-17T13:29:34.999Z</time>
      </trkpt>
      <trkpt lat="47.38727" lon="0.07931">
        <ele>67</ele>
        <time>2013-02-17T13:29:35.999Z</time>
      </trkpt>
      <trkpt lat="47.38726" lon="0.07937">
        <ele>67</ele>
        <time>2013-02-17T13:29:40.999Z</time>
      </trkpt>
      <trkpt lat="47.38726" lon="0.07939">
        <ele>67</ele>
        <time>2013-02-17T13:29:41.999Z</time>
      </trkpt>
      <trkpt lat="47.38725" lon="0.07944">
        <ele>67</ele>
        <time>2013-02-17T13:29:47.999Z</time>
      </trkpt>
      <trkpt lat="47.38725" lon="0.07945">
        <ele>67</ele>
        <time>2013-02-17T13:29:48.999Z</time>
      </trkpt>
      <trkpt lat="47.38726" lon="0.07951">
        <ele>67</ele>
        <time>2013-02-17T13:29:53.999Z</time>
      </trkpt>
      <trkpt lat="47.38726" lon="0.07953">
        <ele>67</ele>
        <time>2013-02-17T13:29:54.999Z</time>
      </trkpt>
      <trkpt lat="47.38726" lon="0.07959">
        <ele>67</ele>
        <time>2013-02-17T13:30:04.999Z</time>
      </trkpt>
      <trkpt lat="47.38727" lon="0.0796">
        <ele>67</ele>
        <time>2013-02-17T13:30:05.999Z</time>
      </trkpt>
      <trkpt lat="47.38729" lon="0.07965">
        <ele>67</ele>
        <time>2013-02-17T13:30:07.999Z</time>
      </trkpt>
      <trkpt lat="47.38729" lon="0.07969">
        <ele>67</ele>
        <time>2013-02-17T13:30:08.999Z</time>
      </trkpt>
      <trkpt lat="47.38728" lon="0.07975">
        <ele>67</ele>
        <time>2013-02-17T13:30:11.999Z</time>
      </trkpt>
      <trkpt lat="47.38729" lon="0.07977">
        <ele>67</ele>
        <time>2013-02-17T13:30:12.999Z</time>
      </trkpt>
      <trkpt lat="47.38729" lon="0.07982">
        <ele>67</ele>
        <time>2013-02-17T13:30:18.999Z</time>
      </trkpt>
      <trkpt lat="47.38729" lon="0.07983">
        <ele>67</ele>
        <time>2013-02-17T13:30:19.999Z</time>
      </trkpt>
      <trkpt lat="47.38729" lon="0.07989">
        <ele>67</ele>
        <time>2013-02-17T13:30:22.999Z</time>
      </trkpt>
      <trkpt lat="47.3873" lon="0.0799">
        <ele>67</ele>
        <time>2013-02-17T13:30:23.999Z</time>
      </trkpt>
      <trkpt lat="47.38733" lon="0.07992">
        <ele>67</ele>
        <time>2013-02-17T13:30:28.999Z</time>
      </trkpt>
      <trkpt lat="47.38735" lon="0.07995">
        <ele>67</ele>
        <time>2013-02-17T13:30:29.999Z</time>
      </trkpt>
      <trkpt lat="47.38736" lon="0.07998">
        <ele>67</ele>
        <time>2013-02-17T13:30:30.999Z</time>
      </trkpt>
      <trkpt lat="47.38738" lon="0.08001">
        <ele>66</ele>
        <time>2013-02-17T13:30:31.999Z</time>
      </trkpt>
      <trkpt lat="47.3874" lon="0.08004">
        <ele>66</ele>
        <time>2013-02-17T13:30:33.999Z</time>
      </trkpt>
      <trkpt lat="47.38742" lon="0.08006">
        <ele>66</ele>
        <time>2013-02-17T13:30:34.999Z</time>
      </trkpt>
      <trkpt lat="47.38745" lon="0.08008">
        <ele>66</ele>
        <time>2013-02-17T13:30:36.999Z</time>
      </trkpt>
      <trkpt lat="47.38746" lon="0.08008">
        <ele>66</ele>
        <time>2013-02-17T13:30:37.999Z</time>
      </trkpt>
      <trkpt lat="47.3875" lon="0.08009">
        <ele>66</ele>
        <time>2013-02-17T13:30:41.999Z</time>
      </trkpt>
      <trkpt lat="47.38751" lon="0.08009">
        <ele>66</ele>
        <time>2013-02-17T13:30:42.999Z</time>
      </trkpt>
      <trkpt lat="47.38755" lon="0.08011">
        <ele>66</ele>
        <time>2013-02-17T13:30:49.999Z</time>
      </trkpt>
      <trkpt lat="47.38755" lon="0.08012">
        <ele>66</ele>
        <time>2013-02-17T13:30:50.999Z</time>
      </trkpt>
      <trkpt lat="47.38759" lon="0.08015">
        <ele>66</ele>
        <time>2013-02-17T13:30:53.999Z</time>
      </trkpt>
      <trkpt lat="47.38759" lon="0.08016">
        <ele>66</ele>
        <time>2013-02-17T13:30:54.999Z</time>
      </trkpt>
      <trkpt lat="47.38763" lon="0.08019">
        <ele>66</ele>
        <time>2013-02-17T13:30:58.999Z</time>
      </trkpt>
      <trkpt lat="47.38765" lon="0.0802">
        <ele>66</ele>
        <time>2013-02-17T13:30:59.999Z</time>
      </trkpt>
      <trkpt lat="47.38769" lon="0.08023">
        <ele>66</ele>
        <time>2013-02-17T13:31:02.999Z</time>
      </trkpt>
      <trkpt lat="47.3877" lon="0.08024">
        <ele>66</ele>
        <time>2013-02-17T13:31:03.999Z</time>
      </trkpt>
      <trkpt lat="47.38774" lon="0.08027">
        <ele>65</ele>
        <time>2013-02-17T13:31:09.999Z</time>
      </trkpt>
      <trkpt lat="47.38775" lon="0.08028">
        <ele>65</ele>
        <time>2013-02-17T13:31:10.999Z</time>
      </trkpt>
      <trkpt lat="47.38778" lon="0.08031">
        <ele>65</ele>
        <time>2013-02-17T13:31:15.999Z</time>
      </trkpt>
      <trkpt lat="47.38779" lon="0.08033">
        <ele>65</ele>
        <time>2013-02-17T13:31:16.999Z</time>
      </trkpt>
      <trkpt lat="47.38782" lon="0.08035">
        <ele>65</ele>
        <time>2013-02-17T13:31:21.999Z</time>
      </trkpt>
      <trkpt lat="47.38783" lon="0.08037">
        <ele>65</ele>
        <time>2013-02-17T13:31:22.999Z</time>
      </trkpt>
      <trkpt lat="47.38786" lon="0.08042">
        <ele>65</ele>
        <time>2013-02-17T13:31:25.999Z</time>
      </trkpt>
      <trkpt lat="47.38786" lon="0.08042">
        <ele>65</ele>
        <time>2013-02-17T13:31:26.999Z</time>
      </trkpt>
      <trkpt lat="47.3879" lon="0.08043">
        <ele>65</ele>
        <time>2013-02-17T13:31:33.999Z</time>
      </trkpt>
      <trkpt lat="47.38791" lon="0.08044">
        <ele>65</ele>
        <time>2013-02-17T13:31:34.999Z</time>
      </trkpt>
      <trkpt lat="47.38795" lon="0.08044">
        <ele>65</ele>
        <time>2013-02-17T13:31:38.999Z</time>
      </trkpt>
      <trkpt lat="47.38796" lon="0.08044">
        <ele>65</ele>
        <time>2013-02-17T13:31:39.999Z</time>
      </trkpt>
      <trkpt lat="47.388" lon="0.08046">
        <ele>65</ele>
        <time>2013-02-17T13:31:44.999Z</time>
      </trkpt>
      <trkpt lat="47.38801" lon="0.08048">
        <ele>65</ele>
        <time>2013-02-17T13:31:45.999Z</time>
      </trkpt>
      <trkpt lat="47.38803" lon="0.08051">
        <ele>65</ele>
        <time>2013-02-17T13:31:47.999Z</time>
      </trkpt>
      <trkpt lat="47.38804" lon="0.08053">
        <ele>65</ele>
        <time>2013-02-17T13:31:48.999Z</time>
      </trkpt>
      <trkpt lat="47.38807" lon="0.08057">
        <ele>65</ele>
        <time>2013-02-17T13:31:52.999Z</time>
      </trkpt>
      <trkpt lat="47.38808" lon="0.08058">
        <ele>65</ele>
        <time>2013-02-17T13:31:53.999Z</time>
      </trkpt>
      <trkpt lat="47.38811" lon="0.08061">
        <ele>65</ele>
        <time>2013-02-17T13:31:56.999Z</time>
      </trkpt>
      <trkpt lat="47.38813" lon="0.08062">
        <ele>65</ele>
        <time>2013-02-17T13:31:57.999Z</time>
      </trkpt>
      <trkpt lat="47.38814" lon="0.08067">
        <ele>65</ele>
        <time>2013-02-17T13:31:59.999Z</time>
      </trkpt>
      <trkpt lat="47.38814" lon="0.08068">
        <ele>65</ele>
        <time>2013-02-17T13:32:00.999Z</time>
      </trkpt>
      <trkpt lat="47.38817" lon="0.0807">
        <ele>65</ele>
        <time>2013-02-17T13:32:02.999Z</time>
      </trkpt>
      <trkpt lat="47.38819" lon="0.0807">
        <ele>65</ele>
        <time>2013-02-17T13:32:03.999Z</time>
      </trkpt>
      <trkpt lat="47.38822" lon="0.0807">
        <ele>65</ele>
        <time>2013-02-17T13:32:07.999Z</time>
      </trkpt>
      <trkpt lat="47.38824" lon="0.08068">
        <ele>65</ele>
        <time>2013-02-17T13:32:08.999Z</time>
      </trkpt>
      <trkpt lat="47.38828" lon="0.08065">
        <ele>65</ele>
        <time>2013-02-17T13:32:10.999Z</time>
      </trkpt>
      <trkpt lat="47.38829" lon="0.08064">
        <ele>65</ele>
        <time>2013-02-17T13:32:11.999Z</time>
      </trkpt>
      <trkpt lat="47.38834" lon="0.08065">
        <ele>63</ele>
        <time>2013-02-17T13:32:15.999Z</time>
      </trkpt>
      <trkpt lat="47.38834" lon="0.08065">
        <ele>63</ele>
        <time>2013-02-17T13:32:16.999Z</time>
      </trkpt>
      <trkpt lat="47.38836" lon="0.08071">
        <ele>64</ele>
        <time>2013-02-17T13:32:19.999Z</time>
      </trkpt>
      <trkpt lat="47.38837" lon="0.08074">
        <ele>64</ele>
        <time>2013-02-17T13:32:20.999Z</time>
      </trkpt>
      <trkpt lat="47.38837" lon="0.0808">
        <ele>64</ele>
        <time>2013-02-17T13:32:22.999Z</time>
      </trkpt>
      <trkpt lat="47.38837" lon="0.08083">
        <ele>64</ele>
        <time>2013-02-17T13:32:23.999Z</time>
      </trkpt>
      <trkpt lat="47.38837" lon="0.08088">
        <ele>64</ele>
        <time>2013-02-17T13:32:25.999Z</time>
      </trkpt>
      <trkpt lat="47.38839" lon="0.08091">
        <ele>64</ele>
        <time>2013-02-17T13:32:26.999Z</time>
      </trkpt>
      <trkpt lat="47.3884" lon="0.08097">
        <ele>64</ele>
        <time>2013-02-17T13:32:29.999Z</time>
      </trkpt>
      <trkpt lat="47.38841" lon="0.08098">
        <ele>64</ele>
        <time>2013-02-17T13:32:30.999Z</time>
      </trkpt>
      <trkpt lat="47.38845" lon="0.08099">
        <ele>64</ele>
        <time>2013-02-17T13:32:34.999Z</time>
      </trkpt>
      <trkpt lat="47.38846" lon="0.08099">
        <ele>64</ele>
        <time>2013-02-17T13:32:35.999Z</time>
      </trkpt>
      <trkpt lat="47.38849" lon="0.08102">
        <ele>64</ele>
        <time>2013-02-17T13:32:41.999Z</time>
      </trkpt>
      <trkpt lat="47.3885" lon="0.08102">
        <ele>64</ele>
        <time>2013-02-17T13:32:42.999Z</time>
      </trkpt>
      <trkpt lat="47.38854" lon="0.08105">
        <ele>64</ele>
        <time>2013-02-17T13:32:46.999Z</time>
      </trkpt>
      <trkpt lat="47.38855" lon="0.08105">
        <ele>64</ele>
        <time>2013-02-17T13:32:47.999Z</time>
      </trkpt>
      <trkpt lat="47.38858" lon="0.08107">
        <ele>64</ele>
        <time>2013-02-17T13:32:50.999Z</time>
      </trkpt>
      <trkpt lat="47.38859" lon="0.08107">
        <ele>64</ele>
        <time>2013-02-17T13:32:51.999Z</time>
      </trkpt>
      <trkpt lat="47.38863" lon="0.08109">
        <ele>64</ele>
        <time>2013-02-17T13:32:54.999Z</time>
      </trkpt>
      <trkpt lat="47.38864" lon="0.0811">
        <ele>64</ele>
        <time>2013-02-17T13:32:55.999Z</time>
      </trkpt>
      <trkpt lat="47.38865" lon="0.08114">
        <ele>64</ele>
        <time>2013-02-17T13:32:57.999Z</time>
      </trkpt>
      <trkpt lat="47.38867" lon="0.08115">
        <ele>64</ele>
        <time>2013-02-17T13:32:58.999Z</time>
      </trkpt>
      <trkpt lat="47.38869" lon="0.08121">
        <ele>64</ele>
        <time>2013-02-17T13:33:01.999Z</time>
      </trkpt>
      <trkpt lat="47.38869" lon="0.08122">
        <ele>64</ele>
        <time>2013-02-17T13:33:02.999Z</time>
      </trkpt>
      <trkpt lat="47.38869" lon="0.08128">
        <ele>64</ele>
        <time>2013-02-17T13:33:07.999Z</time>
      </trkpt>
      <trkpt lat="47.3887" lon="0.08129">
        <ele>64</ele>
        <time>2013-02-17T13:33:08.999Z</time>
      </trkpt>
      <trkpt lat="47.38874" lon="0.0813">
        <ele>64</ele>
        <time>2013-02-17T13:33:12.999Z</time>
      </trkpt>
      <trkpt lat="47.38875" lon="0.0813">
        <ele>64</ele>
        <time>2013-02-17T13:33:13.999Z</time>
      </trkpt>
      <trkpt lat="47.38879" lon="0.08133">
        <ele>64</ele>
        <time>2013-02-17T13:33:18.999Z</time>
      </trkpt>
      <trkpt lat="47.3888" lon="0.08133">
        <ele>64</ele>
        <time>2013-02-17T13:33:19.999Z</time>
      </trkpt>
      <trkpt lat="47.38883" lon="0.08134">
        <ele>64</ele>
        <time>2013-02-17T13:33:23.999Z</time>
      </trkpt>
      <trkpt lat="47.38884" lon="0.08134">
        <ele>64</ele>
        <time>2013-02-17T13:33:24.999Z</time>
      </trkpt>
      <trkpt lat="47.38887" lon="0.08136">
        <ele>64</ele>
        <time>2013-02-17T13:33:47.999Z</time>
      </trkpt>
      <trkpt lat="47.38889" lon="0.08137">
        <ele>64</ele>
        <time>2013-02-17T13:33:48.999Z</time>
      </trkpt>
      <trkpt lat="47.38889" lon="0.08143">
        <ele>64</ele>
        <time>2013-02-17T13:33:56.999Z</time>
      </trkpt>
      <trkpt lat="47.38889" lon="0.08145">
        <ele>64</ele>
        <time>2013-02-17T13:33:57.999Z</time>
      </trkpt>
      <trkpt lat="47.38891" lon="0.08148">
        <ele>64</ele>
        <time>2013-02-17T13:33:59.999Z</time>
      </trkpt>
      <trkpt lat="47.38892" lon="0.0815">
        <ele>64</ele>
        <time>2013-02-17T13:34:00.999Z</time>
      </trkpt>
      <trkpt lat="47.38893" lon="0.08154">
        <ele>64</ele>
        <time>2013-02-17T13:34:02.999Z</time>
      </trkpt>
      <trkpt lat="47.38894" lon="0.08157">
        <ele>64</ele>
        <time>2013-02-17T13:34:03.999Z</time>
      </trkpt>
      <trkpt lat="47.38894" lon="0.08162">
        <ele>64</ele>
        <time>2013-02-17T13:34:06.999Z</time>
      </trkpt>
      <trkpt lat="47.38895" lon="0.08164">
        <ele>64</ele>
        <time>2013-02-17T13:34:07.999Z</time>
      </trkpt>
      <trkpt lat="47.38896" lon="0.08169">
        <ele>64</ele>
        <time>2013-02-17T13:34:10.999Z</time>
      </trkpt>
      <trkpt lat="47.38896" lon="0.08171">
        <ele>64</ele>
        <time>2013-02-17T13:34:11.999Z</time>
      </trkpt>
      <trkpt lat="47.38898" lon="0.08175">
        <ele>64</ele>
        <time>2013-02-17T13:34:14.999Z</time>
      </trkpt>
      <trkpt lat="47.389" lon="0.08175">
        <ele>64</ele>
        <time>2013-02-17T13:34:15.999Z</time>
      </trkpt>
      <trkpt lat="47.38902" lon="0.08179">
        <ele>64</ele>
        <time>2013-02-17T13:34:18.999Z</time>
      </trkpt>
      <trkpt lat="47.38903" lon="0.08181">
        <ele>64</ele>
        <time>2013-02-17T13:34:19.999Z</time>
      </trkpt>
      <trkpt lat="47.38906" lon="0.08185">
        <ele>64</ele>
        <time>2013-02-17T13:34:22.999Z</time>
      </trkpt>
      <trkpt lat="47.38907" lon="0.08186">
        <ele>64</ele>
        <time>2013-02-17T13:34:23.999Z</time>
      </trkpt>
      <trkpt lat="47.3891" lon="0.08189">
        <ele>64</ele>
        <time>2013-02-17T13:34:25.999Z</time>
      </trkpt>
      <trkpt lat="47.38911" lon="0.0819">
        <ele>64</ele>
        <time>2013-02-17T13:34:26.999Z</time>
      </trkpt>
      <trkpt lat="47.38914" lon="0.08194">
        <ele>64</ele>
        <time>2013-02-17T13:34:29.999Z</time>
      </trkpt>
      <trkpt lat="47.38914" lon="0.08196">
        <ele>64</ele>
        <time>2013-02-17T13:34:30.999Z</time>
      </trkpt>
      <trkpt lat="47.38916" lon="0.08201">
        <ele>64</ele>
        <time>2013-02-17T13:34:34.999Z</time>
      </trkpt>
      <trkpt lat="47.38916" lon="0.08203">
        <ele>64</ele>
        <time>2013-02-17T13:34:35.999Z</time>
      </trkpt>
      <trkpt lat="47.38917" lon="0.08209">
        <ele>63</ele>
        <time>2013-02-17T13:34:38.999Z</time>
      </trkpt>
      <trkpt lat="47.38917" lon="0.08211">
        <ele>63</ele>
        <time>2013-02-17T13:34:39.999Z</time>
      </trkpt>
      <trkpt lat="47.38918" lon="0.08217">
        <ele>63</ele>
        <time>2013-02-17T13:34:45.999Z</time>
      </trkpt>
      <trkpt lat="47.38918" lon="0.08218">
        <ele>63</ele>
        <time>2013-02-17T13:34:46.999Z</time>
      </trkpt>
      <trkpt lat="47.3892" lon="0.08223">
        <ele>63</ele>
        <time>2013-02-17T13:34:51.999Z</time>
      </trkpt>
      <trkpt lat="47.38921" lon="0.08224">
        <ele>62</ele>
        <time>2013-02-17T13:34:52.999Z</time>
      </trkpt>
      <trkpt lat="47.38923" lon="0.08229">
        <ele>63</ele>
        <time>2013-02-17T13:34:56.999Z</time>
      </trkpt>
      <trkpt lat="47.38923" lon="0.0823">
        <ele>63</ele>
        <time>2013-02-17T13:34:57.999Z</time>
      </trkpt>
      <trkpt lat="47.38925" lon="0.08235">
        <ele>63</ele>
        <time>2013-02-17T13:35:00.999Z</time>
      </trkpt>
      <trkpt lat="47.38926" lon="0.08237">
        <ele>63</ele>
        <time>2013-02-17T13:35:01.999Z</time>
      </trkpt>
      <trkpt lat="47.38928" lon="0.08242">
        <ele>63</ele>
        <time>2013-02-17T13:35:04.999Z</time>
      </trkpt>
      <trkpt lat="47.38929" lon="0.08244">
        <ele>63</ele>
        <time>2013-02-17T13:35:05.999Z</time>
      </trkpt>
      <trkpt lat="47.3893" lon="0.0825">
        <ele>63</ele>
        <time>2013-02-17T13:35:11.999Z</time>
      </trkpt>
      <trkpt lat="47.38931" lon="0.08251">
        <ele>62</ele>
        <time>2013-02-17T13:35:12.999Z</time>
      </trkpt>
      <trkpt lat="47.38932" lon="0.08256">
        <ele>62</ele>
        <time>2013-02-17T13:35:15.999Z</time>
      </trkpt>
      <trkpt lat="47.38933" lon="0.08257">
        <ele>62</ele>
        <time>2013-02-17T13:35:16.999Z</time>
      </trkpt>
      <trkpt lat="47.38934" lon="0.08261">
        <ele>62</ele>
        <time>2013-02-17T13:35:18.999Z</time>
      </trkpt>
      <trkpt lat="47.38935" lon="0.08263">
        <ele>62</ele>
        <time>2013-02-17T13:35:19.999Z</time>
      </trkpt>
      <trkpt lat="47.38937" lon="0.08268">
        <ele>62</ele>
        <time>2013-02-17T13:35:22.999Z</time>
      </trkpt>
      <trkpt lat="47.38937" lon="0.08269">
        <ele>62</ele>
        <time>2013-02-17T13:35:23.999Z</time>
      </trkpt>
      <trkpt lat="47.3894" lon="0.08273">
        <ele>62</ele>
        <time>2013-02-17T13:35:26.999Z</time>
      </trkpt>
      <trkpt lat="47.3894" lon="0.08274">
        <ele>62</ele>
        <time>2013-02-17T13:35:27.999Z</time>
      </trkpt>
      <trkpt lat="47.38942" lon="0.08277">
        <ele>62</ele>
        <time>2013-02-17T13:35:30.999Z</time>
      </trkpt>
      <trkpt lat="47.38943" lon="0.08279">
        <ele>62</ele>
        <time>2013-02-17T13:35:31.999Z</time>
      </trkpt>
      <trkpt lat="47.38945" lon="0.08285">
        <ele>62</ele>
        <time>2013-02-17T13:35:36.999Z</time>
      </trkpt>
      <trkpt lat="47.38946" lon="0.08286">
        <ele>62</ele>
        <time>2013-02-17T13:35:37.999Z</time>
      </trkpt>
      <trkpt lat="47.38947" lon="0.0829">
        <ele>62</ele>
        <time>2013-02-17T13:35:40.999Z</time>
      </trkpt>
      <trkpt lat="47.38948" lon="0.08292">
        <ele>62</ele>
        <time>2013-02-17T13:35:41.999Z</time>
      </trkpt>
      <trkpt lat="47.38949" lon="0.08297">
        <ele>62</ele>
        <time>2013-02-17T13:35:46.999Z</time>
      </trkpt>
      <trkpt lat="47.3895" lon="0.08298">
        <ele>62</ele>
        <time>2013-02-17T13:35:47.999Z</time>
      </trkpt>
      <trkpt lat="47.38951" lon="0.08304">
        <ele>62</ele>
        <time>2013-02-17T13:35:51.999Z</time>
      </trkpt>
      <trkpt lat="47.38951" lon="0.08305">
        <ele>62</ele>
        <time>2013-02-17T13:35:52.999Z</time>
      </trkpt>
      <trkpt lat="47.38953" lon="0.0831">
        <ele>62</ele>
        <time>2013-02-17T13:35:55.999Z</time>
      </trkpt>
      <trkpt lat="47.38953" lon="0.08312">
        <ele>62</ele>
        <time>2013-02-17T13:35:56.999Z</time>
      </trkpt>
      <trkpt lat="47.38954" lon="0.08317">
        <ele>62</ele>
        <time>2013-02-17T13:35:59.999Z</time>
      </trkpt>
      <trkpt lat="47.38955" lon="0.08319">
        <ele>62</ele>
        <time>2013-02-17T13:36:00.999Z</time>
      </trkpt>
      <trkpt lat="47.38957" lon="0.08324">
        <ele>62</ele>
        <time>2013-02-17T13:36:03.999Z</time>
      </trkpt>
      <trkpt lat="47.38958" lon="0.08325">
        <ele>62</ele>
        <time>2013-02-17T13:36:04.999Z</time>
      </trkpt>
      <trkpt lat="47.38959" lon="0.08331">
        <ele>61</ele>
        <time>2013-02-17T13:36:08.999Z</time>
      </trkpt>
      <trkpt lat="47.3896" lon="0.08333">
        <ele>61</ele>
        <time>2013-02-17T13:36:09.999Z</time>
      </trkpt>
      <trkpt lat="47.38962" lon="0.08338">
        <ele>62</ele>
        <time>2013-02-17T13:36:12.999Z</time>
      </trkpt>
      <trkpt lat="47.38963" lon="0.08339">
        <ele>62</ele>
        <time>2013-02-17T13:36:13.999Z</time>
      </trkpt>
      <trkpt lat="47.38965" lon="0.08344">
        <ele>62</ele>
        <time>2013-02-17T13:36:16.999Z</time>
      </trkpt>
      <trkpt lat="47.38966" lon="0.08346">
        <ele>62</ele>
        <time>2013-02-17T13:36:17.999Z</time>
      </trkpt>
      <trkpt lat="47.38967" lon="0.08351">
        <ele>62</ele>
        <time>2013-02-17T13:36:19.999Z</time>
      </trkpt>
      <trkpt lat="47.38968" lon="0.08353">
        <ele>62</ele>
        <time>2013-02-17T13:36:20.999Z</time>
      </trkpt>
      <trkpt lat="47.3897" lon="0.08357">
        <ele>62</ele>
        <time>2013-02-17T13:36:23.999Z</time>
      </trkpt>
      <trkpt lat="47.38971" lon="0.08358">
        <ele>62</ele>
        <time>2013-02-17T13:36:24.999Z</time>
      </trkpt>
      <trkpt lat="47.38973" lon="0.08363">
        <ele>62</ele>
        <time>2013-02-17T13:36:27.999Z</time>
      </trkpt>
      <trkpt lat="47.38974" lon="0.08365">
        <ele>62</ele>
        <time>2013-02-17T13:36:28.999Z</time>
      </trkpt>
      <trkpt lat="47.38976" lon="0.08371">
        <ele>62</ele>
        <time>2013-02-17T13:36:31.999Z</time>
      </trkpt>
      <trkpt lat="47.38976" lon="0.08372">
        <ele>62</ele>
        <time>2013-02-17T13:36:32.999Z</time>
      </trkpt>
      <trkpt lat="47.38978" lon="0.08377">
        <ele>62</ele>
        <time>2013-02-17T13:36:37.999Z</time>
      </trkpt>
      <trkpt lat="47.38977" lon="0.08379">
        <ele>62</ele>
        <time>2013-02-17T13:36:38.999Z</time>
      </trkpt>
      <trkpt lat="47.38979" lon="0.08384">
        <ele>62</ele>
        <time>2013-02-17T13:36:41.999Z</time>
      </trkpt>
      <trkpt lat="47.38979" lon="0.08386">
        <ele>62</ele>
        <time>2013-02-17T13:36:42.999Z</time>
      </trkpt>
      <trkpt lat="47.3898" lon="0.08393">
        <ele>62</ele>
        <time>2013-02-17T13:36:46.999Z</time>
      </trkpt>
      <trkpt lat="47.38979" lon="0.08394">
        <ele>62</ele>
        <time>2013-02-17T13:36:47.999Z</time>
      </trkpt>
      <trkpt lat="47.38979" lon="0.08401">
        <ele>62</ele>
        <time>2013-02-17T13:36:52.999Z</time>
      </trkpt>
      <trkpt lat="47.38979" lon="0.08401">
        <ele>62</ele>
        <time>2013-02-17T13:36:53.999Z</time>
      </trkpt>
      <trkpt lat="47.38981" lon="0.08403">
        <ele>62</ele>
        <time>2013-02-17T13:37:02.999Z</time>
      </trkpt>
      <trkpt lat="47.38984" lon="0.08407">
        <ele>62</ele>
        <time>2013-02-17T13:37:03.999Z</time>
      </trkpt>
      <trkpt lat="47.38987" lon="0.08408">
        <ele>62</ele>
        <time>2013-02-17T13:37:05.999Z</time>
      </trkpt>
      <trkpt lat="47.38989" lon="0.08408">
        <ele>62</ele>
        <time>2013-02-17T13:37:06.999Z</time>
      </trkpt>
      <trkpt lat="47.38991" lon="0.08402">
        <ele>62</ele>
        <time>2013-02-17T13:37:12.999Z</time>
      </trkpt>
      <trkpt lat="47.38991" lon="0.08401">
        <ele>62</ele>
        <time>2013-02-17T13:37:13.999Z</time>
      </trkpt>
      <trkpt lat="47.38994" lon="0.08397">
        <ele>62</ele>
        <time>2013-02-17T13:37:19.999Z</time>
      </trkpt>
      <trkpt lat="47.38995" lon="0.08395">
        <ele>62</ele>
        <time>2013-02-17T13:37:20.999Z</time>
      </trkpt>
      <trkpt lat="47.38999" lon="0.08394">
        <ele>62</ele>
        <time>2013-02-17T13:37:23.999Z</time>
      </trkpt>
      <trkpt lat="47.39001" lon="0.08394">
        <ele>62</ele>
        <time>2013-02-17T13:37:24.999Z</time>
      </trkpt>
      <trkpt lat="47.39004" lon="0.08395">
        <ele>62</ele>
        <time>2013-02-17T13:37:26.999Z</time>
      </trkpt>
      <trkpt lat="47.39006" lon="0.08395">
        <ele>62</ele>
        <time>2013-02-17T13:37:27.999Z</time>
      </trkpt>
      <trkpt lat="47.39009" lon="0.08396">
        <ele>62</ele>
        <time>2013-02-17T13:37:29.999Z</time>
      </trkpt>
      <trkpt lat="47.39011" lon="0.08397">
        <ele>62</ele>
        <time>2013-02-17T13:37:30.999Z</time>
      </trkpt>
      <trkpt lat="47.39014" lon="0.08398">
        <ele>62</ele>
        <time>2013-02-17T13:37:33.999Z</time>
      </trkpt>
      <trkpt lat="47.39015" lon="0.08399">
        <ele>62</ele>
        <time>2013-02-17T13:37:34.999Z</time>
      </trkpt>
      <trkpt lat="47.39019" lon="0.084">
        <ele>62</ele>
        <time>2013-02-17T13:37:36.999Z</time>
      </trkpt>
      <trkpt lat="47.3902" lon="0.084">
        <ele>62</ele>
        <time>2013-02-17T13:37:37.999Z</time>
      </trkpt>
      <trkpt lat="47.39024" lon="0.08401">
        <ele>62</ele>
        <time>2013-02-17T13:37:40.999Z</time>
      </trkpt>
      <trkpt lat="47.39025" lon="0.08401">
        <ele>62</ele>
        <time>2013-02-17T13:37:41.999Z</time>
      </trkpt>
      <trkpt lat="47.39028" lon="0.08405">
        <ele>62</ele>
        <time>2013-02-17T13:37:46.999Z</time>
      </trkpt>
      <trkpt lat="47.39029" lon="0.08405">
        <ele>62</ele>
        <time>2013-02-17T13:37:47.999Z</time>
      </trkpt>
      <trkpt lat="47.39034" lon="0.08405">
        <ele>62</ele>
        <time>2013-02-17T13:37:51.999Z</time>
      </trkpt>
      <trkpt lat="47.39035" lon="0.08405">
        <ele>62</ele>
        <time>2013-02-17T13:37:52.999Z</time>
      </trkpt>
      <trkpt lat="47.39039" lon="0.08405">
        <ele>62</ele>
        <time>2013-02-17T13:37:56.999Z</time>
      </trkpt>
      <trkpt lat="47.3904" lon="0.08405">
        <ele>62</ele>
        <time>2013-02-17T13:37:57.999Z</time>
      </trkpt>
      <trkpt lat="47.39044" lon="0.08406">
        <ele>62</ele>
        <time>2013-02-17T13:38:02.999Z</time>
      </trkpt>
      <trkpt lat="47.39044" lon="0.08406">
        <ele>62</ele>
        <time>2013-02-17T13:38:03.999Z</time>
      </trkpt>
      <trkpt lat="47.39048" lon="0.08407">
        <ele>62</ele>
        <time>2013-02-17T13:38:06.999Z</time>
      </trkpt>
      <trkpt lat="47.39049" lon="0.08407">
        <ele>62</ele>
        <time>2013-02-17T13:38:07.999Z</time>
      </trkpt>
      <trkpt lat="47.39053" lon="0.08407">
        <ele>62</ele>
        <time>2013-02-17T13:38:10.999Z</time>
      </trkpt>
      <trkpt lat="47.39055" lon="0.08407">
        <ele>62</ele>
        <time>2013-02-17T13:38:11.999Z</time>
      </trkpt>
      <trkpt lat="47.39058" lon="0.08408">
        <ele>62</ele>
        <time>2013-02-17T13:38:14.999Z</time>
      </trkpt>
      <trkpt lat="47.39059" lon="0.08408">
        <ele>62</ele>
        <time>2013-02-17T13:38:15.999Z</time>
      </trkpt>
      <trkpt lat="47.39064" lon="0.0841">
        <ele>62</ele>
        <time>2013-02-17T13:38:20.999Z</time>
      </trkpt>
      <trkpt lat="47.39065" lon="0.08409">
        <ele>62</ele>
        <time>2013-02-17T13:38:21.999Z</time>
      </trkpt>
      <trkpt lat="47.39068" lon="0.08408">
        <ele>62</ele>
        <time>2013-02-17T13:38:24.999Z</time>
      </trkpt>
      <trkpt lat="47.3907" lon="0.08408">
        <ele>62</ele>
        <time>2013-02-17T13:38:25.999Z</time>
      </trkpt>
      <trkpt lat="47.39074" lon="0.08409">
        <ele>63</ele>
        <time>2013-02-17T13:38:29.999Z</time>
      </trkpt>
      <trkpt lat="47.39075" lon="0.08409">
        <ele>63</ele>
        <time>2013-02-17T13:38:30.999Z</time>
      </trkpt>
      <trkpt lat="47.39079" lon="0.08411">
        <ele>63</ele>
        <time>2013-02-17T13:38:34.999Z</time>
      </trkpt>
      <trkpt lat="47.3908" lon="0.08412">
        <ele>63</ele>
        <time>2013-02-17T13:38:35.999Z</time>
      </trkpt>
      <trkpt lat="47.39084" lon="0.08413">
        <ele>63</ele>
        <time>2013-02-17T13:38:39.999Z</time>
      </trkpt>
      <trkpt lat="47.39085" lon="0.08413">
        <ele>63</ele>
        <time>2013-02-17T13:38:40.999Z</time>
      </trkpt>
      <trkpt lat="47.39089" lon="0.08415">
        <ele>63</ele>
        <time>2013-02-17T13:38:43.999Z</time>
      </trkpt>
      <trkpt lat="47.3909" lon="0.08415">
        <ele>63</ele>
        <time>2013-02-17T13:38:44.999Z</time>
      </trkpt>
      <trkpt lat="47.39093" lon="0.08416">
        <ele>63</ele>
        <time>2013-02-17T13:38:48.999Z</time>
      </trkpt>
      <trkpt lat="47.39094" lon="0.08416">
        <ele>63</ele>
        <time>2013-02-17T13:38:49.999Z</time>
      </trkpt>
      <trkpt lat="47.39098" lon="0.08417">
        <ele>63</ele>
        <time>2013-02-17T13:38:53.999Z</time>
      </trkpt>
      <trkpt lat="47.391" lon="0.08417">
        <ele>63</ele>
        <time>2013-02-17T13:38:54.999Z</time>
      </trkpt>
      <trkpt lat="47.39104" lon="0.08417">
        <ele>63</ele>
        <time>2013-02-17T13:38:57.999Z</time>
      </trkpt>
      <trkpt lat="47.39105" lon="0.08417">
        <ele>63</ele>
        <time>2013-02-17T13:38:58.999Z</time>
      </trkpt>
      <trkpt lat="47.39109" lon="0.08418">
        <ele>63</ele>
        <time>2013-02-17T13:39:01.999Z</time>
      </trkpt>
      <trkpt lat="47.3911" lon="0.08418">
        <ele>63</ele>
        <time>2013-02-17T13:39:02.999Z</time>
      </trkpt>
      <trkpt lat="47.39114" lon="0.08418">
        <ele>62</ele>
        <time>2013-02-17T13:39:05.999Z</time>
      </trkpt>
      <trkpt lat="47.39115" lon="0.08418">
        <ele>62</ele>
        <time>2013-02-17T13:39:06.999Z</time>
      </trkpt>
      <trkpt lat="47.39119" lon="0.08419">
        <ele>62</ele>
        <time>2013-02-17T13:39:10.999Z</time>
      </trkpt>
      <trkpt lat="47.3912" lon="0.08419">
        <ele>62</ele>
        <time>2013-02-17T13:39:11.999Z</time>
      </trkpt>
      <trkpt lat="47.39124" lon="0.0842">
        <ele>62</ele>
        <time>2013-02-17T13:39:16.999Z</time>
      </trkpt>
      <trkpt lat="47.39125" lon="0.0842">
        <ele>62</ele>
        <time>2013-02-17T13:39:17.999Z</time>
      </trkpt>
      <trkpt lat="47.39129" lon="0.0842">
        <ele>62</ele>
        <time>2013-02-17T13:39:20.999Z</time>
      </trkpt>
      <trkpt lat="47.3913" lon="0.0842">
        <ele>62</ele>
        <time>2013-02-17T13:39:21.999Z</time>
      </trkpt>
      <trkpt lat="47.39133" lon="0.08421">
        <ele>62</ele>
        <time>2013-02-17T13:39:24.999Z</time>
      </trkpt>
      <trkpt lat="47.39134" lon="0.08422">
        <ele>62</ele>
        <time>2013-02-17T13:39:25.999Z</time>
      </trkpt>
      <trkpt lat="47.39137" lon="0.08423">
        <ele>62</ele>
        <time>2013-02-17T13:39:28.999Z</time>
      </trkpt>
      <trkpt lat="47.39138" lon="0.08424">
        <ele>62</ele>
        <time>2013-02-17T13:39:29.999Z</time>
      </trkpt>
      <trkpt lat="47.39142" lon="0.08424">
        <ele>62</ele>
        <time>2013-02-17T13:39:33.999Z</time>
      </trkpt>
      <trkpt lat="47.39143" lon="0.08425">
        <ele>62</ele>
        <time>2013-02-17T13:39:34.999Z</time>
      </trkpt>
      <trkpt lat="47.39147" lon="0.08426">
        <ele>62</ele>
        <time>2013-02-17T13:39:38.999Z</time>
      </trkpt>
      <trkpt lat="47.39148" lon="0.08426">
        <ele>62</ele>
        <time>2013-02-17T13:39:39.999Z</time>
      </trkpt>
      <trkpt lat="47.39151" lon="0.08426">
        <ele>62</ele>
        <time>2013-02-17T13:39:44.999Z</time>
      </trkpt>
      <trkpt lat="47.39153" lon="0.08426">
        <ele>62</ele>
        <time>2013-02-17T13:39:45.999Z</time>
      </trkpt>
      <trkpt lat="47.39157" lon="0.08426">
        <ele>62</ele>
        <time>2013-02-17T13:39:49.999Z</time>
      </trkpt>
      <trkpt lat="47.39158" lon="0.08426">
        <ele>62</ele>
        <time>2013-02-17T13:39:50.999Z</time>
      </trkpt>
      <trkpt lat="47.39162" lon="0.08427">
        <ele>62</ele>
        <time>2013-02-17T13:39:53.999Z</time>
      </trkpt>
      <trkpt lat="47.39164" lon="0.08427">
        <ele>62</ele>
        <time>2013-02-17T13:39:54.999Z</time>
      </trkpt>
      <trkpt lat="47.39168" lon="0.08428">
        <ele>62</ele>
        <time>2013-02-17T13:39:58.999Z</time>
      </trkpt>
      <trkpt lat="47.39169" lon="0.08428">
        <ele>62</ele>
        <time>2013-02-17T13:39:59.999Z</time>
      </trkpt>
      <trkpt lat="47.39172" lon="0.08428">
        <ele>62</ele>
        <time>2013-02-17T13:40:02.999Z</time>
      </trkpt>
      <trkpt lat="47.39174" lon="0.08429">
        <ele>62</ele>
        <time>2013-02-17T13:40:03.999Z</time>
      </trkpt>
      <trkpt lat="47.39177" lon="0.08429">
        <ele>62</ele>
        <time>2013-02-17T13:40:06.999Z</time>
      </trkpt>
      <trkpt lat="47.39178" lon="0.08429">
        <ele>62</ele>
        <time>2013-02-17T13:40:07.999Z</time>
      </trkpt>
      <trkpt lat="47.39182" lon="0.08429">
        <ele>61</ele>
        <time>2013-02-17T13:40:11.999Z</time>
      </trkpt>
      <trkpt lat="47.39183" lon="0.0843">
        <ele>61</ele>
        <time>2013-02-17T13:40:12.999Z</time>
      </trkpt>
      <trkpt lat="47.39186" lon="0.08431">
        <ele>61</ele>
        <time>2013-02-17T13:40:16.999Z</time>
      </trkpt>
      <trkpt lat="47.39188" lon="0.08431">
        <ele>61</ele>
        <time>2013-02-17T13:40:17.999Z</time>
      </trkpt>
      <trkpt lat="47.39193" lon="0.08431">
        <ele>61</ele>
        <time>2013-02-17T13:40:21.999Z</time>
      </trkpt>
      <trkpt lat="47.39194" lon="0.08431">
        <ele>61</ele>
        <time>2013-02-17T13:40:22.999Z</time>
      </trkpt>
      <trkpt lat="47.39197" lon="0.08431">
        <ele>61</ele>
        <time>2013-02-17T13:40:25.999Z</time>
      </trkpt>
      <trkpt lat="47.39199" lon="0.08431">
        <ele>61</ele>
        <time>2013-02-17T13:40:26.999Z</time>
      </trkpt>
      <trkpt lat="47.39202" lon="0.08433">
        <ele>61</ele>
        <time>2013-02-17T13:40:29.999Z</time>
      </trkpt>
      <trkpt lat="47.39203" lon="0.08433">
        <ele>61</ele>
        <time>2013-02-17T13:40:30.999Z</time>
      </trkpt>
      <trkpt lat="47.39207" lon="0.08434">
        <ele>61</ele>
        <time>2013-02-17T13:40:34.999Z</time>
      </trkpt>
      <trkpt lat="47.39208" lon="0.08435">
        <ele>61</ele>
        <time>2013-02-17T13:40:35.999Z</time>
      </trkpt>
      <trkpt lat="47.39212" lon="0.08436">
        <ele>61</ele>
        <time>2013-02-17T13:40:38.999Z</time>
      </trkpt>
      <trkpt lat="47.39213" lon="0.08436">
        <ele>61</ele>
        <time>2013-02-17T13:40:39.999Z</time>
      </trkpt>
      <trkpt lat="47.39217" lon="0.08436">
        <ele>61</ele>
        <time>2013-02-17T13:40:43.999Z</time>
      </trkpt>
      <trkpt lat="47.39218" lon="0.08436">
        <ele>61</ele>
        <time>2013-02-17T13:40:44.999Z</time>
      </trkpt>
      <trkpt lat="47.39222" lon="0.08437">
        <ele>61</ele>
        <time>2013-02-17T13:40:47.999Z</time>
      </trkpt>
      <trkpt lat="47.39223" lon="0.08437">
        <ele>61</ele>
        <time>2013-02-17T13:40:48.999Z</time>
      </trkpt>
      <trkpt lat="47.39227" lon="0.08437">
        <ele>61</ele>
        <time>2013-02-17T13:40:51.999Z</time>
      </trkpt>
      <trkpt lat="47.39228" lon="0.08438">
        <ele>61</ele>
        <time>2013-02-17T13:40:52.999Z</time>
      </trkpt>
      <trkpt lat="47.39232" lon="0.08439">
        <ele>61</ele>
        <time>2013-02-17T13:40:56.999Z</time>
      </trkpt>
      <trkpt lat="47.39233" lon="0.0844">
        <ele>61</ele>
        <time>2013-02-17T13:40:57.999Z</time>
      </trkpt>
      <trkpt lat="47.39236" lon="0.08441">
        <ele>61</ele>
        <time>2013-02-17T13:41:00.999Z</time>
      </trkpt>
      <trkpt lat="47.39237" lon="0.08441">
        <ele>61</ele>
        <time>2013-02-17T13:41:01.999Z</time>
      </trkpt>
      <trkpt lat="47.39241" lon="0.08442">
        <ele>61</ele>
        <time>2013-02-17T13:41:05.999Z</time>
      </trkpt>
      <trkpt lat="47.39242" lon="0.08442">
        <ele>61</ele>
        <time>2013-02-17T13:41:06.999Z</time>
      </trkpt>
      <trkpt lat="47.39244" lon="0.08443">
        <ele>61</ele>
        <time>2013-02-17T13:41:08.999Z</time>
      </trkpt>
      <trkpt lat="47.39246" lon="0.08444">
        <ele>61</ele>
        <time>2013-02-17T13:41:09.999Z</time>
      </trkpt>
      <trkpt lat="47.39249" lon="0.08444">
        <ele>61</ele>
        <time>2013-02-17T13:41:11.999Z</time>
      </trkpt>
      <trkpt lat="47.39251" lon="0.08444">
        <ele>60</ele>
        <time>2013-02-17T13:41:12.999Z</time>
      </trkpt>
      <trkpt lat="47.39254" lon="0.08446">
        <ele>60</ele>
        <time>2013-02-17T13:41:15.999Z</time>
      </trkpt>
      <trkpt lat="47.39255" lon="0.08446">
        <ele>60</ele>
        <time>2013-02-17T13:41:16.999Z</time>
      </trkpt>
      <trkpt lat="47.39259" lon="0.08447">
        <ele>60</ele>
        <time>2013-02-17T13:41:20.999Z</time>
      </trkpt>
      <trkpt lat="47.39259" lon="0.08447">
        <ele>60</ele>
        <time>2013-02-17T13:41:21.999Z</time>
      </trkpt>
      <trkpt lat="47.39263" lon="0.08448">
        <ele>60</ele>
        <time>2013-02-17T13:41:25.999Z</time>
      </trkpt>
      <trkpt lat="47.39264" lon="0.08449">
        <ele>60</ele>
        <time>2013-02-17T13:41:26.999Z</time>
      </trkpt>
      <trkpt lat="47.39268" lon="0.08449">
        <ele>60</ele>
        <time>2013-02-17T13:41:30.999Z</time>
      </trkpt>
      <trkpt lat="47.39269" lon="0.08449">
        <ele>60</ele>
        <time>2013-02-17T13:41:31.999Z</time>
      </trkpt>
      <trkpt lat="47.39272" lon="0.0845">
        <ele>60</ele>
        <time>2013-02-17T13:41:34.999Z</time>
      </trkpt>
      <trkpt lat="47.39273" lon="0.0845">
        <ele>60</ele>
        <time>2013-02-17T13:41:35.999Z</time>
      </trkpt>
      <trkpt lat="47.39277" lon="0.08452">
        <ele>60</ele>
        <time>2013-02-17T13:41:38.999Z</time>
      </trkpt>
      <trkpt lat="47.39278" lon="0.08452">
        <ele>60</ele>
        <time>2013-02-17T13:41:39.999Z</time>
      </trkpt>
      <trkpt lat="47.39282" lon="0.08453">
        <ele>60</ele>
        <time>2013-02-17T13:41:42.999Z</time>
      </trkpt>
      <trkpt lat="47.39283" lon="0.08453">
        <ele>60</ele>
        <time>2013-02-17T13:41:43.999Z</time>
      </trkpt>
      <trkpt lat="47.39287" lon="0.08453">
        <ele>60</ele>
        <time>2013-02-17T13:41:46.999Z</time>
      </trkpt>
      <trkpt lat="47.39288" lon="0.08453">
        <ele>60</ele>
        <time>2013-02-17T13:41:47.999Z</time>
      </trkpt>
      <trkpt lat="47.39292" lon="0.08455">
        <ele>60</ele>
        <time>2013-02-17T13:41:51.999Z</time>
      </trkpt>
      <trkpt lat="47.39293" lon="0.08455">
        <ele>60</ele>
        <time>2013-02-17T13:41:52.999Z</time>
      </trkpt>
      <trkpt lat="47.39297" lon="0.08456">
        <ele>59</ele>
        <time>2013-02-17T13:41:57.999Z</time>
      </trkpt>
      <trkpt lat="47.39298" lon="0.08456">
        <ele>59</ele>
        <time>2013-02-17T13:41:58.999Z</time>
      </trkpt>
      <trkpt lat="47.393" lon="0.08457">
        <ele>59</ele>
        <time>2013-02-17T13:42:00.999Z</time>
      </trkpt>
      <trkpt lat="47.39302" lon="0.08457">
        <ele>59</ele>
        <time>2013-02-17T13:42:01.999Z</time>
      </trkpt>
      <trkpt lat="47.39305" lon="0.08459">
        <ele>59</ele>
        <time>2013-02-17T13:42:05.999Z</time>
      </trkpt>
      <trkpt lat="47.39306" lon="0.08459">
        <ele>59</ele>
        <time>2013-02-17T13:42:06.999Z</time>
      </trkpt>
      <trkpt lat="47.3931" lon="0.0846">
        <ele>59</ele>
        <time>2013-02-17T13:42:09.999Z</time>
      </trkpt>
      <trkpt lat="47.39311" lon="0.08461">
        <ele>59</ele>
        <time>2013-02-17T13:42:10.999Z</time>
      </trkpt>
      <trkpt lat="47.39315" lon="0.08462">
        <ele>59</ele>
        <time>2013-02-17T13:42:13.999Z</time>
      </trkpt>
      <trkpt lat="47.39316" lon="0.08463">
        <ele>59</ele>
        <time>2013-02-17T13:42:14.999Z</time>
      </trkpt>
      <trkpt lat="47.3932" lon="0.08465">
        <ele>59</ele>
        <time>2013-02-17T13:42:18.999Z</time>
      </trkpt>
      <trkpt lat="47.39321" lon="0.08465">
        <ele>59</ele>
        <time>2013-02-17T13:42:19.999Z</time>
      </trkpt>
      <trkpt lat="47.39325" lon="0.08468">
        <ele>59</ele>
        <time>2013-02-17T13:42:22.999Z</time>
      </trkpt>
      <trkpt lat="47.39326" lon="0.08468">
        <ele>59</ele>
        <time>2013-02-17T13:42:23.999Z</time>
      </trkpt>
      <trkpt lat="47.39329" lon="0.08469">
        <ele>59</ele>
        <time>2013-02-17T13:42:28.999Z</time>
      </trkpt>
      <trkpt lat="47.3933" lon="0.08469">
        <ele>59</ele>
        <time>2013-02-17T13:42:29.999Z</time>
      </trkpt>
      <trkpt lat="47.39333" lon="0.08469">
        <ele>59</ele>
        <time>2013-02-17T13:42:32.999Z</time>
      </trkpt>
      <trkpt lat="47.39335" lon="0.08469">
        <ele>58</ele>
        <time>2013-02-17T13:42:33.999Z</time>
      </trkpt>
      <trkpt lat="47.39339" lon="0.0847">
        <ele>58</ele>
        <time>2013-02-17T13:42:37.999Z</time>
      </trkpt>
      <trkpt lat="47.3934" lon="0.08471">
        <ele>58</ele>
        <time>2013-02-17T13:42:38.999Z</time>
      </trkpt>
      <trkpt lat="47.39345" lon="0.08472">
        <ele>58</ele>
        <time>2013-02-17T13:42:42.999Z</time>
      </trkpt>
      <trkpt lat="47.39346" lon="0.08472">
        <ele>58</ele>
        <time>2013-02-17T13:42:43.999Z</time>
      </trkpt>
      <trkpt lat="47.39349" lon="0.08474">
        <ele>58</ele>
        <time>2013-02-17T13:42:46.999Z</time>
      </trkpt>
      <trkpt lat="47.39351" lon="0.08475">
        <ele>58</ele>
        <time>2013-02-17T13:42:47.999Z</time>
      </trkpt>
      <trkpt lat="47.39354" lon="0.08477">
        <ele>58</ele>
        <time>2013-02-17T13:42:51.999Z</time>
      </trkpt>
      <trkpt lat="47.39356" lon="0.08476">
        <ele>58</ele>
        <time>2013-02-17T13:42:52.999Z</time>
      </trkpt>
      <trkpt lat="47.3936" lon="0.08477">
        <ele>58</ele>
        <time>2013-02-17T13:42:55.999Z</time>
      </trkpt>
      <trkpt lat="47.39361" lon="0.08477">
        <ele>58</ele>
        <time>2013-02-17T13:42:56.999Z</time>
      </trkpt>
      <trkpt lat="47.39364" lon="0.08478">
        <ele>58</ele>
        <time>2013-02-17T13:42:59.999Z</time>
      </trkpt>
      <trkpt lat="47.39366" lon="0.08478">
        <ele>58</ele>
        <time>2013-02-17T13:43:00.999Z</time>
      </trkpt>
      <trkpt lat="47.3937" lon="0.08479">
        <ele>58</ele>
        <time>2013-02-17T13:43:04.999Z</time>
      </trkpt>
      <trkpt lat="47.39371" lon="0.08479">
        <ele>58</ele>
        <time>2013-02-17T13:43:05.999Z</time>
      </trkpt>
      <trkpt lat="47.39375" lon="0.08481">
        <ele>58</ele>
        <time>2013-02-17T13:43:08.999Z</time>
      </trkpt>
      <trkpt lat="47.39376" lon="0.08481">
        <ele>58</ele>
        <time>2013-02-17T13:43:09.999Z</time>
      </trkpt>
      <trkpt lat="47.39379" lon="0.08484">
        <ele>58</ele>
        <time>2013-02-17T13:43:13.999Z</time>
      </trkpt>
      <trkpt lat="47.39381" lon="0.08484">
        <ele>58</ele>
        <time>2013-02-17T13:43:14.999Z</time>
      </trkpt>
      <trkpt lat="47.39385" lon="0.08486">
        <ele>58</ele>
        <time>2013-02-17T13:43:18.999Z</time>
      </trkpt>
      <trkpt lat="47.39386" lon="0.08486">
        <ele>58</ele>
        <time>2013-02-17T13:43:19.999Z</time>
      </trkpt>
      <trkpt lat="47.3939" lon="0.08486">
        <ele>58</ele>
        <time>2013-02-17T13:43:22.999Z</time>
      </trkpt>
      <trkpt lat="47.39391" lon="0.08487">
        <ele>58</ele>
        <time>2013-02-17T13:43:23.999Z</time>
      </trkpt>
      <trkpt lat="47.39396" lon="0.08488">
        <ele>58</ele>
        <time>2013-02-17T13:43:28.000Z</time>
      </trkpt>
      <trkpt lat="47.39396" lon="0.08489">
        <ele>58</ele>
        <time>2013-02-17T13:43:29.000Z</time>
      </trkpt>
      <trkpt lat="47.39401" lon="0.08488">
        <ele>58</ele>
        <time>2013-02-17T13:43:33.000Z</time>
      </trkpt>
      <trkpt lat="47.39401" lon="0.08489">
        <ele>58</ele>
        <time>2013-02-17T13:43:34.000Z</time>
      </trkpt>
      <trkpt lat="47.39405" lon="0.08491">
        <ele>57</ele>
        <time>2013-02-17T13:43:39.000Z</time>
      </trkpt>
      <trkpt lat="47.39407" lon="0.08492">
        <ele>57</ele>
        <time>2013-02-17T13:43:40.000Z</time>
      </trkpt>
      <trkpt lat="47.3941" lon="0.08494">
        <ele>57</ele>
        <time>2013-02-17T13:43:44.000Z</time>
      </trkpt>
      <trkpt lat="47.39412" lon="0.08495">
        <ele>57</ele>
        <time>2013-02-17T13:43:45.000Z</time>
      </trkpt>
      <trkpt lat="47.39415" lon="0.08497">
        <ele>57</ele>
        <time>2013-02-17T13:43:48.000Z</time>
      </trkpt>
      <trkpt lat="47.39417" lon="0.08498">
        <ele>57</ele>
        <time>2013-02-17T13:43:49.000Z</time>
      </trkpt>
      <trkpt lat="47.3942" lon="0.08499">
        <ele>57</ele>
        <time>2013-02-17T13:43:51.000Z</time>
      </trkpt>
      <trkpt lat="47.39422" lon="0.085">
        <ele>57</ele>
        <time>2013-02-17T13:43:52.000Z</time>
      </trkpt>
      <trkpt lat="47.39426" lon="0.08501">
        <ele>57</ele>
        <time>2013-02-17T13:43:56.000Z</time>
      </trkpt>
      <trkpt lat="47.39427" lon="0.08502">
        <ele>57</ele>
        <time>2013-02-17T13:43:57.000Z</time>
      </trkpt>
      <trkpt lat="47.3943" lon="0.08505">
        <ele>57</ele>
        <time>2013-02-17T13:44:01.000Z</time>
      </trkpt>
      <trkpt lat="47.39431" lon="0.08505">
        <ele>57</ele>
        <time>2013-02-17T13:44:02.000Z</time>
      </trkpt>
      <trkpt lat="47.39434" lon="0.08508">
        <ele>57</ele>
        <time>2013-02-17T13:44:06.000Z</time>
      </trkpt>
      <trkpt lat="47.39435" lon="0.08509">
        <ele>57</ele>
        <time>2013-02-17T13:44:07.000Z</time>
      </trkpt>
      <trkpt lat="47.39438" lon="0.08512">
        <ele>57</ele>
        <time>2013-02-17T13:44:10.000Z</time>
      </trkpt>
      <trkpt lat="47.39439" lon="0.08513">
        <ele>57</ele>
        <time>2013-02-17T13:44:11.000Z</time>
      </trkpt>
      <trkpt lat="47.39442" lon="0.08516">
        <ele>57</ele>
        <time>2013-02-17T13:44:14.000Z</time>
      </trkpt>
      <trkpt lat="47.39443" lon="0.08517">
        <ele>57</ele>
        <time>2013-02-17T13:44:15.000Z</time>
      </trkpt>
      <trkpt lat="47.39446" lon="0.08519">
        <ele>57</ele>
        <time>2013-02-17T13:44:19.000Z</time>
      </trkpt>
      <trkpt lat="47.39447" lon="0.0852">
        <ele>57</ele>
        <time>2013-02-17T13:44:20.000Z</time>
      </trkpt>
      <trkpt lat="47.3945" lon="0.08524">
        <ele>57</ele>
        <time>2013-02-17T13:44:29.000Z</time>
      </trkpt>
      <trkpt lat="47.39451" lon="0.08525">
        <ele>57</ele>
        <time>2013-02-17T13:44:30.000Z</time>
      </trkpt>
      <trkpt lat="47.39454" lon="0.08528">
        <ele>57</ele>
        <time>2013-02-17T13:44:33.000Z</time>
      </trkpt>
      <trkpt lat="47.39455" lon="0.08529">
        <ele>57</ele>
        <time>2013-02-17T13:44:34.000Z</time>
      </trkpt>
      <trkpt lat="47.39458" lon="0.08532">
        <ele>57</ele>
        <time>2013-02-17T13:44:36.000Z</time>
      </trkpt>
      <trkpt lat="47.39459" lon="0.08534">
        <ele>57</ele>
        <time>2013-02-17T13:44:37.000Z</time>
      </trkpt>
      <trkpt lat="47.39461" lon="0.08537">
        <ele>57</ele>
        <time>2013-02-17T13:44:40.000Z</time>
      </trkpt>
      <trkpt lat="47.39462" lon="0.08539">
        <ele>57</ele>
        <time>2013-02-17T13:44:41.000Z</time>
      </trkpt>
      <trkpt lat="47.39465" lon="0.08543">
        <ele>56</ele>
        <time>2013-02-17T13:44:46.000Z</time>
      </trkpt>
      <trkpt lat="47.39466" lon="0.08544">
        <ele>56</ele>
        <time>2013-02-17T13:44:47.000Z</time>
      </trkpt>
      <trkpt lat="47.39468" lon="0.08549">
        <ele>56</ele>
        <time>2013-02-17T13:44:51.000Z</time>
      </trkpt>
      <trkpt lat="47.39468" lon="0.08551">
        <ele>56</ele>
        <time>2013-02-17T13:44:52.000Z</time>
      </trkpt>
      <trkpt lat="47.39471" lon="0.08556">
        <ele>56</ele>
        <time>2013-02-17T13:44:56.000Z</time>
      </trkpt>
      <trkpt lat="47.39472" lon="0.08557">
        <ele>56</ele>
        <time>2013-02-17T13:44:57.000Z</time>
      </trkpt>
      <trkpt lat="47.39473" lon="0.08561">
        <ele>56</ele>
        <time>2013-02-17T13:45:01.000Z</time>
      </trkpt>
      <trkpt lat="47.39474" lon="0.08563">
        <ele>56</ele>
        <time>2013-02-17T13:45:02.000Z</time>
      </trkpt>
      <trkpt lat="47.39477" lon="0.08568">
        <ele>56</ele>
        <time>2013-02-17T13:45:05.000Z</time>
      </trkpt>
      <trkpt lat="47.39477" lon="0.08568">
        <ele>56</ele>
        <time>2013-02-17T13:45:06.000Z</time>
      </trkpt>
      <trkpt lat="47.39479" lon="0.08574">
        <ele>56</ele>
        <time>2013-02-17T13:45:10.000Z</time>
      </trkpt>
      <trkpt lat="47.3948" lon="0.08575">
        <ele>56</ele>
        <time>2013-02-17T13:45:11.000Z</time>
      </trkpt>
      <trkpt lat="47.39482" lon="0.0858">
        <ele>56</ele>
        <time>2013-02-17T13:45:14.000Z</time>
      </trkpt>
      <trkpt lat="47.39482" lon="0.08582">
        <ele>56</ele>
        <time>2013-02-17T13:45:15.000Z</time>
      </trkpt>
      <trkpt lat="47.39484" lon="0.08587">
        <ele>56</ele>
        <time>2013-02-17T13:45:18.000Z</time>
      </trkpt>
      <trkpt lat="47.39485" lon="0.08589">
        <ele>56</ele>
        <time>2013-02-17T13:45:19.000Z</time>
      </trkpt>
      <trkpt lat="47.39487" lon="0.08591">
        <ele>56</ele>
        <time>2013-02-17T13:45:22.000Z</time>
      </trkpt>
      <trkpt lat="47.39489" lon="0.08592">
        <ele>56</ele>
        <time>2013-02-17T13:45:23.000Z</time>
      </trkpt>
      <trkpt lat="47.3949" lon="0.08598">
        <ele>56</ele>
        <time>2013-02-17T13:45:26.000Z</time>
      </trkpt>
      <trkpt lat="47.3949" lon="0.086">
        <ele>56</ele>
        <time>2013-02-17T13:45:27.000Z</time>
      </trkpt>
      <trkpt lat="47.39492" lon="0.08605">
        <ele>56</ele>
        <time>2013-02-17T13:45:29.000Z</time>
      </trkpt>
      <trkpt lat="47.39492" lon="0.08607">
        <ele>56</ele>
        <time>2013-02-17T13:45:30.000Z</time>
      </trkpt>
      <trkpt lat="47.39494" lon="0.08612">
        <ele>56</ele>
        <time>2013-02-17T13:45:35.000Z</time>
      </trkpt>
      <trkpt lat="47.39495" lon="0.08614">
        <ele>56</ele>
        <time>2013-02-17T13:45:36.000Z</time>
      </trkpt>
      <trkpt lat="47.39496" lon="0.08618">
        <ele>56</ele>
        <time>2013-02-17T13:45:39.000Z</time>
      </trkpt>
      <trkpt lat="47.39497" lon="0.08619">
        <ele>56</ele>
        <time>2013-02-17T13:45:40.000Z</time>
      </trkpt>
      <trkpt lat="47.39499" lon="0.08624">
        <ele>56</ele>
        <time>2013-02-17T13:45:43.000Z</time>
      </trkpt>
      <trkpt lat="47.395" lon="0.08626">
        <ele>56</ele>
        <time>2013-02-17T13:45:44.000Z</time>
      </trkpt>
      <trkpt lat="47.39502" lon="0.08629">
        <ele>55</ele>
        <time>2013-02-17T13:45:47.000Z</time>
      </trkpt>
      <trkpt lat="47.39503" lon="0.08631">
        <ele>55</ele>
        <time>2013-02-17T13:45:48.000Z</time>
      </trkpt>
      <trkpt lat="47.39505" lon="0.08637">
        <ele>55</ele>
        <time>2013-02-17T13:45:52.000Z</time>
      </trkpt>
      <trkpt lat="47.39506" lon="0.08638">
        <ele>55</ele>
        <time>2013-02-17T13:45:53.000Z</time>
      </trkpt>
      <trkpt lat="47.39508" lon="0.08643">
        <ele>55</ele>
        <time>2013-02-17T13:45:57.000Z</time>
      </trkpt>
      <trkpt lat="47.39509" lon="0.08644">
        <ele>55</ele>
        <time>2013-02-17T13:45:58.000Z</time>
      </trkpt>
      <trkpt lat="47.39511" lon="0.08649">
        <ele>55</ele>
        <time>2013-02-17T13:46:02.000Z</time>
      </trkpt>
      <trkpt lat="47.39511" lon="0.0865">
        <ele>55</ele>
        <time>2013-02-17T13:46:03.000Z</time>
      </trkpt>
      <trkpt lat="47.39514" lon="0.08655">
        <ele>55</ele>
        <time>2013-02-17T13:46:07.000Z</time>
      </trkpt>
      <trkpt lat="47.39515" lon="0.08656">
        <ele>55</ele>
        <time>2013-02-17T13:46:08.000Z</time>
      </trkpt>
      <trkpt lat="47.39518" lon="0.0866">
        <ele>55</ele>
        <time>2013-02-17T13:46:12.000Z</time>
      </trkpt>
      <trkpt lat="47.39519" lon="0.08661">
        <ele>55</ele>
        <time>2013-02-17T13:46:13.000Z</time>
      </trkpt>
      <trkpt lat="47.39522" lon="0.08664">
        <ele>55</ele>
        <time>2013-02-17T13:46:17.000Z</time>
      </trkpt>
      <trkpt lat="47.39523" lon="0.08665">
        <ele>55</ele>
        <time>2013-02-17T13:46:18.000Z</time>
      </trkpt>
      <trkpt lat="47.39525" lon="0.08668">
        <ele>55</ele>
        <time>2013-02-17T13:46:21.000Z</time>
      </trkpt>
      <trkpt lat="47.39526" lon="0.08669">
        <ele>55</ele>
        <time>2013-02-17T13:46:22.000Z</time>
      </trkpt>
      <trkpt lat="47.3953" lon="0.08671">
        <ele>55</ele>
        <time>2013-02-17T13:46:25.000Z</time>
      </trkpt>
      <trkpt lat="47.39531" lon="0.08672">
        <ele>55</ele>
        <time>2013-02-17T13:46:26.000Z</time>
      </trkpt>
      <trkpt lat="47.39534" lon="0.08674">
        <ele>55</ele>
        <time>2013-02-17T13:46:29.000Z</time>
      </trkpt>
      <trkpt lat="47.39535" lon="0.08675">
        <ele>55</ele>
        <time>2013-02-17T13:46:30.000Z</time>
      </trkpt>
      <trkpt lat="47.39538" lon="0.08677">
        <ele>55</ele>
        <time>2013-02-17T13:46:33.000Z</time>
      </trkpt>
      <trkpt lat="47.39539" lon="0.08677">
        <ele>56</ele>
        <time>2013-02-17T13:46:34.000Z</time>
      </trkpt>
      <trkpt lat="47.39543" lon="0.08679">
        <ele>56</ele>
        <time>2013-02-17T13:46:37.000Z</time>
      </trkpt>
      <trkpt lat="47.39544" lon="0.0868">
        <ele>56</ele>
        <time>2013-02-17T13:46:38.000Z</time>
      </trkpt>
      <trkpt lat="47.39547" lon="0.08682">
        <ele>56</ele>
        <time>2013-02-17T13:46:42.000Z</time>
      </trkpt>
      <trkpt lat="47.39549" lon="0.08682">
        <ele>56</ele>
        <time>2013-02-17T13:46:43.000Z</time>
      </trkpt>
      <trkpt lat="47.39552" lon="0.08683">
        <ele>56</ele>
        <time>2013-02-17T13:46:47.000Z</time>
      </trkpt>
      <trkpt lat="47.39553" lon="0.08684">
        <ele>56</ele>
        <time>2013-02-17T13:46:48.000Z</time>
      </trkpt>
      <trkpt lat="47.39556" lon="0.08684">
        <ele>56</ele>
        <time>2013-02-17T13:46:50.000Z</time>
      </trkpt>
      <trkpt lat="47.39558" lon="0.08683">
        <ele>56</ele>
        <time>2013-02-17T13:46:51.000Z</time>
      </trkpt>
      <trkpt lat="47.39562" lon="0.08684">
        <ele>56</ele>
        <time>2013-02-17T13:46:55.000Z</time>
      </trkpt>
      <trkpt lat="47.39563" lon="0.08685">
        <ele>56</ele>
        <time>2013-02-17T13:46:56.000Z</time>
      </trkpt>
      <trkpt lat="47.39567" lon="0.08685">
        <ele>55</ele>
        <time>2013-02-17T13:46:59.000Z</time>
      </trkpt>
      <trkpt lat="47.39569" lon="0.08684">
        <ele>55</ele>
        <time>2013-02-17T13:47:00.000Z</time>
      </trkpt>
      <trkpt lat="47.39572" lon="0.08683">
        <ele>55</ele>
        <time>2013-02-17T13:47:03.000Z</time>
      </trkpt>
      <trkpt lat="47.39573" lon="0.08683">
        <ele>55</ele>
        <time>2013-02-17T13:47:04.000Z</time>
      </trkpt>
      <trkpt lat="47.39577" lon="0.08683">
        <ele>55</ele>
        <time>2013-02-17T13:47:07.000Z</time>
      </trkpt>
      <trkpt lat="47.39579" lon="0.08684">
        <ele>55</ele>
        <time>2013-02-17T13:47:08.000Z</time>
      </trkpt>
      <trkpt lat="47.39583" lon="0.08683">
        <ele>55</ele>
        <time>2013-02-17T13:47:12.000Z</time>
      </trkpt>
      <trkpt lat="47.39584" lon="0.08684">
        <ele>56</ele>
        <time>2013-02-17T13:47:13.000Z</time>
      </trkpt>
      <trkpt lat="47.39588" lon="0.08684">
        <ele>56</ele>
        <time>2013-02-17T13:47:16.000Z</time>
      </trkpt>
      <trkpt lat="47.39589" lon="0.08684">
        <ele>56</ele>
        <time>2013-02-17T13:47:17.000Z</time>
      </trkpt>
      <trkpt lat="47.39593" lon="0.08683">
        <ele>56</ele>
        <time>2013-02-17T13:47:20.000Z</time>
      </trkpt>
      <trkpt lat="47.39595" lon="0.08682">
        <ele>56</ele>
        <time>2013-02-17T13:47:21.000Z</time>
      </trkpt>
      <trkpt lat="47.39598" lon="0.08681">
        <ele>56</ele>
        <time>2013-02-17T13:47:24.000Z</time>
      </trkpt>
      <trkpt lat="47.39599" lon="0.08681">
        <ele>56</ele>
        <time>2013-02-17T13:47:25.000Z</time>
      </trkpt>
      <trkpt lat="47.39602" lon="0.08682">
        <ele>56</ele>
        <time>2013-02-17T13:47:29.000Z</time>
      </trkpt>
      <trkpt lat="47.39603" lon="0.08683">
        <ele>56</ele>
        <time>2013-02-17T13:47:30.000Z</time>
      </trkpt>
      <trkpt lat="47.39607" lon="0.08683">
        <ele>56</ele>
        <time>2013-02-17T13:47:33.000Z</time>
      </trkpt>
      <trkpt lat="47.39608" lon="0.08683">
        <ele>56</ele>
        <time>2013-02-17T13:47:34.000Z</time>
      </trkpt>
      <trkpt lat="47.39611" lon="0.08683">
        <ele>56</ele>
        <time>2013-02-17T13:47:37.000Z</time>
      </trkpt>
      <trkpt lat="47.39613" lon="0.08683">
        <ele>56</ele>
        <time>2013-02-17T13:47:38.000Z</time>
      </trkpt>
      <trkpt lat="47.39617" lon="0.08682">
        <ele>56</ele>
        <time>2013-02-17T13:47:43.000Z</time>
      </trkpt>
      <trkpt lat="47.39617" lon="0.08682">
        <ele>56</ele>
        <time>2013-02-17T13:47:44.000Z</time>
      </trkpt>
      <trkpt lat="47.39621" lon="0.08682">
        <ele>56</ele>
        <time>2013-02-17T13:47:48.000Z</time>
      </trkpt>
      <trkpt lat="47.39622" lon="0.08682">
        <ele>56</ele>
        <time>2013-02-17T13:47:49.000Z</time>
      </trkpt>
      <trkpt lat="47.39626" lon="0.08681">
        <ele>56</ele>
        <time>2013-02-17T13:47:52.000Z</time>
      </trkpt>
      <trkpt lat="47.39628" lon="0.08681">
        <ele>56</ele>
        <time>2013-02-17T13:47:53.000Z</time>
      </trkpt>
      <trkpt lat="47.39632" lon="0.08681">
        <ele>56</ele>
        <time>2013-02-17T13:47:57.000Z</time>
      </trkpt>
      <trkpt lat="47.39633" lon="0.08681">
        <ele>56</ele>
        <time>2013-02-17T13:47:58.000Z</time>
      </trkpt>
      <trkpt lat="47.39637" lon="0.08681">
        <ele>56</ele>
        <time>2013-02-17T13:48:02.000Z</time>
      </trkpt>
      <trkpt lat="47.39638" lon="0.08681">
        <ele>56</ele>
        <time>2013-02-17T13:48:03.000Z</time>
      </trkpt>
      <trkpt lat="47.39642" lon="0.0868">
        <ele>56</ele>
        <time>2013-02-17T13:48:06.000Z</time>
      </trkpt>
      <trkpt lat="47.39643" lon="0.0868">
        <ele>56</ele>
        <time>2013-02-17T13:48:07.000Z</time>
      </trkpt>
      <trkpt lat="47.39646" lon="0.08679">
        <ele>56</ele>
        <time>2013-02-17T13:48:10.000Z</time>
      </trkpt>
      <trkpt lat="47.39648" lon="0.08678">
        <ele>56</ele>
        <time>2013-02-17T13:48:11.000Z</time>
      </trkpt>
      <trkpt lat="47.39651" lon="0.08678">
        <ele>56</ele>
        <time>2013-02-17T13:48:14.000Z</time>
      </trkpt>
      <trkpt lat="47.39653" lon="0.08678">
        <ele>56</ele>
        <time>2013-02-17T13:48:15.000Z</time>
      </trkpt>
      <trkpt lat="47.39657" lon="0.08677">
        <ele>56</ele>
        <time>2013-02-17T13:48:19.000Z</time>
      </trkpt>
      <trkpt lat="47.39658" lon="0.08678">
        <ele>56</ele>
        <time>2013-02-17T13:48:20.000Z</time>
      </trkpt>
      <trkpt lat="47.39662" lon="0.08677">
        <ele>56</ele>
        <time>2013-02-17T13:48:23.000Z</time>
      </trkpt>
      <trkpt lat="47.39663" lon="0.08676">
        <ele>56</ele>
        <time>2013-02-17T13:48:24.000Z</time>
      </trkpt>
      <trkpt lat="47.39666" lon="0.08677">
        <ele>56</ele>
        <time>2013-02-17T13:48:30.000Z</time>
      </trkpt>
      <trkpt lat="47.39668" lon="0.08677">
        <ele>56</ele>
        <time>2013-02-17T13:48:31.000Z</time>
      </trkpt>
      <trkpt lat="47.39671" lon="0.08677">
        <ele>56</ele>
        <time>2013-02-17T13:48:34.000Z</time>
      </trkpt>
      <trkpt lat="47.39672" lon="0.08677">
        <ele>56</ele>
        <time>2013-02-17T13:48:35.000Z</time>
      </trkpt>
      <trkpt lat="47.39676" lon="0.08678">
        <ele>56</ele>
        <time>2013-02-17T13:48:38.000Z</time>
      </trkpt>
      <trkpt lat="47.39678" lon="0.08678">
        <ele>56</ele>
        <time>2013-02-17T13:48:39.000Z</time>
      </trkpt>
      <trkpt lat="47.39682" lon="0.08679">
        <ele>56</ele>
        <time>2013-02-17T13:48:42.000Z</time>
      </trkpt>
      <trkpt lat="47.39683" lon="0.08679">
        <ele>56</ele>
        <time>2013-02-17T13:48:43.000Z</time>
      </trkpt>
      <trkpt lat="47.39686" lon="0.08678">
        <ele>56</ele>
        <time>2013-02-17T13:48:47.000Z</time>
      </trkpt>
      <trkpt lat="47.39688" lon="0.08678">
        <ele>56</ele>
        <time>2013-02-17T13:48:48.000Z</time>
      </trkpt>
      <trkpt lat="47.39692" lon="0.08678">
        <ele>56</ele>
        <time>2013-02-17T13:48:51.000Z</time>
      </trkpt>
      <trkpt lat="47.39693" lon="0.08678">
        <ele>56</ele>
        <time>2013-02-17T13:48:52.000Z</time>
      </trkpt>
      <trkpt lat="47.39697" lon="0.08677">
        <ele>57</ele>
        <time>2013-02-17T13:48:55.000Z</time>
      </trkpt>
      <trkpt lat="47.39699" lon="0.08678">
        <ele>57</ele>
        <time>2013-02-17T13:48:56.000Z</time>
      </trkpt>
      <trkpt lat="47.39702" lon="0.0868">
        <ele>57</ele>
        <time>2013-02-17T13:49:00.000Z</time>
      </trkpt>
      <trkpt lat="47.39703" lon="0.0868">
        <ele>57</ele>
        <time>2013-02-17T13:49:01.000Z</time>
      </trkpt>
      <trkpt lat="47.39708" lon="0.08681">
        <ele>57</ele>
        <time>2013-02-17T13:49:05.000Z</time>
      </trkpt>
      <trkpt lat="47.39709" lon="0.08681">
        <ele>57</ele>
        <time>2013-02-17T13:49:06.000Z</time>
      </trkpt>
      <trkpt lat="47.39712" lon="0.08683">
        <ele>57</ele>
        <time>2013-02-17T13:49:09.000Z</time>
      </trkpt>
      <trkpt lat="47.39713" lon="0.08684">
        <ele>57</ele>
        <time>2013-02-17T13:49:10.000Z</time>
      </trkpt>
      <trkpt lat="47.39716" lon="0.08687">
        <ele>57</ele>
        <time>2013-02-17T13:49:15.000Z</time>
      </trkpt>
      <trkpt lat="47.39718" lon="0.08688">
        <ele>57</ele>
        <time>2013-02-17T13:49:16.000Z</time>
      </trkpt>
      <trkpt lat="47.39721" lon="0.08689">
        <ele>57</ele>
        <time>2013-02-17T13:49:19.000Z</time>
      </trkpt>
      <trkpt lat="47.39723" lon="0.0869">
        <ele>57</ele>
        <time>2013-02-17T13:49:20.000Z</time>
      </trkpt>
      <trkpt lat="47.39725" lon="0.08693">
        <ele>57</ele>
        <time>2013-02-17T13:49:22.000Z</time>
      </trkpt>
      <trkpt lat="47.39726" lon="0.08694">
        <ele>57</ele>
        <time>2013-02-17T13:49:23.000Z</time>
      </trkpt>
      <trkpt lat="47.3973" lon="0.08697">
        <ele>57</ele>
        <time>2013-02-17T13:49:26.000Z</time>
      </trkpt>
      <trkpt lat="47.39731" lon="0.08698">
        <ele>57</ele>
        <time>2013-02-17T13:49:27.000Z</time>
      </trkpt>
      <trkpt lat="47.39734" lon="0.087">
        <ele>57</ele>
        <time>2013-02-17T13:49:30.000Z</time>
      </trkpt>
      <trkpt lat="47.39735" lon="0.08701">
        <ele>57</ele>
        <time>2013-02-17T13:49:31.000Z</time>
      </trkpt>
      <trkpt lat="47.39739" lon="0.08705">
        <ele>57</ele>
        <time>2013-02-17T13:49:35.000Z</time>
      </trkpt>
      <trkpt lat="47.39739" lon="0.08705">
        <ele>57</ele>
        <time>2013-02-17T13:49:36.000Z</time>
      </trkpt>
      <trkpt lat="47.39742" lon="0.0871">
        <ele>57</ele>
        <time>2013-02-17T13:49:40.000Z</time>
      </trkpt>
      <trkpt lat="47.39743" lon="0.08711">
        <ele>57</ele>
        <time>2013-02-17T13:49:41.000Z</time>
      </trkpt>
      <trkpt lat="47.39746" lon="0.08716">
        <ele>57</ele>
        <time>2013-02-17T13:49:44.000Z</time>
      </trkpt>
      <trkpt lat="47.39747" lon="0.08718">
        <ele>57</ele>
        <time>2013-02-17T13:49:45.000Z</time>
      </trkpt>
      <trkpt lat="47.39748" lon="0.08724">
        <ele>56</ele>
        <time>2013-02-17T13:49:49.000Z</time>
      </trkpt>
      <trkpt lat="47.39748" lon="0.08725">
        <ele>56</ele>
        <time>2013-02-17T13:49:50.000Z</time>
      </trkpt>
      <trkpt lat="47.3975" lon="0.08729">
        <ele>57</ele>
        <time>2013-02-17T13:49:55.000Z</time>
      </trkpt>
      <trkpt lat="47.39751" lon="0.08731">
        <ele>57</ele>
        <time>2013-02-17T13:49:56.000Z</time>
      </trkpt>
      <trkpt lat="47.39753" lon="0.08735">
        <ele>57</ele>
        <time>2013-02-17T13:49:59.000Z</time>
      </trkpt>
      <trkpt lat="47.39754" lon="0.08736">
        <ele>56</ele>
        <time>2013-02-17T13:50:00.000Z</time>
      </trkpt>
      <trkpt lat="47.39756" lon="0.08741">
        <ele>56</ele>
        <time>2013-02-17T13:50:05.000Z</time>
      </trkpt>
      <trkpt lat="47.39756" lon="0.08742">
        <ele>56</ele>
        <time>2013-02-17T13:50:06.000Z</time>
      </trkpt>
      <trkpt lat="47.39759" lon="0.08747">
        <ele>56</ele>
        <time>2013-02-17T13:50:11.000Z</time>
      </trkpt>
      <trkpt lat="47.3976" lon="0.08748">
        <ele>56</ele>
        <time>2013-02-17T13:50:12.000Z</time>
      </trkpt>
      <trkpt lat="47.39762" lon="0.08752">
        <ele>56</ele>
        <time>2013-02-17T13:50:15.000Z</time>
      </trkpt>
      <trkpt lat="47.39764" lon="0.08753">
        <ele>56</ele>
        <time>2013-02-17T13:50:16.000Z</time>
      </trkpt>
      <trkpt lat="47.39766" lon="0.08757">
        <ele>56</ele>
        <time>2013-02-17T13:50:18.000Z</time>
      </trkpt>
      <trkpt lat="47.39767" lon="0.08759">
        <ele>56</ele>
        <time>2013-02-17T13:50:19.000Z</time>
      </trkpt>
      <trkpt lat="47.3977" lon="0.08763">
        <ele>56</ele>
        <time>2013-02-17T13:50:22.000Z</time>
      </trkpt>
      <trkpt lat="47.39771" lon="0.08764">
        <ele>56</ele>
        <time>2013-02-17T13:50:23.000Z</time>
      </trkpt>
      <trkpt lat="47.39774" lon="0.08767">
        <ele>56</ele>
        <time>2013-02-17T13:50:26.000Z</time>
      </trkpt>
      <trkpt lat="47.39775" lon="0.08769">
        <ele>56</ele>
        <time>2013-02-17T13:50:27.000Z</time>
      </trkpt>
      <trkpt lat="47.39778" lon="0.08773">
        <ele>56</ele>
        <time>2013-02-17T13:50:31.000Z</time>
      </trkpt>
      <trkpt lat="47.39778" lon="0.08774">
        <ele>56</ele>
        <time>2013-02-17T13:50:32.000Z</time>
      </trkpt>
      <trkpt lat="47.39781" lon="0.08778">
        <ele>56</ele>
        <time>2013-02-17T13:50:35.000Z</time>
      </trkpt>
      <trkpt lat="47.39782" lon="0.08779">
        <ele>56</ele>
        <time>2013-02-17T13:50:36.000Z</time>
      </trkpt>
      <trkpt lat="47.39785" lon="0.08784">
        <ele>56</ele>
        <time>2013-02-17T13:50:40.000Z</time>
      </trkpt>
      <trkpt lat="47.39786" lon="0.08785">
        <ele>56</ele>
        <time>2013-02-17T13:50:41.000Z</time>
      </trkpt>
      <trkpt lat="47.39788" lon="0.08789">
        <ele>56</ele>
        <time>2013-02-17T13:50:43.000Z</time>
      </trkpt>
      <trkpt lat="47.39788" lon="0.08791">
        <ele>56</ele>
        <time>2013-02-17T13:50:44.000Z</time>
      </trkpt>
      <trkpt lat="47.39791" lon="0.08793">
        <ele>56</ele>
        <time>2013-02-17T13:50:47.000Z</time>
      </trkpt>
      <trkpt lat="47.39792" lon="0.08795">
        <ele>56</ele>
        <time>2013-02-17T13:50:48.000Z</time>
      </trkpt>
      <trkpt lat="47.39795" lon="0.08799">
        <ele>56</ele>
        <time>2013-02-17T13:50:52.000Z</time>
      </trkpt>
      <trkpt lat="47.39796" lon="0.088">
        <ele>56</ele>
        <time>2013-02-17T13:50:53.000Z</time>
      </trkpt>
      <trkpt lat="47.398" lon="0.08802">
        <ele>56</ele>
        <time>2013-02-17T13:50:56.000Z</time>
      </trkpt>
      <trkpt lat="47.39801" lon="0.08803">
        <ele>56</ele>
        <time>2013-02-17T13:50:57.000Z</time>
      </trkpt>
      <trkpt lat="47.39805" lon="0.08806">
        <ele>56</ele>
        <time>2013-02-17T13:51:01.000Z</time>
      </trkpt>
      <trkpt lat="47.39805" lon="0.08807">
        <ele>56</ele>
        <time>2013-02-17T13:51:02.000Z</time>
      </trkpt>
      <trkpt lat="47.39808" lon="0.0881">
        <ele>56</ele>
        <time>2013-02-17T13:51:05.000Z</time>
      </trkpt>
      <trkpt lat="47.39809" lon="0.08811">
        <ele>56</ele>
        <time>2013-02-17T13:51:06.000Z</time>
      </trkpt>
      <trkpt lat="47.39811" lon="0.08814">
        <ele>56</ele>
        <time>2013-02-17T13:51:10.000Z</time>
      </trkpt>
      <trkpt lat="47.39813" lon="0.08816">
        <ele>56</ele>
        <time>2013-02-17T13:51:11.000Z</time>
      </trkpt>
      <trkpt lat="47.39816" lon="0.08819">
        <ele>57</ele>
        <time>2013-02-17T13:51:14.000Z</time>
      </trkpt>
      <trkpt lat="47.39818" lon="0.0882">
        <ele>57</ele>
        <time>2013-02-17T13:51:15.000Z</time>
      </trkpt>
      <trkpt lat="47.39821" lon="0.08823">
        <ele>57</ele>
        <time>2013-02-17T13:51:18.000Z</time>
      </trkpt>
      <trkpt lat="47.39822" lon="0.08824">
        <ele>57</ele>
        <time>2013-02-17T13:51:19.000Z</time>
      </trkpt>
      <trkpt lat="47.39826" lon="0.08826">
        <ele>57</ele>
        <time>2013-02-17T13:51:23.000Z</time>
      </trkpt>
      <trkpt lat="47.39826" lon="0.08827">
        <ele>57</ele>
        <time>2013-02-17T13:51:24.000Z</time>
      </trkpt>
      <trkpt lat="47.3983" lon="0.0883">
        <ele>57</ele>
        <time>2013-02-17T13:51:28.000Z</time>
      </trkpt>
      <trkpt lat="47.3983" lon="0.0883">
        <ele>57</ele>
        <time>2013-02-17T13:51:29.000Z</time>
      </trkpt>
      <trkpt lat="47.39833" lon="0.08834">
        <ele>57</ele>
        <time>2013-02-17T13:51:34.000Z</time>
      </trkpt>
      <trkpt lat="47.39834" lon="0.08834">
        <ele>57</ele>
        <time>2013-02-17T13:51:35.000Z</time>
      </trkpt>
      <trkpt lat="47.39838" lon="0.08836">
        <ele>57</ele>
        <time>2013-02-17T13:51:42.000Z</time>
      </trkpt>
      <trkpt lat="47.39839" lon="0.08837">
        <ele>57</ele>
        <time>2013-02-17T13:51:43.000Z</time>
      </trkpt>
      <trkpt lat="47.39842" lon="0.0884">
        <ele>57</ele>
        <time>2013-02-17T13:51:46.000Z</time>
      </trkpt>
      <trkpt lat="47.39843" lon="0.08842">
        <ele>57</ele>
        <time>2013-02-17T13:51:47.000Z</time>
      </trkpt>
      <trkpt lat="47.39846" lon="0.08844">
        <ele>57</ele>
        <time>2013-02-17T13:51:50.000Z</time>
      </trkpt>
      <trkpt lat="47.39847" lon="0.08846">
        <ele>57</ele>
        <time>2013-02-17T13:51:51.000Z</time>
      </trkpt>
      <trkpt lat="47.3985" lon="0.08848">
        <ele>57</ele>
        <time>2013-02-17T13:51:53.000Z</time>
      </trkpt>
      <trkpt lat="47.39852" lon="0.08848">
        <ele>57</ele>
        <time>2013-02-17T13:51:54.000Z</time>
      </trkpt>
      <trkpt lat="47.39855" lon="0.0885">
        <ele>57</ele>
        <time>2013-02-17T13:51:58.000Z</time>
      </trkpt>
      <trkpt lat="47.39856" lon="0.08851">
        <ele>58</ele>
        <time>2013-02-17T13:51:59.000Z</time>
      </trkpt>
      <trkpt lat="47.39858" lon="0.08853">
        <ele>58</ele>
        <time>2013-02-17T13:52:01.000Z</time>
      </trkpt>
      <trkpt lat="47.3986" lon="0.08855">
        <ele>58</ele>
        <time>2013-02-17T13:52:02.000Z</time>
      </trkpt>
      <trkpt lat="47.39863" lon="0.08859">
        <ele>58</ele>
        <time>2013-02-17T13:52:05.000Z</time>
      </trkpt>
      <trkpt lat="47.39864" lon="0.0886">
        <ele>58</ele>
        <time>2013-02-17T13:52:06.000Z</time>
      </trkpt>
      <trkpt lat="47.39867" lon="0.08864">
        <ele>58</ele>
        <time>2013-02-17T13:52:11.000Z</time>
      </trkpt>
      <trkpt lat="47.39867" lon="0.08865">
        <ele>58</ele>
        <time>2013-02-17T13:52:12.000Z</time>
      </trkpt>
      <trkpt lat="47.3987" lon="0.08869">
        <ele>58</ele>
        <time>2013-02-17T13:52:17.000Z</time>
      </trkpt>
      <trkpt lat="47.39871" lon="0.0887">
        <ele>58</ele>
        <time>2013-02-17T13:52:18.000Z</time>
      </trkpt>
      <trkpt lat="47.39874" lon="0.08873">
        <ele>58</ele>
        <time>2013-02-17T13:52:22.000Z</time>
      </trkpt>
      <trkpt lat="47.39875" lon="0.08874">
        <ele>58</ele>
        <time>2013-02-17T13:52:23.000Z</time>
      </trkpt>
      <trkpt lat="47.39878" lon="0.08876">
        <ele>58</ele>
        <time>2013-02-17T13:52:25.000Z</time>
      </trkpt>
      <trkpt lat="47.39879" lon="0.08877">
        <ele>58</ele>
        <time>2013-02-17T13:52:26.000Z</time>
      </trkpt>
      <trkpt lat="47.39882" lon="0.08879">
        <ele>58</ele>
        <time>2013-02-17T13:52:30.000Z</time>
      </trkpt>
      <trkpt lat="47.39883" lon="0.0888">
        <ele>58</ele>
        <time>2013-02-17T13:52:31.000Z</time>
      </trkpt>
      <trkpt lat="47.39886" lon="0.08883">
        <ele>58</ele>
        <time>2013-02-17T13:52:35.000Z</time>
      </trkpt>
      <trkpt lat="47.39887" lon="0.08883">
        <ele>58</ele>
        <time>2013-02-17T13:52:36.000Z</time>
      </trkpt>
      <trkpt lat="47.3989" lon="0.08885">
        <ele>58</ele>
        <time>2013-02-17T13:52:40.000Z</time>
      </trkpt>
      <trkpt lat="47.39891" lon="0.08886">
        <ele>58</ele>
        <time>2013-02-17T13:52:41.000Z</time>
      </trkpt>
      <trkpt lat="47.39894" lon="0.08887">
        <ele>58</ele>
        <time>2013-02-17T13:52:43.000Z</time>
      </trkpt>
      <trkpt lat="47.39895" lon="0.08888">
        <ele>58</ele>
        <time>2013-02-17T13:52:44.000Z</time>
      </trkpt>
      <trkpt lat="47.39899" lon="0.08891">
        <ele>58</ele>
        <time>2013-02-17T13:52:47.000Z</time>
      </trkpt>
      <trkpt lat="47.399" lon="0.08892">
        <ele>58</ele>
        <time>2013-02-17T13:52:48.000Z</time>
      </trkpt>
      <trkpt lat="47.39903" lon="0.08895">
        <ele>58</ele>
        <time>2013-02-17T13:52:51.000Z</time>
      </trkpt>
      <trkpt lat="47.39904" lon="0.08897">
        <ele>58</ele>
        <time>2013-02-17T13:52:52.000Z</time>
      </trkpt>
      <trkpt lat="47.39907" lon="0.089">
        <ele>58</ele>
        <time>2013-02-17T13:52:55.000Z</time>
      </trkpt>
      <trkpt lat="47.39908" lon="0.08901">
        <ele>58</ele>
        <time>2013-02-17T13:52:56.000Z</time>
      </trkpt>
      <trkpt lat="47.39912" lon="0.08903">
        <ele>58</ele>
        <time>2013-02-17T13:53:00.000Z</time>
      </trkpt>
      <trkpt lat="47.39912" lon="0.08904">
        <ele>58</ele>
        <time>2013-02-17T13:53:01.000Z</time>
      </trkpt>
      <trkpt lat="47.39916" lon="0.08908">
        <ele>59</ele>
        <time>2013-02-17T13:53:07.000Z</time>
      </trkpt>
      <trkpt lat="47.39916" lon="0.08909">
        <ele>59</ele>
        <time>2013-02-17T13:53:08.000Z</time>
      </trkpt>
      <trkpt lat="47.3992" lon="0.08912">
        <ele>59</ele>
        <time>2013-02-17T13:53:27.000Z</time>
      </trkpt>
      <trkpt lat="47.39921" lon="0.08911">
        <ele>59</ele>
        <time>2013-02-17T13:53:28.000Z</time>
      </trkpt>
      <trkpt lat="47.39924" lon="0.08908">
        <ele>59</ele>
        <time>2013-02-17T13:53:45.000Z</time>
      </trkpt>
      <trkpt lat="47.39925" lon="0.08907">
        <ele>59</ele>
        <time>2013-02-17T13:53:46.000Z</time>
      </trkpt>
      <trkpt lat="47.39927" lon="0.08903">
        <ele>59</ele>
        <time>2013-02-17T13:53:48.000Z</time>
      </trkpt>
      <trkpt lat="47.39928" lon="0.08902">
        <ele>59</ele>
        <time>2013-02-17T13:53:49.000Z</time>
      </trkpt>
      <trkpt lat="47.39931" lon="0.08897">
        <ele>59</ele>
        <time>2013-02-17T13:53:52.000Z</time>
      </trkpt>
      <trkpt lat="47.39932" lon="0.08895">
        <ele>59</ele>
        <time>2013-02-17T13:53:53.000Z</time>
      </trkpt>
      <trkpt lat="47.39935" lon="0.0889">
        <ele>59</ele>
        <time>2013-02-17T13:53:57.000Z</time>
      </trkpt>
      <trkpt lat="47.39935" lon="0.08889">
        <ele>59</ele>
        <time>2013-02-17T13:53:58.000Z</time>
      </trkpt>
      <trkpt lat="47.39937" lon="0.08883">
        <ele>59</ele>
        <time>2013-02-17T13:54:02.000Z</time>
      </trkpt>
      <trkpt lat="47.39937" lon="0.08882">
        <ele>59</ele>
        <time>2013-02-17T13:54:03.000Z</time>
      </trkpt>
      <trkpt lat="47.39939" lon="0.08878">
        <ele>59</ele>
        <time>2013-02-17T13:54:07.000Z</time>
      </trkpt>
      <trkpt lat="47.3994" lon="0.08876">
        <ele>59</ele>
        <time>2013-02-17T13:54:08.000Z</time>
      </trkpt>
      <trkpt lat="47.39943" lon="0.08872">
        <ele>59</ele>
        <time>2013-02-17T13:54:12.000Z</time>
      </trkpt>
      <trkpt lat="47.39943" lon="0.08871">
        <ele>59</ele>
        <time>2013-02-17T13:54:13.000Z</time>
      </trkpt>
      <trkpt lat="47.39946" lon="0.08867">
        <ele>59</ele>
        <time>2013-02-17T13:54:18.000Z</time>
      </trkpt>
      <trkpt lat="47.39947" lon="0.08866">
        <ele>59</ele>
        <time>2013-02-17T13:54:19.000Z</time>
      </trkpt>
      <trkpt lat="47.39949" lon="0.08862">
        <ele>59</ele>
        <time>2013-02-17T13:54:22.000Z</time>
      </trkpt>
      <trkpt lat="47.3995" lon="0.08861">
        <ele>59</ele>
        <time>2013-02-17T13:54:23.000Z</time>
      </trkpt>
      <trkpt lat="47.39953" lon="0.08856">
        <ele>59</ele>
        <time>2013-02-17T13:54:27.000Z</time>
      </trkpt>
      <trkpt lat="47.39954" lon="0.08855">
        <ele>59</ele>
        <time>2013-02-17T13:54:28.000Z</time>
      </trkpt>
      <trkpt lat="47.39956" lon="0.08851">
        <ele>59</ele>
        <time>2013-02-17T13:54:30.000Z</time>
      </trkpt>
      <trkpt lat="47.39957" lon="0.0885">
        <ele>59</ele>
        <time>2013-02-17T13:54:31.000Z</time>
      </trkpt>
      <trkpt lat="47.3996" lon="0.08846">
        <ele>59</ele>
        <time>2013-02-17T13:54:36.000Z</time>
      </trkpt>
      <trkpt lat="47.39961" lon="0.08845">
        <ele>59</ele>
        <time>2013-02-17T13:54:37.000Z</time>
      </trkpt>
      <trkpt lat="47.39963" lon="0.08841">
        <ele>59</ele>
        <time>2013-02-17T13:54:41.000Z</time>
      </trkpt>
      <trkpt lat="47.39963" lon="0.08839">
        <ele>59</ele>
        <time>2013-02-17T13:54:42.000Z</time>
      </trkpt>
      <trkpt lat="47.39965" lon="0.08835">
        <ele>59</ele>
        <time>2013-02-17T13:54:46.000Z</time>
      </trkpt>
      <trkpt lat="47.39966" lon="0.08833">
        <ele>58</ele>
        <time>2013-02-17T13:54:47.000Z</time>
      </trkpt>
      <trkpt lat="47.39968" lon="0.08828">
        <ele>58</ele>
        <time>2013-02-17T13:54:51.000Z</time>
      </trkpt>
      <trkpt lat="47.39969" lon="0.08826">
        <ele>58</ele>
        <time>2013-02-17T13:54:52.000Z</time>
      </trkpt>
      <trkpt lat="47.3997" lon="0.08821">
        <ele>58</ele>
        <time>2013-02-17T13:54:55.000Z</time>
      </trkpt>
      <trkpt lat="47.39971" lon="0.0882">
        <ele>58</ele>
        <time>2013-02-17T13:54:56.000Z</time>
      </trkpt>
      <trkpt lat="47.39972" lon="0.08816">
        <ele>58</ele>
        <time>2013-02-17T13:54:59.000Z</time>
      </trkpt>
      <trkpt lat="47.39973" lon="0.08814">
        <ele>58</ele>
        <time>2013-02-17T13:55:00.000Z</time>
      </trkpt>
      <trkpt lat="47.39974" lon="0.08807">
        <ele>58</ele>
        <time>2013-02-17T13:55:05.000Z</time>
      </trkpt>
      <trkpt lat="47.39974" lon="0.08807">
        <ele>58</ele>
        <time>2013-02-17T13:55:06.000Z</time>
      </trkpt>
      <trkpt lat="47.39976" lon="0.08802">
        <ele>58</ele>
        <time>2013-02-17T13:55:09.000Z</time>
      </trkpt>
      <trkpt lat="47.39977" lon="0.088">
        <ele>58</ele>
        <time>2013-02-17T13:55:10.000Z</time>
      </trkpt>
      <trkpt lat="47.39979" lon="0.08797">
        <ele>58</ele>
        <time>2013-02-17T13:55:13.000Z</time>
      </trkpt>
      <trkpt lat="47.3998" lon="0.08795">
        <ele>58</ele>
        <time>2013-02-17T13:55:14.000Z</time>
      </trkpt>
      <trkpt lat="47.39982" lon="0.0879">
        <ele>58</ele>
        <time>2013-02-17T13:55:18.000Z</time>
      </trkpt>
      <trkpt lat="47.39983" lon="0.08789">
        <ele>58</ele>
        <time>2013-02-17T13:55:19.000Z</time>
      </trkpt>
      <trkpt lat="47.39985" lon="0.08784">
        <ele>58</ele>
        <time>2013-02-17T13:55:24.000Z</time>
      </trkpt>
      <trkpt lat="47.39985" lon="0.08783">
        <ele>58</ele>
        <time>2013-02-17T13:55:25.000Z</time>
      </trkpt>
      <trkpt lat="47.39987" lon="0.08778">
        <ele>58</ele>
        <time>2013-02-17T13:55:29.000Z</time>
      </trkpt>
      <trkpt lat="47.39987" lon="0.08777">
        <ele>58</ele>
        <time>2013-02-17T13:55:30.000Z</time>
      </trkpt>
      <trkpt lat="47.3999" lon="0.08773">
        <ele>58</ele>
        <time>2013-02-17T13:55:35.000Z</time>
      </trkpt>
      <trkpt lat="47.39992" lon="0.08771">
        <ele>58</ele>
        <time>2013-02-17T13:55:36.000Z</time>
      </trkpt>
      <trkpt lat="47.39995" lon="0.08768">
        <ele>58</ele>
        <time>2013-02-17T13:55:39.000Z</time>
      </trkpt>
      <trkpt lat="47.39995" lon="0.08766">
        <ele>58</ele>
        <time>2013-02-17T13:55:40.000Z</time>
      </trkpt>
      <trkpt lat="47.39998" lon="0.08762">
        <ele>58</ele>
        <time>2013-02-17T13:55:44.000Z</time>
      </trkpt>
      <trkpt lat="47.39999" lon="0.0876">
        <ele>58</ele>
        <time>2013-02-17T13:55:45.000Z</time>
      </trkpt>
      <trkpt lat="47.40001" lon="0.08756">
        <ele>58</ele>
        <time>2013-02-17T13:55:49.000Z</time>
      </trkpt>
      <trkpt lat="47.40002" lon="0.08754">
        <ele>58</ele>
        <time>2013-02-17T13:55:50.000Z</time>
      </trkpt>
      <trkpt lat="47.40004" lon="0.08751">
        <ele>58</ele>
        <time>2013-02-17T13:55:53.000Z</time>
      </trkpt>
      <trkpt lat="47.40004" lon="0.08749">
        <ele>58</ele>
        <time>2013-02-17T13:55:54.000Z</time>
      </trkpt>
      <trkpt lat="47.40006" lon="0.08745">
        <ele>58</ele>
        <time>2013-02-17T13:55:57.000Z</time>
      </trkpt>
      <trkpt lat="47.40007" lon="0.08743">
        <ele>58</ele>
        <time>2013-02-17T13:55:58.000Z</time>
      </trkpt>
      <trkpt lat="47.4001" lon="0.08738">
        <ele>58</ele>
        <time>2013-02-17T13:56:02.000Z</time>
      </trkpt>
      <trkpt lat="47.40011" lon="0.08736">
        <ele>58</ele>
        <time>2013-02-17T13:56:03.000Z</time>
      </trkpt>
      <trkpt lat="47.40013" lon="0.08732">
        <ele>58</ele>
        <time>2013-02-17T13:56:06.000Z</time>
      </trkpt>
      <trkpt lat="47.40014" lon="0.0873">
        <ele>58</ele>
        <time>2013-02-17T13:56:07.000Z</time>
      </trkpt>
      <trkpt lat="47.40018" lon="0.08726">
        <ele>58</ele>
        <time>2013-02-17T13:56:10.000Z</time>
      </trkpt>
      <trkpt lat="47.40018" lon="0.08725">
        <ele>58</ele>
        <time>2013-02-17T13:56:11.000Z</time>
      </trkpt>
      <trkpt lat="47.40022" lon="0.08723">
        <ele>58</ele>
        <time>2013-02-17T13:56:14.000Z</time>
      </trkpt>
      <trkpt lat="47.40023" lon="0.08722">
        <ele>58</ele>
        <time>2013-02-17T13:56:15.000Z</time>
      </trkpt>
      <trkpt lat="47.40026" lon="0.08719">
        <ele>58</ele>
        <time>2013-02-17T13:56:21.000Z</time>
      </trkpt>
      <trkpt lat="47.40028" lon="0.08718">
        <ele>58</ele>
        <time>2013-02-17T13:56:22.000Z</time>
      </trkpt>
      <trkpt lat="47.40031" lon="0.08718">
        <ele>58</ele>
        <time>2013-02-17T13:56:26.000Z</time>
      </trkpt>
      <trkpt lat="47.40032" lon="0.08718">
        <ele>58</ele>
        <time>2013-02-17T13:56:27.000Z</time>
      </trkpt>
      <trkpt lat="47.40037" lon="0.08718">
        <ele>58</ele>
        <time>2013-02-17T13:56:34.000Z</time>
      </trkpt>
      <trkpt lat="47.40038" lon="0.08718">
        <ele>58</ele>
        <time>2013-02-17T13:56:35.000Z</time>
      </trkpt>
      <trkpt lat="47.40042" lon="0.0872">
        <ele>58</ele>
        <time>2013-02-17T13:56:40.000Z</time>
      </trkpt>
      <trkpt lat="47.40043" lon="0.0872">
        <ele>58</ele>
        <time>2013-02-17T13:56:41.000Z</time>
      </trkpt>
      <trkpt lat="47.40046" lon="0.08721">
        <ele>58</ele>
        <time>2013-02-17T13:56:44.000Z</time>
      </trkpt>
      <trkpt lat="47.40047" lon="0.08722">
        <ele>58</ele>
        <time>2013-02-17T13:56:45.000Z</time>
      </trkpt>
      <trkpt lat="47.4005" lon="0.08724">
        <ele>58</ele>
        <time>2013-02-17T13:56:47.000Z</time>
      </trkpt>
      <trkpt lat="47.40052" lon="0.08725">
        <ele>58</ele>
        <time>2013-02-17T13:56:48.000Z</time>
      </trkpt>
      <trkpt lat="47.40055" lon="0.08726">
        <ele>58</ele>
        <time>2013-02-17T13:56:50.000Z</time>
      </trkpt>
      <trkpt lat="47.40057" lon="0.08726">
        <ele>58</ele>
        <time>2013-02-17T13:56:51.000Z</time>
      </trkpt>
      <trkpt lat="47.40061" lon="0.08727">
        <ele>58</ele>
        <time>2013-02-17T13:56:54.000Z</time>
      </trkpt>
      <trkpt lat="47.40062" lon="0.08727">
        <ele>58</ele>
        <time>2013-02-17T13:56:55.000Z</time>
      </trkpt>
      <trkpt lat="47.40065" lon="0.08728">
        <ele>58</ele>
        <time>2013-02-17T13:56:58.000Z</time>
      </trkpt>
      <trkpt lat="47.40067" lon="0.08728">
        <ele>58</ele>
        <time>2013-02-17T13:56:59.000Z</time>
      </trkpt>
      <trkpt lat="47.40071" lon="0.08728">
        <ele>58</ele>
        <time>2013-02-17T13:57:04.000Z</time>
      </trkpt>
      <trkpt lat="47.40072" lon="0.08728">
        <ele>58</ele>
        <time>2013-02-17T13:57:05.000Z</time>
      </trkpt>
      <trkpt lat="47.40076" lon="0.0873">
        <ele>58</ele>
        <time>2013-02-17T13:57:09.000Z</time>
      </trkpt>
      <trkpt lat="47.40077" lon="0.0873">
        <ele>58</ele>
        <time>2013-02-17T13:57:10.000Z</time>
      </trkpt>
      <trkpt lat="47.40081" lon="0.08731">
        <ele>58</ele>
        <time>2013-02-17T13:57:13.000Z</time>
      </trkpt>
      <trkpt lat="47.40082" lon="0.08731">
        <ele>58</ele>
        <time>2013-02-17T13:57:14.000Z</time>
      </trkpt>
      <trkpt lat="47.40085" lon="0.08731">
        <ele>57</ele>
        <time>2013-02-17T13:57:16.000Z</time>
      </trkpt>
      <trkpt lat="47.40087" lon="0.0873">
        <ele>57</ele>
        <time>2013-02-17T13:57:17.000Z</time>
      </trkpt>
      <trkpt lat="47.4009" lon="0.08731">
        <ele>57</ele>
        <time>2013-02-17T13:57:21.000Z</time>
      </trkpt>
      <trkpt lat="47.40091" lon="0.08731">
        <ele>57</ele>
        <time>2013-02-17T13:57:22.000Z</time>
      </trkpt>
      <trkpt lat="47.40095" lon="0.08732">
        <ele>57</ele>
        <time>2013-02-17T13:57:25.000Z</time>
      </trkpt>
      <trkpt lat="47.40096" lon="0.08733">
        <ele>57</ele>
        <time>2013-02-17T13:57:26.000Z</time>
      </trkpt>
      <trkpt lat="47.401" lon="0.08735">
        <ele>57</ele>
        <time>2013-02-17T13:57:30.000Z</time>
      </trkpt>
      <trkpt lat="47.40101" lon="0.08735">
        <ele>57</ele>
        <time>2013-02-17T13:57:31.000Z</time>
      </trkpt>
      <trkpt lat="47.40105" lon="0.08737">
        <ele>57</ele>
        <time>2013-02-17T13:57:36.000Z</time>
      </trkpt>
      <trkpt lat="47.40106" lon="0.08737">
        <ele>57</ele>
        <time>2013-02-17T13:57:37.000Z</time>
      </trkpt>
      <trkpt lat="47.40111" lon="0.08736">
        <ele>57</ele>
        <time>2013-02-17T13:57:40.000Z</time>
      </trkpt>
      <trkpt lat="47.40113" lon="0.08735">
        <ele>57</ele>
        <time>2013-02-17T13:57:41.000Z</time>
      </trkpt>
      <trkpt lat="47.40116" lon="0.08735">
        <ele>57</ele>
        <time>2013-02-17T13:57:44.000Z</time>
      </trkpt>
      <trkpt lat="47.40117" lon="0.08736">
        <ele>57</ele>
        <time>2013-02-17T13:57:45.000Z</time>
      </trkpt>
      <trkpt lat="47.40121" lon="0.08734">
        <ele>57</ele>
        <time>2013-02-17T13:57:50.000Z</time>
      </trkpt>
      <trkpt lat="47.40122" lon="0.08734">
        <ele>57</ele>
        <time>2013-02-17T13:57:51.000Z</time>
      </trkpt>
      <trkpt lat="47.40126" lon="0.08734">
        <ele>56</ele>
        <time>2013-02-17T13:57:55.000Z</time>
      </trkpt>
      <trkpt lat="47.40128" lon="0.08734">
        <ele>56</ele>
        <time>2013-02-17T13:57:56.000Z</time>
      </trkpt>
      <trkpt lat="47.40131" lon="0.08734">
        <ele>56</ele>
        <time>2013-02-17T13:58:00.000Z</time>
      </trkpt>
      <trkpt lat="47.40132" lon="0.08733">
        <ele>56</ele>
        <time>2013-02-17T13:58:01.000Z</time>
      </trkpt>
      <trkpt lat="47.40135" lon="0.08733">
        <ele>56</ele>
        <time>2013-02-17T13:58:05.000Z</time>
      </trkpt>
      <trkpt lat="47.40137" lon="0.08733">
        <ele>56</ele>
        <time>2013-02-17T13:58:06.000Z</time>
      </trkpt>
      <trkpt lat="47.40141" lon="0.08733">
        <ele>56</ele>
        <time>2013-02-17T13:58:10.000Z</time>
      </trkpt>
      <trkpt lat="47.40142" lon="0.08732">
        <ele>56</ele>
        <time>2013-02-17T13:58:11.000Z</time>
      </trkpt>
      <trkpt lat="47.40146" lon="0.08731">
        <ele>56</ele>
        <time>2013-02-17T13:58:15.000Z</time>
      </trkpt>
      <trkpt lat="47.40147" lon="0.08731">
        <ele>56</ele>
        <time>2013-02-17T13:58:16.000Z</time>
      </trkpt>
      <trkpt lat="47.4015" lon="0.08729">
        <ele>56</ele>
        <time>2013-02-17T13:58:18.000Z</time>
      </trkpt>
      <trkpt lat="47.40151" lon="0.08729">
        <ele>56</ele>
        <time>2013-02-17T13:58:19.000Z</time>
      </trkpt>
      <trkpt lat="47.40154" lon="0.08727">
        <ele>56</ele>
        <time>2013-02-17T13:58:23.000Z</time>
      </trkpt>
      <trkpt lat="47.40156" lon="0.08726">
        <ele>56</ele>
        <time>2013-02-17T13:58:24.000Z</time>
      </trkpt>
      <trkpt lat="47.4016" lon="0.08726">
        <ele>56</ele>
        <time>2013-02-17T13:58:28.000Z</time>
      </trkpt>
      <trkpt lat="47.40162" lon="0.08725">
        <ele>56</ele>
        <time>2013-02-17T13:58:29.000Z</time>
      </trkpt>
      <trkpt lat="47.40165" lon="0.08724">
        <ele>56</ele>
        <time>2013-02-17T13:58:32.000Z</time>
      </trkpt>
      <trkpt lat="47.40167" lon="0.08723">
        <ele>56</ele>
        <time>2013-02-17T13:58:33.000Z</time>
      </trkpt>
      <trkpt lat="47.40171" lon="0.08722">
        <ele>55</ele>
        <time>2013-02-17T13:58:37.000Z</time>
      </trkpt>
      <trkpt lat="47.40172" lon="0.08721">
        <ele>55</ele>
        <time>2013-02-17T13:58:38.000Z</time>
      </trkpt>
      <trkpt lat="47.40175" lon="0.0872">
        <ele>55</ele>
        <time>2013-02-17T13:58:41.000Z</time>
      </trkpt>
      <trkpt lat="47.40176" lon="0.0872">
        <ele>55</ele>
        <time>2013-02-17T13:58:42.000Z</time>
      </trkpt>
      <trkpt lat="47.4018" lon="0.08719">
        <ele>55</ele>
        <time>2013-02-17T13:58:46.000Z</time>
      </trkpt>
      <trkpt lat="47.40181" lon="0.08719">
        <ele>55</ele>
        <time>2013-02-17T13:58:47.000Z</time>
      </trkpt>
      <trkpt lat="47.40185" lon="0.08718">
        <ele>55</ele>
        <time>2013-02-17T13:58:51.000Z</time>
      </trkpt>
      <trkpt lat="47.40186" lon="0.08718">
        <ele>55</ele>
        <time>2013-02-17T13:58:52.000Z</time>
      </trkpt>
      <trkpt lat="47.4019" lon="0.08717">
        <ele>55</ele>
        <time>2013-02-17T13:58:56.000Z</time>
      </trkpt>
      <trkpt lat="47.40192" lon="0.08716">
        <ele>55</ele>
        <time>2013-02-17T13:58:57.000Z</time>
      </trkpt>
      <trkpt lat="47.40196" lon="0.08716">
        <ele>55</ele>
        <time>2013-02-17T13:59:01.000Z</time>
      </trkpt>
      <trkpt lat="47.40197" lon="0.08716">
        <ele>55</ele>
        <time>2013-02-17T13:59:02.000Z</time>
      </trkpt>
      <trkpt lat="47.40201" lon="0.08714">
        <ele>55</ele>
        <time>2013-02-17T13:59:07.000Z</time>
      </trkpt>
      <trkpt lat="47.40202" lon="0.08714">
        <ele>55</ele>
        <time>2013-02-17T13:59:08.000Z</time>
      </trkpt>
      <trkpt lat="47.40206" lon="0.08714">
        <ele>55</ele>
        <time>2013-02-17T13:59:12.000Z</time>
      </trkpt>
      <trkpt lat="47.40207" lon="0.08714">
        <ele>55</ele>
        <time>2013-02-17T13:59:13.000Z</time>
      </trkpt>
      <trkpt lat="47.40211" lon="0.08713">
        <ele>54</ele>
        <time>2013-02-17T13:59:16.000Z</time>
      </trkpt>
      <trkpt lat="47.40212" lon="0.08713">
        <ele>54</ele>
        <time>2013-02-17T13:59:17.000Z</time>
      </trkpt>
      <trkpt lat="47.40216" lon="0.08711">
        <ele>54</ele>
        <time>2013-02-17T13:59:21.000Z</time>
      </trkpt>
      <trkpt lat="47.40217" lon="0.08711">
        <ele>54</ele>
        <time>2013-02-17T13:59:22.000Z</time>
      </trkpt>
      <trkpt lat="47.40221" lon="0.08709">
        <ele>54</ele>
        <time>2013-02-17T13:59:28.000Z</time>
      </trkpt>
      <trkpt lat="47.40221" lon="0.08709">
        <ele>54</ele>
        <time>2013-02-17T13:59:29.000Z</time>
      </trkpt>
      <trkpt lat="47.40226" lon="0.08707">
        <ele>54</ele>
        <time>2013-02-17T13:59:33.000Z</time>
      </trkpt>
      <trkpt lat="47.40227" lon="0.08707">
        <ele>54</ele>
        <time>2013-02-17T13:59:34.000Z</time>
      </trkpt>
      <trkpt lat="47.4023" lon="0.08705">
        <ele>54</ele>
        <time>2013-02-17T13:59:37.000Z</time>
      </trkpt>
      <trkpt lat="47.40231" lon="0.08704">
        <ele>54</ele>
        <time>2013-02-17T13:59:38.000Z</time>
      </trkpt>
      <trkpt lat="47.40235" lon="0.08702">
        <ele>54</ele>
        <time>2013-02-17T13:59:42.000Z</time>
      </trkpt>
      <trkpt lat="47.40236" lon="0.08701">
        <ele>54</ele>
        <time>2013-02-17T13:59:43.000Z</time>
      </trkpt>
      <trkpt lat="47.40239" lon="0.08701">
        <ele>54</ele>
        <time>2013-02-17T13:59:46.000Z</time>
      </trkpt>
      <trkpt lat="47.40241" lon="0.08701">
        <ele>54</ele>
        <time>2013-02-17T13:59:47.000Z</time>
      </trkpt>
      <trkpt lat="47.40245" lon="0.087">
        <ele>54</ele>
        <time>2013-02-17T13:59:49.000Z</time>
      </trkpt>
      <trkpt lat="47.40246" lon="0.08699">
        <ele>54</ele>
        <time>2013-02-17T13:59:50.000Z</time>
      </trkpt>
      <trkpt lat="47.40249" lon="0.08696">
        <ele>54</ele>
        <time>2013-02-17T13:59:53.000Z</time>
      </trkpt>
      <trkpt lat="47.4025" lon="0.08695">
        <ele>54</ele>
        <time>2013-02-17T13:59:54.000Z</time>
      </trkpt>
      <trkpt lat="47.40253" lon="0.08691">
        <ele>55</ele>
        <time>2013-02-17T14:00:00.000Z</time>
      </trkpt>
      <trkpt lat="47.40253" lon="0.0869">
        <ele>55</ele>
        <time>2013-02-17T14:00:01.000Z</time>
      </trkpt>
      <trkpt lat="47.40255" lon="0.08686">
        <ele>54</ele>
        <time>2013-02-17T14:00:05.000Z</time>
      </trkpt>
      <trkpt lat="47.40256" lon="0.08684">
        <ele>54</ele>
        <time>2013-02-17T14:00:06.000Z</time>
      </trkpt>
      <trkpt lat="47.40258" lon="0.08679">
        <ele>54</ele>
        <time>2013-02-17T14:00:09.000Z</time>
      </trkpt>
      <trkpt lat="47.40258" lon="0.08678">
        <ele>54</ele>
        <time>2013-02-17T14:00:10.000Z</time>
      </trkpt>
      <trkpt lat="47.4026" lon="0.08674">
        <ele>54</ele>
        <time>2013-02-17T14:00:14.000Z</time>
      </trkpt>
      <trkpt lat="47.40261" lon="0.08671">
        <ele>54</ele>
        <time>2013-02-17T14:00:15.000Z</time>
      </trkpt>
      <trkpt lat="47.40263" lon="0.08666">
        <ele>54</ele>
        <time>2013-02-17T14:00:20.000Z</time>
      </trkpt>
      <trkpt lat="47.40264" lon="0.08665">
        <ele>54</ele>
        <time>2013-02-17T14:00:21.000Z</time>
      </trkpt>
      <trkpt lat="47.40266" lon="0.0866">
        <ele>54</ele>
        <time>2013-02-17T14:00:27.000Z</time>
      </trkpt>
      <trkpt lat="47.40267" lon="0.08658">
        <ele>54</ele>
        <time>2013-02-17T14:00:28.000Z</time>
      </trkpt>
      <trkpt lat="47.40269" lon="0.08655">
        <ele>54</ele>
        <time>2013-02-17T14:00:31.000Z</time>
      </trkpt>
      <trkpt lat="47.40269" lon="0.08652">
        <ele>54</ele>
        <time>2013-02-17T14:00:32.000Z</time>
      </trkpt>
      <trkpt lat="47.40272" lon="0.08647">
        <ele>54</ele>
        <time>2013-02-17T14:00:39.000Z</time>
      </trkpt>
      <trkpt lat="47.40272" lon="0.08647">
        <ele>54</ele>
        <time>2013-02-17T14:00:40.000Z</time>
      </trkpt>
      <trkpt lat="47.40273" lon="0.08641">
        <ele>54</ele>
        <time>2013-02-17T14:00:43.000Z</time>
      </trkpt>
      <trkpt lat="47.40273" lon="0.08637">
        <ele>54</ele>
        <time>2013-02-17T14:00:44.000Z</time>
      </trkpt>
      <trkpt lat="47.40272" lon="0.08631">
        <ele>54</ele>
        <time>2013-02-17T14:00:48.000Z</time>
      </trkpt>
      <trkpt lat="47.40272" lon="0.08626">
        <ele>54</ele>
        <time>2013-02-17T14:00:49.000Z</time>
      </trkpt>
      <trkpt lat="47.4027" lon="0.08621">
        <ele>54</ele>
        <time>2013-02-17T14:00:52.000Z</time>
      </trkpt>
      <trkpt lat="47.4027" lon="0.0862">
        <ele>54</ele>
        <time>2013-02-17T14:00:53.000Z</time>
      </trkpt>
      <trkpt lat="47.40268" lon="0.08615">
        <ele>54</ele>
        <time>2013-02-17T14:00:59.000Z</time>
      </trkpt>
      <trkpt lat="47.40266" lon="0.08613">
        <ele>54</ele>
        <time>2013-02-17T14:01:00.000Z</time>
      </trkpt>
      <trkpt lat="47.40262" lon="0.08612">
        <ele>54</ele>
        <time>2013-02-17T14:01:11.000Z</time>
      </trkpt>
      <trkpt lat="47.40262" lon="0.08612">
        <ele>54</ele>
        <time>2013-02-17T14:01:12.000Z</time>
      </trkpt>
      <trkpt lat="47.40258" lon="0.08611">
        <ele>54</ele>
        <time>2013-02-17T14:04:10.000Z</time>
      </trkpt>
      <trkpt lat="47.40257" lon="0.0861">
        <ele>54</ele>
        <time>2013-02-17T14:04:11.000Z</time>
      </trkpt>
      <trkpt lat="47.40253" lon="0.08607">
        <ele>54</ele>
        <time>2013-02-17T14:04:16.000Z</time>
      </trkpt>
      <trkpt lat="47.40252" lon="0.08606">
        <ele>54</ele>
        <time>2013-02-17T14:04:17.000Z</time>
      </trkpt>
      <trkpt lat="47.40249" lon="0.08604">
        <ele>54</ele>
        <time>2013-02-17T14:04:19.000Z</time>
      </trkpt>
      <trkpt lat="47.40248" lon="0.08603">
        <ele>54</ele>
        <time>2013-02-17T14:04:20.000Z</time>
      </trkpt>
      <trkpt lat="47.40244" lon="0.08602">
        <ele>54</ele>
        <time>2013-02-17T14:04:23.000Z</time>
      </trkpt>
      <trkpt lat="47.40242" lon="0.08601">
        <ele>54</ele>
        <time>2013-02-17T14:04:24.000Z</time>
      </trkpt>
      <trkpt lat="47.40239" lon="0.08599">
        <ele>54</ele>
        <time>2013-02-17T14:04:26.000Z</time>
      </trkpt>
      <trkpt lat="47.40237" lon="0.08598">
        <ele>54</ele>
        <time>2013-02-17T14:04:27.000Z</time>
      </trkpt>
      <trkpt lat="47.40233" lon="0.08595">
        <ele>54</ele>
        <time>2013-02-17T14:04:30.000Z</time>
      </trkpt>
      <trkpt lat="47.40233" lon="0.08594">
        <ele>54</ele>
        <time>2013-02-17T14:04:31.000Z</time>
      </trkpt>
      <trkpt lat="47.40231" lon="0.08589">
        <ele>54</ele>
        <time>2013-02-17T14:04:35.000Z</time>
      </trkpt>
      <trkpt lat="47.4023" lon="0.08588">
        <ele>54</ele>
        <time>2013-02-17T14:04:36.000Z</time>
      </trkpt>
      <trkpt lat="47.40226" lon="0.08587">
        <ele>54</ele>
        <time>2013-02-17T14:04:39.000Z</time>
      </trkpt>
      <trkpt lat="47.40224" lon="0.08588">
        <ele>54</ele>
        <time>2013-02-17T14:04:40.000Z</time>
      </trkpt>
      <trkpt lat="47.4022" lon="0.08588">
        <ele>54</ele>
        <time>2013-02-17T14:04:42.000Z</time>
      </trkpt>
      <trkpt lat="47.40219" lon="0.08588">
        <ele>54</ele>
        <time>2013-02-17T14:04:43.000Z</time>
      </trkpt>
      <trkpt lat="47.40215" lon="0.08588">
        <ele>54</ele>
        <time>2013-02-17T14:04:46.000Z</time>
      </trkpt>
      <trkpt lat="47.40214" lon="0.08588">
        <ele>54</ele>
        <time>2013-02-17T14:04:47.000Z</time>
      </trkpt>
      <trkpt lat="47.40211" lon="0.08584">
        <ele>54</ele>
        <time>2013-02-17T14:04:51.000Z</time>
      </trkpt>
      <trkpt lat="47.4021" lon="0.08583">
        <ele>54</ele>
        <time>2013-02-17T14:04:52.000Z</time>
      </trkpt>
      <trkpt lat="47.40209" lon="0.08578">
        <ele>54</ele>
        <time>2013-02-17T14:04:55.000Z</time>
      </trkpt>
      <trkpt lat="47.40208" lon="0.08576">
        <ele>54</ele>
        <time>2013-02-17T14:04:56.000Z</time>
      </trkpt>
      <trkpt lat="47.40206" lon="0.08571">
        <ele>54</ele>
        <time>2013-02-17T14:04:59.000Z</time>
      </trkpt>
      <trkpt lat="47.40205" lon="0.0857">
        <ele>54</ele>
        <time>2013-02-17T14:05:00.000Z</time>
      </trkpt>
      <trkpt lat="47.40202" lon="0.08566">
        <ele>54</ele>
        <time>2013-02-17T14:05:03.000Z</time>
      </trkpt>
      <trkpt lat="47.40201" lon="0.08566">
        <ele>54</ele>
        <time>2013-02-17T14:05:04.000Z</time>
      </trkpt>
      <trkpt lat="47.40198" lon="0.08562">
        <ele>54</ele>
        <time>2013-02-17T14:05:07.000Z</time>
      </trkpt>
      <trkpt lat="47.40197" lon="0.08561">
        <ele>54</ele>
        <time>2013-02-17T14:05:08.000Z</time>
      </trkpt>
      <trkpt lat="47.40195" lon="0.08557">
        <ele>54</ele>
        <time>2013-02-17T14:05:10.000Z</time>
      </trkpt>
      <trkpt lat="47.40195" lon="0.08555">
        <ele>54</ele>
        <time>2013-02-17T14:05:11.000Z</time>
      </trkpt>
      <trkpt lat="47.40193" lon="0.08549">
        <ele>54</ele>
        <time>2013-02-17T14:05:17.000Z</time>
      </trkpt>
      <trkpt lat="47.40192" lon="0.08547">
        <ele>54</ele>
        <time>2013-02-17T14:05:18.000Z</time>
      </trkpt>
      <trkpt lat="47.40191" lon="0.08541">
        <ele>54</ele>
        <time>2013-02-17T14:05:21.000Z</time>
      </trkpt>
      <trkpt lat="47.4019" lon="0.0854">
        <ele>54</ele>
        <time>2013-02-17T14:05:22.000Z</time>
      </trkpt>
      <trkpt lat="47.40187" lon="0.08534">
        <ele>54</ele>
        <time>2013-02-17T14:05:26.000Z</time>
      </trkpt>
      <trkpt lat="47.40187" lon="0.08533">
        <ele>54</ele>
        <time>2013-02-17T14:05:27.000Z</time>
      </trkpt>
      <trkpt lat="47.40184" lon="0.08529">
        <ele>54</ele>
        <time>2013-02-17T14:05:29.000Z</time>
      </trkpt>
      <trkpt lat="47.40184" lon="0.08527">
        <ele>54</ele>
        <time>2013-02-17T14:05:30.000Z</time>
      </trkpt>
      <trkpt lat="47.40181" lon="0.08524">
        <ele>55</ele>
        <time>2013-02-17T14:05:33.000Z</time>
      </trkpt>
      <trkpt lat="47.4018" lon="0.08523">
        <ele>55</ele>
        <time>2013-02-17T14:05:34.000Z</time>
      </trkpt>
      <trkpt lat="47.40177" lon="0.08519">
        <ele>55</ele>
        <time>2013-02-17T14:05:38.000Z</time>
      </trkpt>
      <trkpt lat="47.40176" lon="0.08517">
        <ele>55</ele>
        <time>2013-02-17T14:05:39.000Z</time>
      </trkpt>
      <trkpt lat="47.40173" lon="0.08513">
        <ele>55</ele>
        <time>2013-02-17T14:05:43.000Z</time>
      </trkpt>
      <trkpt lat="47.40172" lon="0.08513">
        <ele>55</ele>
        <time>2013-02-17T14:05:44.000Z</time>
      </trkpt>
      <trkpt lat="47.40168" lon="0.08511">
        <ele>55</ele>
        <time>2013-02-17T14:05:47.000Z</time>
      </trkpt>
      <trkpt lat="47.40167" lon="0.08511">
        <ele>55</ele>
        <time>2013-02-17T14:05:48.000Z</time>
      </trkpt>
      <trkpt lat="47.40163" lon="0.0851">
        <ele>55</ele>
        <time>2013-02-17T14:05:52.000Z</time>
      </trkpt>
      <trkpt lat="47.40162" lon="0.08509">
        <ele>55</ele>
        <time>2013-02-17T14:05:53.000Z</time>
      </trkpt>
      <trkpt lat="47.40158" lon="0.08506">
        <ele>55</ele>
        <time>2013-02-17T14:05:59.000Z</time>
      </trkpt>
      <trkpt lat="47.40157" lon="0.08507">
        <ele>55</ele>
        <time>2013-02-17T14:06:00.000Z</time>
      </trkpt>
      <trkpt lat="47.40153" lon="0.08507">
        <ele>56</ele>
        <time>2013-02-17T14:06:03.000Z</time>
      </trkpt>
      <trkpt lat="47.40152" lon="0.08507">
        <ele>56</ele>
        <time>2013-02-17T14:06:04.000Z</time>
      </trkpt>
      <trkpt lat="47.40148" lon="0.08505">
        <ele>56</ele>
        <time>2013-02-17T14:06:07.000Z</time>
      </trkpt>
      <trkpt lat="47.40147" lon="0.08504">
        <ele>56</ele>
        <time>2013-02-17T14:06:08.000Z</time>
      </trkpt>
      <trkpt lat="47.40144" lon="0.085">
        <ele>56</ele>
        <time>2013-02-17T14:06:12.000Z</time>
      </trkpt>
      <trkpt lat="47.40143" lon="0.08499">
        <ele>56</ele>
        <time>2013-02-17T14:06:13.000Z</time>
      </trkpt>
      <trkpt lat="47.40142" lon="0.08493">
        <ele>56</ele>
        <time>2013-02-17T14:06:16.000Z</time>
      </trkpt>
      <trkpt lat="47.40142" lon="0.08492">
        <ele>56</ele>
        <time>2013-02-17T14:06:17.000Z</time>
      </trkpt>
      <trkpt lat="47.40138" lon="0.08488">
        <ele>56</ele>
        <time>2013-02-17T14:06:21.000Z</time>
      </trkpt>
      <trkpt lat="47.40138" lon="0.08487">
        <ele>56</ele>
        <time>2013-02-17T14:06:22.000Z</time>
      </trkpt>
      <trkpt lat="47.40135" lon="0.08482">
        <ele>56</ele>
        <time>2013-02-17T14:06:26.000Z</time>
      </trkpt>
      <trkpt lat="47.40134" lon="0.08482">
        <ele>56</ele>
        <time>2013-02-17T14:06:27.000Z</time>
      </trkpt>
      <trkpt lat="47.40131" lon="0.08477">
        <ele>56</ele>
        <time>2013-02-17T14:06:31.000Z</time>
      </trkpt>
      <trkpt lat="47.4013" lon="0.08475">
        <ele>56</ele>
        <time>2013-02-17T14:06:32.000Z</time>
      </trkpt>
      <trkpt lat="47.40127" lon="0.08471">
        <ele>56</ele>
        <time>2013-02-17T14:06:36.000Z</time>
      </trkpt>
      <trkpt lat="47.40126" lon="0.0847">
        <ele>56</ele>
        <time>2013-02-17T14:06:37.000Z</time>
      </trkpt>
      <trkpt lat="47.40123" lon="0.08466">
        <ele>56</ele>
        <time>2013-02-17T14:06:41.000Z</time>
      </trkpt>
      <trkpt lat="47.40122" lon="0.08465">
        <ele>56</ele>
        <time>2013-02-17T14:06:42.000Z</time>
      </trkpt>
      <trkpt lat="47.4012" lon="0.08461">
        <ele>57</ele>
        <time>2013-02-17T14:06:46.000Z</time>
      </trkpt>
      <trkpt lat="47.40119" lon="0.08459">
        <ele>57</ele>
        <time>2013-02-17T14:06:47.000Z</time>
      </trkpt>
      <trkpt lat="47.40118" lon="0.08453">
        <ele>57</ele>
        <time>2013-02-17T14:06:51.000Z</time>
      </trkpt>
      <trkpt lat="47.40117" lon="0.08451">
        <ele>57</ele>
        <time>2013-02-17T14:06:52.000Z</time>
      </trkpt>
      <trkpt lat="47.40114" lon="0.08447">
        <ele>57</ele>
        <time>2013-02-17T14:06:55.000Z</time>
      </trkpt>
      <trkpt lat="47.40112" lon="0.08447">
        <ele>57</ele>
        <time>2013-02-17T14:06:56.000Z</time>
      </trkpt>
      <trkpt lat="47.40109" lon="0.08443">
        <ele>57</ele>
        <time>2013-02-17T14:06:59.000Z</time>
      </trkpt>
      <trkpt lat="47.40108" lon="0.08442">
        <ele>57</ele>
        <time>2013-02-17T14:07:00.000Z</time>
      </trkpt>
      <trkpt lat="47.40105" lon="0.08438">
        <ele>57</ele>
        <time>2013-02-17T14:07:05.000Z</time>
      </trkpt>
      <trkpt lat="47.40104" lon="0.08437">
        <ele>57</ele>
        <time>2013-02-17T14:07:06.000Z</time>
      </trkpt>
      <trkpt lat="47.40101" lon="0.08431">
        <ele>57</ele>
        <time>2013-02-17T14:07:12.000Z</time>
      </trkpt>
      <trkpt lat="47.40101" lon="0.0843">
        <ele>57</ele>
        <time>2013-02-17T14:07:13.000Z</time>
      </trkpt>
      <trkpt lat="47.40097" lon="0.08427">
        <ele>57</ele>
        <time>2013-02-17T14:07:16.000Z</time>
      </trkpt>
      <trkpt lat="47.40096" lon="0.08426">
        <ele>57</ele>
        <time>2013-02-17T14:07:17.000Z</time>
      </trkpt>
      <trkpt lat="47.40093" lon="0.08424">
        <ele>57</ele>
        <time>2013-02-17T14:07:20.000Z</time>
      </trkpt>
      <trkpt lat="47.40092" lon="0.08423">
        <ele>57</ele>
        <time>2013-02-17T14:07:21.000Z</time>
      </trkpt>
      <trkpt lat="47.40089" lon="0.08419">
        <ele>58</ele>
        <time>2013-02-17T14:07:24.000Z</time>
      </trkpt>
      <trkpt lat="47.40088" lon="0.08419">
        <ele>58</ele>
        <time>2013-02-17T14:07:25.000Z</time>
      </trkpt>
      <trkpt lat="47.40086" lon="0.08415">
        <ele>58</ele>
        <time>2013-02-17T14:07:28.000Z</time>
      </trkpt>
      <trkpt lat="47.40085" lon="0.08413">
        <ele>58</ele>
        <time>2013-02-17T14:07:29.000Z</time>
      </trkpt>
      <trkpt lat="47.40083" lon="0.08408">
        <ele>58</ele>
        <time>2013-02-17T14:07:32.000Z</time>
      </trkpt>
      <trkpt lat="47.40082" lon="0.08407">
        <ele>58</ele>
        <time>2013-02-17T14:07:33.000Z</time>
      </trkpt>
      <trkpt lat="47.40079" lon="0.08404">
        <ele>58</ele>
        <time>2013-02-17T14:07:35.000Z</time>
      </trkpt>
      <trkpt lat="47.40077" lon="0.08403">
        <ele>58</ele>
        <time>2013-02-17T14:07:36.000Z</time>
      </trkpt>
      <trkpt lat="47.40074" lon="0.084">
        <ele>57</ele>
        <time>2013-02-17T14:07:38.000Z</time>
      </trkpt>
      <trkpt lat="47.40073" lon="0.084">
        <ele>57</ele>
        <time>2013-02-17T14:07:39.000Z</time>
      </trkpt>
      <trkpt lat="47.40069" lon="0.08399">
        <ele>57</ele>
        <time>2013-02-17T14:07:42.000Z</time>
      </trkpt>
      <trkpt lat="47.40068" lon="0.08398">
        <ele>57</ele>
        <time>2013-02-17T14:07:43.000Z</time>
      </trkpt>
      <trkpt lat="47.40065" lon="0.08394">
        <ele>57</ele>
        <time>2013-02-17T14:07:46.000Z</time>
      </trkpt>
      <trkpt lat="47.40065" lon="0.08392">
        <ele>57</ele>
        <time>2013-02-17T14:07:47.000Z</time>
      </trkpt>
      <trkpt lat="47.40063" lon="0.08388">
        <ele>57</ele>
        <time>2013-02-17T14:07:50.000Z</time>
      </trkpt>
      <trkpt lat="47.40062" lon="0.08388">
        <ele>57</ele>
        <time>2013-02-17T14:07:51.000Z</time>
      </trkpt>
      <trkpt lat="47.40061" lon="0.08383">
        <ele>57</ele>
        <time>2013-02-17T14:07:53.000Z</time>
      </trkpt>
      <trkpt lat="47.4006" lon="0.08381">
        <ele>57</ele>
        <time>2013-02-17T14:07:54.000Z</time>
      </trkpt>
      <trkpt lat="47.40058" lon="0.08376">
        <ele>57</ele>
        <time>2013-02-17T14:07:58.000Z</time>
      </trkpt>
      <trkpt lat="47.40058" lon="0.08374">
        <ele>57</ele>
        <time>2013-02-17T14:07:59.000Z</time>
      </trkpt>
      <trkpt lat="47.40056" lon="0.08368">
        <ele>57</ele>
        <time>2013-02-17T14:08:03.000Z</time>
      </trkpt>
      <trkpt lat="47.40055" lon="0.08367">
        <ele>57</ele>
        <time>2013-02-17T14:08:04.000Z</time>
      </trkpt>
      <trkpt lat="47.40054" lon="0.08362">
        <ele>57</ele>
        <time>2013-02-17T14:08:07.000Z</time>
      </trkpt>
      <trkpt lat="47.40054" lon="0.08361">
        <ele>57</ele>
        <time>2013-02-17T14:08:08.000Z</time>
      </trkpt>
      <trkpt lat="47.4005" lon="0.08357">
        <ele>57</ele>
        <time>2013-02-17T14:08:16.000Z</time>
      </trkpt>
      <trkpt lat="47.4005" lon="0.08355">
        <ele>57</ele>
        <time>2013-02-17T14:08:17.000Z</time>
      </trkpt>
      <trkpt lat="47.40047" lon="0.08352">
        <ele>57</ele>
        <time>2013-02-17T14:08:24.000Z</time>
      </trkpt>
      <trkpt lat="47.40047" lon="0.0835">
        <ele>57</ele>
        <time>2013-02-17T14:08:25.000Z</time>
      </trkpt>
      <trkpt lat="47.40044" lon="0.08345">
        <ele>57</ele>
        <time>2013-02-17T14:08:29.000Z</time>
      </trkpt>
      <trkpt lat="47.40044" lon="0.08344">
        <ele>57</ele>
        <time>2013-02-17T14:08:30.000Z</time>
      </trkpt>
      <trkpt lat="47.40041" lon="0.0834">
        <ele>57</ele>
        <time>2013-02-17T14:08:35.000Z</time>
      </trkpt>
      <trkpt lat="47.4004" lon="0.08339">
        <ele>57</ele>
        <time>2013-02-17T14:08:36.000Z</time>
      </trkpt>
      <trkpt lat="47.40036" lon="0.08337">
        <ele>57</ele>
        <time>2013-02-17T14:08:39.000Z</time>
      </trkpt>
      <trkpt lat="47.40035" lon="0.08336">
        <ele>57</ele>
        <time>2013-02-17T14:08:40.000Z</time>
      </trkpt>
      <trkpt lat="47.40032" lon="0.08333">
        <ele>57</ele>
        <time>2013-02-17T14:08:44.000Z</time>
      </trkpt>
      <trkpt lat="47.4003" lon="0.08334">
        <ele>57</ele>
        <time>2013-02-17T14:08:45.000Z</time>
      </trkpt>
      <trkpt lat="47.40025" lon="0.08334">
        <ele>57</ele>
        <time>2013-02-17T14:08:48.000Z</time>
      </trkpt>
      <trkpt lat="47.40024" lon="0.08333">
        <ele>57</ele>
        <time>2013-02-17T14:08:49.000Z</time>
      </trkpt>
      <trkpt lat="47.4002" lon="0.08335">
        <ele>57</ele>
        <time>2013-02-17T14:08:51.000Z</time>
      </trkpt>
      <trkpt lat="47.40019" lon="0.08334">
        <ele>57</ele>
        <time>2013-02-17T14:08:52.000Z</time>
      </trkpt>
      <trkpt lat="47.40018" lon="0.08329">
        <ele>57</ele>
        <time>2013-02-17T14:09:06.000Z</time>
      </trkpt>
      <trkpt lat="47.40018" lon="0.08328">
        <ele>57</ele>
        <time>2013-02-17T14:09:07.000Z</time>
      </trkpt>
      <trkpt lat="47.40017" lon="0.08323">
        <ele>57</ele>
        <time>2013-02-17T14:09:11.000Z</time>
      </trkpt>
      <trkpt lat="47.40017" lon="0.08321">
        <ele>57</ele>
        <time>2013-02-17T14:09:12.000Z</time>
      </trkpt>
      <trkpt lat="47.40015" lon="0.08317">
        <ele>57</ele>
        <time>2013-02-17T14:09:15.000Z</time>
      </trkpt>
      <trkpt lat="47.40014" lon="0.08316">
        <ele>57</ele>
        <time>2013-02-17T14:09:16.000Z</time>
      </trkpt>
      <trkpt lat="47.40012" lon="0.08311">
        <ele>57</ele>
        <time>2013-02-17T14:09:19.000Z</time>
      </trkpt>
      <trkpt lat="47.40011" lon="0.08309">
        <ele>57</ele>
        <time>2013-02-17T14:09:20.000Z</time>
      </trkpt>
      <trkpt lat="47.40009" lon="0.08304">
        <ele>57</ele>
        <time>2013-02-17T14:09:23.000Z</time>
      </trkpt>
      <trkpt lat="47.40008" lon="0.08302">
        <ele>57</ele>
        <time>2013-02-17T14:09:24.000Z</time>
      </trkpt>
      <trkpt lat="47.40006" lon="0.08297">
        <ele>57</ele>
        <time>2013-02-17T14:09:26.000Z</time>
      </trkpt>
      <trkpt lat="47.40006" lon="0.08295">
        <ele>57</ele>
        <time>2013-02-17T14:09:27.000Z</time>
      </trkpt>
      <trkpt lat="47.40005" lon="0.08289">
        <ele>57</ele>
        <time>2013-02-17T14:09:31.000Z</time>
      </trkpt>
      <trkpt lat="47.40006" lon="0.08287">
        <ele>57</ele>
        <time>2013-02-17T14:09:32.000Z</time>
      </trkpt>
      <trkpt lat="47.40007" lon="0.08281">
        <ele>57</ele>
        <time>2013-02-17T14:09:36.000Z</time>
      </trkpt>
      <trkpt lat="47.40007" lon="0.0828">
        <ele>57</ele>
        <time>2013-02-17T14:09:37.000Z</time>
      </trkpt>
      <trkpt lat="47.40006" lon="0.08274">
        <ele>57</ele>
        <time>2013-02-17T14:09:41.000Z</time>
      </trkpt>
      <trkpt lat="47.40005" lon="0.08273">
        <ele>57</ele>
        <time>2013-02-17T14:09:42.000Z</time>
      </trkpt>
      <trkpt lat="47.40003" lon="0.08269">
        <ele>56</ele>
        <time>2013-02-17T14:09:46.000Z</time>
      </trkpt>
      <trkpt lat="47.40002" lon="0.08268">
        <ele>56</ele>
        <time>2013-02-17T14:09:47.000Z</time>
      </trkpt>
      <trkpt lat="47.40001" lon="0.08263">
        <ele>56</ele>
        <time>2013-02-17T14:09:50.000Z</time>
      </trkpt>
      <trkpt lat="47.40001" lon="0.08261">
        <ele>56</ele>
        <time>2013-02-17T14:09:51.000Z</time>
      </trkpt>
      <trkpt lat="47.39999" lon="0.08255">
        <ele>56</ele>
        <time>2013-02-17T14:09:56.000Z</time>
      </trkpt>
      <trkpt lat="47.39999" lon="0.08254">
        <ele>56</ele>
        <time>2013-02-17T14:09:57.000Z</time>
      </trkpt>
      <trkpt lat="47.39998" lon="0.08249">
        <ele>56</ele>
        <time>2013-02-17T14:10:02.000Z</time>
      </trkpt>
      <trkpt lat="47.39997" lon="0.08247">
        <ele>56</ele>
        <time>2013-02-17T14:10:03.000Z</time>
      </trkpt>
      <trkpt lat="47.39996" lon="0.08242">
        <ele>56</ele>
        <time>2013-02-17T14:10:06.000Z</time>
      </trkpt>
      <trkpt lat="47.39996" lon="0.08241">
        <ele>56</ele>
        <time>2013-02-17T14:10:07.000Z</time>
      </trkpt>
      <trkpt lat="47.39995" lon="0.08235">
        <ele>57</ele>
        <time>2013-02-17T14:10:10.000Z</time>
      </trkpt>
      <trkpt lat="47.39994" lon="0.08234">
        <ele>57</ele>
        <time>2013-02-17T14:10:11.000Z</time>
      </trkpt>
      <trkpt lat="47.39993" lon="0.08228">
        <ele>57</ele>
        <time>2013-02-17T14:10:15.000Z</time>
      </trkpt>
      <trkpt lat="47.39993" lon="0.08226">
        <ele>57</ele>
        <time>2013-02-17T14:10:16.000Z</time>
      </trkpt>
      <trkpt lat="47.39993" lon="0.08221">
        <ele>57</ele>
        <time>2013-02-17T14:10:19.000Z</time>
      </trkpt>
      <trkpt lat="47.39992" lon="0.08219">
        <ele>57</ele>
        <time>2013-02-17T14:10:20.000Z</time>
      </trkpt>
      <trkpt lat="47.39992" lon="0.08214">
        <ele>57</ele>
        <time>2013-02-17T14:10:23.000Z</time>
      </trkpt>
      <trkpt lat="47.39991" lon="0.08211">
        <ele>57</ele>
        <time>2013-02-17T14:10:24.000Z</time>
      </trkpt>
      <trkpt lat="47.39991" lon="0.08205">
        <ele>57</ele>
        <time>2013-02-17T14:10:28.000Z</time>
      </trkpt>
      <trkpt lat="47.39991" lon="0.08203">
        <ele>57</ele>
        <time>2013-02-17T14:10:29.000Z</time>
      </trkpt>
      <trkpt lat="47.39989" lon="0.08198">
        <ele>57</ele>
        <time>2013-02-17T14:10:32.000Z</time>
      </trkpt>
      <trkpt lat="47.39989" lon="0.08196">
        <ele>57</ele>
        <time>2013-02-17T14:10:33.000Z</time>
      </trkpt>
      <trkpt lat="47.39988" lon="0.0819">
        <ele>57</ele>
        <time>2013-02-17T14:10:36.000Z</time>
      </trkpt>
      <trkpt lat="47.39988" lon="0.08188">
        <ele>58</ele>
        <time>2013-02-17T14:10:37.000Z</time>
      </trkpt>
      <trkpt lat="47.39987" lon="0.08183">
        <ele>58</ele>
        <time>2013-02-17T14:10:40.000Z</time>
      </trkpt>
      <trkpt lat="47.39987" lon="0.08181">
        <ele>58</ele>
        <time>2013-02-17T14:10:41.000Z</time>
      </trkpt>
      <trkpt lat="47.39986" lon="0.08175">
        <ele>58</ele>
        <time>2013-02-17T14:10:44.000Z</time>
      </trkpt>
      <trkpt lat="47.39986" lon="0.08173">
        <ele>58</ele>
        <time>2013-02-17T14:10:45.000Z</time>
      </trkpt>
      <trkpt lat="47.39985" lon="0.08167">
        <ele>58</ele>
        <time>2013-02-17T14:10:52.000Z</time>
      </trkpt>
      <trkpt lat="47.39984" lon="0.08165">
        <ele>59</ele>
        <time>2013-02-17T14:10:53.000Z</time>
      </trkpt>
      <trkpt lat="47.39982" lon="0.0816">
        <ele>59</ele>
        <time>2013-02-17T14:10:57.000Z</time>
      </trkpt>
      <trkpt lat="47.39982" lon="0.08159">
        <ele>59</ele>
        <time>2013-02-17T14:10:58.000Z</time>
      </trkpt>
      <trkpt lat="47.39981" lon="0.08153">
        <ele>59</ele>
        <time>2013-02-17T14:11:01.000Z</time>
      </trkpt>
      <trkpt lat="47.39981" lon="0.08152">
        <ele>59</ele>
        <time>2013-02-17T14:11:02.000Z</time>
      </trkpt>
      <trkpt lat="47.3998" lon="0.08146">
        <ele>59</ele>
        <time>2013-02-17T14:11:07.000Z</time>
      </trkpt>
      <trkpt lat="47.3998" lon="0.08144">
        <ele>59</ele>
        <time>2013-02-17T14:11:08.000Z</time>
      </trkpt>
      <trkpt lat="47.39979" lon="0.08138">
        <ele>60</ele>
        <time>2013-02-17T14:11:12.000Z</time>
      </trkpt>
      <trkpt lat="47.39979" lon="0.08137">
        <ele>60</ele>
        <time>2013-02-17T14:11:13.000Z</time>
      </trkpt>
      <trkpt lat="47.39979" lon="0.08132">
        <ele>60</ele>
        <time>2013-02-17T14:11:16.000Z</time>
      </trkpt>
      <trkpt lat="47.39979" lon="0.0813">
        <ele>60</ele>
        <time>2013-02-17T14:11:17.000Z</time>
      </trkpt>
      <trkpt lat="47.39978" lon="0.08125">
        <ele>60</ele>
        <time>2013-02-17T14:11:19.000Z</time>
      </trkpt>
      <trkpt lat="47.39977" lon="0.08123">
        <ele>60</ele>
        <time>2013-02-17T14:11:20.000Z</time>
      </trkpt>
      <trkpt lat="47.39976" lon="0.08117">
        <ele>60</ele>
        <time>2013-02-17T14:11:24.000Z</time>
      </trkpt>
      <trkpt lat="47.39976" lon="0.08115">
        <ele>60</ele>
        <time>2013-02-17T14:11:25.000Z</time>
      </trkpt>
      <trkpt lat="47.39975" lon="0.08109">
        <ele>60</ele>
        <time>2013-02-17T14:11:29.000Z</time>
      </trkpt>
      <trkpt lat="47.39974" lon="0.08108">
        <ele>60</ele>
        <time>2013-02-17T14:11:30.000Z</time>
      </trkpt>
      <trkpt lat="47.39973" lon="0.08102">
        <ele>60</ele>
        <time>2013-02-17T14:11:34.000Z</time>
      </trkpt>
      <trkpt lat="47.39973" lon="0.08101">
        <ele>60</ele>
        <time>2013-02-17T14:11:35.000Z</time>
      </trkpt>
      <trkpt lat="47.39972" lon="0.08096">
        <ele>60</ele>
        <time>2013-02-17T14:11:39.000Z</time>
      </trkpt>
      <trkpt lat="47.39972" lon="0.08094">
        <ele>60</ele>
        <time>2013-02-17T14:11:40.000Z</time>
      </trkpt>
      <trkpt lat="47.39971" lon="0.08089">
        <ele>60</ele>
        <time>2013-02-17T14:11:44.000Z</time>
      </trkpt>
      <trkpt lat="47.39971" lon="0.08088">
        <ele>60</ele>
        <time>2013-02-17T14:11:45.000Z</time>
      </trkpt>
      <trkpt lat="47.39971" lon="0.08081">
        <ele>61</ele>
        <time>2013-02-17T14:11:51.000Z</time>
      </trkpt>
      <trkpt lat="47.39969" lon="0.08078">
        <ele>61</ele>
        <time>2013-02-17T14:11:52.000Z</time>
      </trkpt>
      <trkpt lat="47.39968" lon="0.08072">
        <ele>61</ele>
        <time>2013-02-17T14:11:55.000Z</time>
      </trkpt>
      <trkpt lat="47.39968" lon="0.0807">
        <ele>61</ele>
        <time>2013-02-17T14:11:56.000Z</time>
      </trkpt>
      <trkpt lat="47.39966" lon="0.08064">
        <ele>61</ele>
        <time>2013-02-17T14:12:01.000Z</time>
      </trkpt>
      <trkpt lat="47.39966" lon="0.08064">
        <ele>61</ele>
        <time>2013-02-17T14:12:02.000Z</time>
      </trkpt>
      <trkpt lat="47.39964" lon="0.08057">
        <ele>61</ele>
        <time>2013-02-17T14:12:06.000Z</time>
      </trkpt>
      <trkpt lat="47.39964" lon="0.08056">
        <ele>61</ele>
        <time>2013-02-17T14:12:07.000Z</time>
      </trkpt>
      <trkpt lat="47.39962" lon="0.08051">
        <ele>61</ele>
        <time>2013-02-17T14:12:10.000Z</time>
      </trkpt>
      <trkpt lat="47.39962" lon="0.08049">
        <ele>61</ele>
        <time>2013-02-17T14:12:11.000Z</time>
      </trkpt>
      <trkpt lat="47.3996" lon="0.08044">
        <ele>61</ele>
        <time>2013-02-17T14:12:14.000Z</time>
      </trkpt>
      <trkpt lat="47.3996" lon="0.08043">
        <ele>61</ele>
        <time>2013-02-17T14:12:15.000Z</time>
      </trkpt>
      <trkpt lat="47.39958" lon="0.08037">
        <ele>61</ele>
        <time>2013-02-17T14:12:19.000Z</time>
      </trkpt>
      <trkpt lat="47.39957" lon="0.08036">
        <ele>61</ele>
        <time>2013-02-17T14:12:20.000Z</time>
      </trkpt>
      <trkpt lat="47.39956" lon="0.0803">
        <ele>61</ele>
        <time>2013-02-17T14:12:24.000Z</time>
      </trkpt>
      <trkpt lat="47.39956" lon="0.08028">
        <ele>61</ele>
        <time>2013-02-17T14:12:25.000Z</time>
      </trkpt>
      <trkpt lat="47.39957" lon="0.08023">
        <ele>61</ele>
        <time>2013-02-17T14:12:29.000Z</time>
      </trkpt>
      <trkpt lat="47.39957" lon="0.08022">
        <ele>61</ele>
        <time>2013-02-17T14:12:30.000Z</time>
      </trkpt>
      <trkpt lat="47.39956" lon="0.08017">
        <ele>61</ele>
        <time>2013-02-17T14:12:34.000Z</time>
      </trkpt>
      <trkpt lat="47.39955" lon="0.08015">
        <ele>61</ele>
        <time>2013-02-17T14:12:35.000Z</time>
      </trkpt>
      <trkpt lat="47.39955" lon="0.0801">
        <ele>61</ele>
        <time>2013-02-17T14:12:38.000Z</time>
      </trkpt>
      <trkpt lat="47.39955" lon="0.08009">
        <ele>61</ele>
        <time>2013-02-17T14:12:39.000Z</time>
      </trkpt>
      <trkpt lat="47.39954" lon="0.08003">
        <ele>61</ele>
        <time>2013-02-17T14:12:42.000Z</time>
      </trkpt>
      <trkpt lat="47.39953" lon="0.08">
        <ele>61</ele>
        <time>2013-02-17T14:12:43.000Z</time>
      </trkpt>
      <trkpt lat="47.39952" lon="0.07996">
        <ele>61</ele>
        <time>2013-02-17T14:12:46.000Z</time>
      </trkpt>
      <trkpt lat="47.39951" lon="0.07994">
        <ele>61</ele>
        <time>2013-02-17T14:12:47.000Z</time>
      </trkpt>
      <trkpt lat="47.39951" lon="0.07988">
        <ele>61</ele>
        <time>2013-02-17T14:12:53.000Z</time>
      </trkpt>
      <trkpt lat="47.3995" lon="0.07985">
        <ele>61</ele>
        <time>2013-02-17T14:12:54.000Z</time>
      </trkpt>
      <trkpt lat="47.39948" lon="0.0798">
        <ele>61</ele>
        <time>2013-02-17T14:12:57.000Z</time>
      </trkpt>
      <trkpt lat="47.39947" lon="0.07978">
        <ele>61</ele>
        <time>2013-02-17T14:12:58.000Z</time>
      </trkpt>
      <trkpt lat="47.39945" lon="0.07973">
        <ele>61</ele>
        <time>2013-02-17T14:13:01.000Z</time>
      </trkpt>
      <trkpt lat="47.39944" lon="0.0797">
        <ele>61</ele>
        <time>2013-02-17T14:13:02.000Z</time>
      </trkpt>
      <trkpt lat="47.39943" lon="0.07965">
        <ele>61</ele>
        <time>2013-02-17T14:13:06.000Z</time>
      </trkpt>
      <trkpt lat="47.39942" lon="0.07963">
        <ele>61</ele>
        <time>2013-02-17T14:13:07.000Z</time>
      </trkpt>
      <trkpt lat="47.39942" lon="0.07958">
        <ele>61</ele>
        <time>2013-02-17T14:13:10.000Z</time>
      </trkpt>
      <trkpt lat="47.39942" lon="0.07956">
        <ele>61</ele>
        <time>2013-02-17T14:13:11.000Z</time>
      </trkpt>
      <trkpt lat="47.39942" lon="0.07951">
        <ele>61</ele>
        <time>2013-02-17T14:13:14.000Z</time>
      </trkpt>
      <trkpt lat="47.39942" lon="0.07949">
        <ele>61</ele>
        <time>2013-02-17T14:13:15.000Z</time>
      </trkpt>
      <trkpt lat="47.39943" lon="0.07943">
        <ele>61</ele>
        <time>2013-02-17T14:13:18.000Z</time>
      </trkpt>
      <trkpt lat="47.39943" lon="0.07942">
        <ele>61</ele>
        <time>2013-02-17T14:13:19.000Z</time>
      </trkpt>
      <trkpt lat="47.39942" lon="0.07936">
        <ele>62</ele>
        <time>2013-02-17T14:13:23.000Z</time>
      </trkpt>
      <trkpt lat="47.39942" lon="0.07935">
        <ele>62</ele>
        <time>2013-02-17T14:13:24.000Z</time>
      </trkpt>
      <trkpt lat="47.3994" lon="0.07929">
        <ele>62</ele>
        <time>2013-02-17T14:13:27.000Z</time>
      </trkpt>
      <trkpt lat="47.3994" lon="0.07926">
        <ele>62</ele>
        <time>2013-02-17T14:13:28.000Z</time>
      </trkpt>
      <trkpt lat="47.39938" lon="0.07921">
        <ele>62</ele>
        <time>2013-02-17T14:13:31.000Z</time>
      </trkpt>
      <trkpt lat="47.39938" lon="0.07919">
        <ele>62</ele>
        <time>2013-02-17T14:13:32.000Z</time>
      </trkpt>
      <trkpt lat="47.39937" lon="0.07913">
        <ele>62</ele>
        <time>2013-02-17T14:13:36.000Z</time>
      </trkpt>
      <trkpt lat="47.39937" lon="0.07911">
        <ele>62</ele>
        <time>2013-02-17T14:13:37.000Z</time>
      </trkpt>
      <trkpt lat="47.39936" lon="0.07905">
        <ele>62</ele>
        <time>2013-02-17T14:13:40.000Z</time>
      </trkpt>
      <trkpt lat="47.39936" lon="0.07904">
        <ele>62</ele>
        <time>2013-02-17T14:13:41.000Z</time>
      </trkpt>
      <trkpt lat="47.39935" lon="0.07898">
        <ele>62</ele>
        <time>2013-02-17T14:13:44.000Z</time>
      </trkpt>
      <trkpt lat="47.39935" lon="0.07896">
        <ele>62</ele>
        <time>2013-02-17T14:13:45.000Z</time>
      </trkpt>
      <trkpt lat="47.39933" lon="0.07891">
        <ele>62</ele>
        <time>2013-02-17T14:13:49.000Z</time>
      </trkpt>
      <trkpt lat="47.39932" lon="0.0789">
        <ele>62</ele>
        <time>2013-02-17T14:13:50.000Z</time>
      </trkpt>
      <trkpt lat="47.3993" lon="0.07887">
        <ele>62</ele>
        <time>2013-02-17T14:13:56.000Z</time>
      </trkpt>
      <trkpt lat="47.39929" lon="0.07885">
        <ele>62</ele>
        <time>2013-02-17T14:13:57.000Z</time>
      </trkpt>
      <trkpt lat="47.39928" lon="0.07881">
        <ele>62</ele>
        <time>2013-02-17T14:13:59.000Z</time>
      </trkpt>
      <trkpt lat="47.39927" lon="0.07879">
        <ele>62</ele>
        <time>2013-02-17T14:14:00.000Z</time>
      </trkpt>
      <trkpt lat="47.39929" lon="0.07873">
        <ele>62</ele>
        <time>2013-02-17T14:14:20.000Z</time>
      </trkpt>
      <trkpt lat="47.39929" lon="0.07873">
        <ele>62</ele>
        <time>2013-02-17T14:14:21.000Z</time>
      </trkpt>
      <trkpt lat="47.3993" lon="0.07869">
        <ele>62</ele>
        <time>2013-02-17T14:16:21.000Z</time>
      </trkpt>
      <trkpt lat="47.39932" lon="0.07868">
        <ele>62</ele>
        <time>2013-02-17T14:16:22.000Z</time>
      </trkpt>
      <trkpt lat="47.39936" lon="0.07866">
        <ele>62</ele>
        <time>2013-02-17T14:16:26.000Z</time>
      </trkpt>
      <trkpt lat="47.39937" lon="0.07866">
        <ele>62</ele>
        <time>2013-02-17T14:16:27.000Z</time>
      </trkpt>
      <trkpt lat="47.39941" lon="0.07865">
        <ele>62</ele>
        <time>2013-02-17T14:16:36.000Z</time>
      </trkpt>
      <trkpt lat="47.39941" lon="0.07864">
        <ele>62</ele>
        <time>2013-02-17T14:16:37.000Z</time>
      </trkpt>
      <trkpt lat="47.39944" lon="0.0786">
        <ele>62</ele>
        <time>2013-02-17T14:16:42.000Z</time>
      </trkpt>
      <trkpt lat="47.39945" lon="0.0786">
        <ele>62</ele>
        <time>2013-02-17T14:16:43.000Z</time>
      </trkpt>
      <trkpt lat="47.39948" lon="0.07857">
        <ele>62</ele>
        <time>2013-02-17T14:16:47.000Z</time>
      </trkpt>
      <trkpt lat="47.39949" lon="0.07856">
        <ele>62</ele>
        <time>2013-02-17T14:16:48.000Z</time>
      </trkpt>
      <trkpt lat="47.39952" lon="0.07853">
        <ele>62</ele>
        <time>2013-02-17T14:16:52.000Z</time>
      </trkpt>
      <trkpt lat="47.39953" lon="0.07851">
        <ele>62</ele>
        <time>2013-02-17T14:16:53.000Z</time>
      </trkpt>
      <trkpt lat="47.39956" lon="0.07847">
        <ele>62</ele>
        <time>2013-02-17T14:16:57.000Z</time>
      </trkpt>
      <trkpt lat="47.39957" lon="0.07846">
        <ele>62</ele>
        <time>2013-02-17T14:16:58.000Z</time>
      </trkpt>
      <trkpt lat="47.3996" lon="0.07843">
        <ele>62</ele>
        <time>2013-02-17T14:17:01.000Z</time>
      </trkpt>
      <trkpt lat="47.39961" lon="0.07841">
        <ele>62</ele>
        <time>2013-02-17T14:17:02.000Z</time>
      </trkpt>
      <trkpt lat="47.39964" lon="0.07839">
        <ele>63</ele>
        <time>2013-02-17T14:17:05.000Z</time>
      </trkpt>
      <trkpt lat="47.39965" lon="0.07837">
        <ele>63</ele>
        <time>2013-02-17T14:17:06.000Z</time>
      </trkpt>
      <trkpt lat="47.39968" lon="0.07835">
        <ele>63</ele>
        <time>2013-02-17T14:17:09.000Z</time>
      </trkpt>
      <trkpt lat="47.39969" lon="0.07834">
        <ele>63</ele>
        <time>2013-02-17T14:17:10.000Z</time>
      </trkpt>
      <trkpt lat="47.39972" lon="0.0783">
        <ele>63</ele>
        <time>2013-02-17T14:17:13.000Z</time>
      </trkpt>
      <trkpt lat="47.39973" lon="0.07829">
        <ele>63</ele>
        <time>2013-02-17T14:17:14.000Z</time>
      </trkpt>
      <trkpt lat="47.39977" lon="0.07826">
        <ele>63</ele>
        <time>2013-02-17T14:17:17.000Z</time>
      </trkpt>
      <trkpt lat="47.39977" lon="0.07826">
        <ele>63</ele>
        <time>2013-02-17T14:17:18.000Z</time>
      </trkpt>
      <trkpt lat="47.39981" lon="0.07823">
        <ele>63</ele>
        <time>2013-02-17T14:17:22.000Z</time>
      </trkpt>
      <trkpt lat="47.39982" lon="0.07822">
        <ele>63</ele>
        <time>2013-02-17T14:17:23.000Z</time>
      </trkpt>
      <trkpt lat="47.39985" lon="0.07819">
        <ele>63</ele>
        <time>2013-02-17T14:17:29.000Z</time>
      </trkpt>
      <trkpt lat="47.39986" lon="0.07819">
        <ele>63</ele>
        <time>2013-02-17T14:17:30.000Z</time>
      </trkpt>
      <trkpt lat="47.3999" lon="0.07815">
        <ele>63</ele>
        <time>2013-02-17T14:17:35.000Z</time>
      </trkpt>
      <trkpt lat="47.39991" lon="0.07814">
        <ele>63</ele>
        <time>2013-02-17T14:17:36.000Z</time>
      </trkpt>
      <trkpt lat="47.39992" lon="0.0781">
        <ele>63</ele>
        <time>2013-02-17T14:17:38.000Z</time>
      </trkpt>
      <trkpt lat="47.39994" lon="0.07808">
        <ele>63</ele>
        <time>2013-02-17T14:17:39.000Z</time>
      </trkpt>
      <trkpt lat="47.39998" lon="0.07805">
        <ele>63</ele>
        <time>2013-02-17T14:17:43.000Z</time>
      </trkpt>
      <trkpt lat="47.39999" lon="0.07804">
        <ele>63</ele>
        <time>2013-02-17T14:17:44.000Z</time>
      </trkpt>
      <trkpt lat="47.40002" lon="0.078">
        <ele>66</ele>
        <time>2013-02-17T14:17:49.000Z</time>
      </trkpt>
      <trkpt lat="47.40003" lon="0.07799">
        <ele>66</ele>
        <time>2013-02-17T14:17:50.000Z</time>
      </trkpt>
      <trkpt lat="47.40005" lon="0.07797">
        <ele>66</ele>
        <time>2013-02-17T14:17:53.000Z</time>
      </trkpt>
      <trkpt lat="47.40006" lon="0.07796">
        <ele>66</ele>
        <time>2013-02-17T14:17:54.000Z</time>
      </trkpt>
      <trkpt lat="47.4001" lon="0.07794">
        <ele>66</ele>
        <time>2013-02-17T14:17:58.000Z</time>
      </trkpt>
      <trkpt lat="47.40011" lon="0.07794">
        <ele>66</ele>
        <time>2013-02-17T14:17:59.000Z</time>
      </trkpt>
      <trkpt lat="47.40014" lon="0.07792">
        <ele>66</ele>
        <time>2013-02-17T14:18:02.000Z</time>
      </trkpt>
      <trkpt lat="47.40016" lon="0.07791">
        <ele>66</ele>
        <time>2013-02-17T14:18:03.000Z</time>
      </trkpt>
      <trkpt lat="47.40019" lon="0.0779">
        <ele>66</ele>
        <time>2013-02-17T14:18:05.000Z</time>
      </trkpt>
      <trkpt lat="47.4002" lon="0.07789">
        <ele>66</ele>
        <time>2013-02-17T14:18:06.000Z</time>
      </trkpt>
      <trkpt lat="47.40023" lon="0.07787">
        <ele>66</ele>
        <time>2013-02-17T14:18:09.000Z</time>
      </trkpt>
      <trkpt lat="47.40024" lon="0.07785">
        <ele>66</ele>
        <time>2013-02-17T14:18:10.000Z</time>
      </trkpt>
      <trkpt lat="47.40027" lon="0.07783">
        <ele>66</ele>
        <time>2013-02-17T14:18:13.000Z</time>
      </trkpt>
      <trkpt lat="47.40028" lon="0.07782">
        <ele>66</ele>
        <time>2013-02-17T14:18:14.000Z</time>
      </trkpt>
      <trkpt lat="47.40031" lon="0.07779">
        <ele>67</ele>
        <time>2013-02-17T14:18:17.000Z</time>
      </trkpt>
      <trkpt lat="47.40033" lon="0.07777">
        <ele>67</ele>
        <time>2013-02-17T14:18:18.000Z</time>
      </trkpt>
      <trkpt lat="47.40035" lon="0.07774">
        <ele>67</ele>
        <time>2013-02-17T14:18:21.000Z</time>
      </trkpt>
      <trkpt lat="47.40036" lon="0.07772">
        <ele>67</ele>
        <time>2013-02-17T14:18:22.000Z</time>
      </trkpt>
      <trkpt lat="47.4004" lon="0.07769">
        <ele>67</ele>
        <time>2013-02-17T14:18:24.000Z</time>
      </trkpt>
      <trkpt lat="47.40042" lon="0.07768">
        <ele>67</ele>
        <time>2013-02-17T14:18:25.000Z</time>
      </trkpt>
      <trkpt lat="47.40045" lon="0.07764">
        <ele>67</ele>
        <time>2013-02-17T14:18:28.000Z</time>
      </trkpt>
      <trkpt lat="47.40046" lon="0.07764">
        <ele>67</ele>
        <time>2013-02-17T14:18:29.000Z</time>
      </trkpt>
      <trkpt lat="47.40049" lon="0.07762">
        <ele>67</ele>
        <time>2013-02-17T14:18:32.000Z</time>
      </trkpt>
      <trkpt lat="47.4005" lon="0.07761">
        <ele>67</ele>
        <time>2013-02-17T14:18:33.000Z</time>
      </trkpt>
      <trkpt lat="47.40053" lon="0.07757">
        <ele>68</ele>
        <time>2013-02-17T14:18:37.000Z</time>
      </trkpt>
      <trkpt lat="47.40053" lon="0.07756">
        <ele>68</ele>
        <time>2013-02-17T14:18:38.000Z</time>
      </trkpt>
      <trkpt lat="47.40055" lon="0.07751">
        <ele>68</ele>
        <time>2013-02-17T14:18:41.000Z</time>
      </trkpt>
      <trkpt lat="47.40056" lon="0.07749">
        <ele>67</ele>
        <time>2013-02-17T14:18:42.000Z</time>
      </trkpt>
      <trkpt lat="47.40059" lon="0.07746">
        <ele>67</ele>
        <time>2013-02-17T14:18:47.000Z</time>
      </trkpt>
      <trkpt lat="47.40061" lon="0.07746">
        <ele>67</ele>
        <time>2013-02-17T14:18:48.000Z</time>
      </trkpt>
      <trkpt lat="47.40063" lon="0.07743">
        <ele>67</ele>
        <time>2013-02-17T14:18:51.000Z</time>
      </trkpt>
      <trkpt lat="47.40065" lon="0.07741">
        <ele>67</ele>
        <time>2013-02-17T14:18:52.000Z</time>
      </trkpt>
      <trkpt lat="47.40069" lon="0.07737">
        <ele>68</ele>
        <time>2013-02-17T14:18:55.000Z</time>
      </trkpt>
      <trkpt lat="47.4007" lon="0.07736">
        <ele>68</ele>
        <time>2013-02-17T14:18:56.000Z</time>
      </trkpt>
      <trkpt lat="47.40073" lon="0.07733">
        <ele>68</ele>
        <time>2013-02-17T14:19:00.000Z</time>
      </trkpt>
      <trkpt lat="47.40074" lon="0.07731">
        <ele>67</ele>
        <time>2013-02-17T14:19:01.000Z</time>
      </trkpt>
      <trkpt lat="47.40078" lon="0.07728">
        <ele>67</ele>
        <time>2013-02-17T14:19:03.000Z</time>
      </trkpt>
      <trkpt lat="47.4008" lon="0.07726">
        <ele>67</ele>
        <time>2013-02-17T14:19:04.000Z</time>
      </trkpt>
      <trkpt lat="47.40084" lon="0.07723">
        <ele>69</ele>
        <time>2013-02-17T14:19:07.000Z</time>
      </trkpt>
      <trkpt lat="47.40086" lon="0.07723">
        <ele>69</ele>
        <time>2013-02-17T14:19:08.000Z</time>
      </trkpt>
      <trkpt lat="47.40089" lon="0.07722">
        <ele>69</ele>
        <time>2013-02-17T14:19:15.000Z</time>
      </trkpt>
      <trkpt lat="47.4009" lon="0.07721">
        <ele>69</ele>
        <time>2013-02-17T14:19:16.000Z</time>
      </trkpt>
      <trkpt lat="47.40094" lon="0.07719">
        <ele>69</ele>
        <time>2013-02-17T14:19:23.000Z</time>
      </trkpt>
      <trkpt lat="47.40094" lon="0.07719">
        <ele>69</ele>
        <time>2013-02-17T14:19:24.000Z</time>
      </trkpt>
      <trkpt lat="47.40098" lon="0.07717">
        <ele>69</ele>
        <time>2013-02-17T14:19:28.000Z</time>
      </trkpt>
      <trkpt lat="47.401" lon="0.07716">
        <ele>69</ele>
        <time>2013-02-17T14:19:29.000Z</time>
      </trkpt>
      <trkpt lat="47.40103" lon="0.07714">
        <ele>69</ele>
        <time>2013-02-17T14:19:31.000Z</time>
      </trkpt>
      <trkpt lat="47.40104" lon="0.07713">
        <ele>69</ele>
        <time>2013-02-17T14:19:32.000Z</time>
      </trkpt>
      <trkpt lat="47.40108" lon="0.07711">
        <ele>69</ele>
        <time>2013-02-17T14:19:35.000Z</time>
      </trkpt>
      <trkpt lat="47.40108" lon="0.0771">
        <ele>69</ele>
        <time>2013-02-17T14:19:36.000Z</time>
      </trkpt>
      <trkpt lat="47.40112" lon="0.07708">
        <ele>69</ele>
        <time>2013-02-17T14:19:39.000Z</time>
      </trkpt>
      <trkpt lat="47.40113" lon="0.07708">
        <ele>69</ele>
        <time>2013-02-17T14:19:40.000Z</time>
      </trkpt>
      <trkpt lat="47.40117" lon="0.07707">
        <ele>69</ele>
        <time>2013-02-17T14:19:50.000Z</time>
      </trkpt>
      <trkpt lat="47.40118" lon="0.07707">
        <ele>69</ele>
        <time>2013-02-17T14:19:51.000Z</time>
      </trkpt>
      <trkpt lat="47.40121" lon="0.07703">
        <ele>69</ele>
        <time>2013-02-17T14:20:24.000Z</time>
      </trkpt>
      <trkpt lat="47.40121" lon="0.07701">
        <ele>69</ele>
        <time>2013-02-17T14:20:25.000Z</time>
      </trkpt>
      <trkpt lat="47.40122" lon="0.07698">
        <ele>68</ele>
        <time>2013-02-17T14:20:27.000Z</time>
      </trkpt>
      <trkpt lat="47.40122" lon="0.07695">
        <ele>68</ele>
        <time>2013-02-17T14:20:28.000Z</time>
      </trkpt>
      <trkpt lat="47.40124" lon="0.0769">
        <ele>68</ele>
        <time>2013-02-17T14:20:30.000Z</time>
      </trkpt>
      <trkpt lat="47.40124" lon="0.07689">
        <ele>68</ele>
        <time>2013-02-17T14:20:31.000Z</time>
      </trkpt>
      <trkpt lat="47.40127" lon="0.07684">
        <ele>68</ele>
        <time>2013-02-17T14:20:35.000Z</time>
      </trkpt>
      <trkpt lat="47.40127" lon="0.07682">
        <ele>68</ele>
        <time>2013-02-17T14:20:36.000Z</time>
      </trkpt>
      <trkpt lat="47.40128" lon="0.07678">
        <ele>68</ele>
        <time>2013-02-17T14:20:38.000Z</time>
      </trkpt>
      <trkpt lat="47.40127" lon="0.07675">
        <ele>68</ele>
        <time>2013-02-17T14:20:39.000Z</time>
      </trkpt>
      <trkpt lat="47.40127" lon="0.0767">
        <ele>68</ele>
        <time>2013-02-17T14:20:41.000Z</time>
      </trkpt>
      <trkpt lat="47.40128" lon="0.07667">
        <ele>68</ele>
        <time>2013-02-17T14:20:42.000Z</time>
      </trkpt>
      <trkpt lat="47.40128" lon="0.07661">
        <ele>64</ele>
        <time>2013-02-17T14:20:44.000Z</time>
      </trkpt>
      <trkpt lat="47.40129" lon="0.07659">
        <ele>64</ele>
        <time>2013-02-17T14:20:45.000Z</time>
      </trkpt>
      <trkpt lat="47.40132" lon="0.07655">
        <ele>64</ele>
        <time>2013-02-17T14:20:47.000Z</time>
      </trkpt>
      <trkpt lat="47.40133" lon="0.07652">
        <ele>64</ele>
        <time>2013-02-17T14:20:48.000Z</time>
      </trkpt>
      <trkpt lat="47.40135" lon="0.07648">
        <ele>64</ele>
        <time>2013-02-17T14:20:52.000Z</time>
      </trkpt>
      <trkpt lat="47.40135" lon="0.07647">
        <ele>64</ele>
        <time>2013-02-17T14:20:53.000Z</time>
      </trkpt>
      <trkpt lat="47.40136" lon="0.07641">
        <ele>64</ele>
        <time>2013-02-17T14:20:58.000Z</time>
      </trkpt>
      <trkpt lat="47.40137" lon="0.07639">
        <ele>64</ele>
        <time>2013-02-17T14:20:59.000Z</time>
      </trkpt>
      <trkpt lat="47.40137" lon="0.07632">
        <ele>64</ele>
        <time>2013-02-17T14:21:03.000Z</time>
      </trkpt>
      <trkpt lat="47.40137" lon="0.07631">
        <ele>64</ele>
        <time>2013-02-17T14:21:04.000Z</time>
      </trkpt>
      <trkpt lat="47.40134" lon="0.07626">
        <ele>64</ele>
        <time>2013-02-17T14:21:07.000Z</time>
      </trkpt>
      <trkpt lat="47.40134" lon="0.07624">
        <ele>64</ele>
        <time>2013-02-17T14:21:08.000Z</time>
      </trkpt>
      <trkpt lat="47.40132" lon="0.07619">
        <ele>63</ele>
        <time>2013-02-17T14:21:12.000Z</time>
      </trkpt>
      <trkpt lat="47.40132" lon="0.07618">
        <ele>63</ele>
        <time>2013-02-17T14:21:13.000Z</time>
      </trkpt>
      <trkpt lat="47.4013" lon="0.07614">
        <ele>63</ele>
        <time>2013-02-17T14:21:17.000Z</time>
      </trkpt>
      <trkpt lat="47.40129" lon="0.07612">
        <ele>63</ele>
        <time>2013-02-17T14:21:18.000Z</time>
      </trkpt>
      <trkpt lat="47.40128" lon="0.07607">
        <ele>63</ele>
        <time>2013-02-17T14:21:21.000Z</time>
      </trkpt>
      <trkpt lat="47.40128" lon="0.07605">
        <ele>63</ele>
        <time>2013-02-17T14:21:22.000Z</time>
      </trkpt>
      <trkpt lat="47.40126" lon="0.076">
        <ele>63</ele>
        <time>2013-02-17T14:21:25.000Z</time>
      </trkpt>
      <trkpt lat="47.40125" lon="0.07599">
        <ele>63</ele>
        <time>2013-02-17T14:21:26.000Z</time>
      </trkpt>
      <trkpt lat="47.40123" lon="0.07595">
        <ele>63</ele>
        <time>2013-02-17T14:21:29.000Z</time>
      </trkpt>
      <trkpt lat="47.40122" lon="0.07593">
        <ele>63</ele>
        <time>2013-02-17T14:21:30.000Z</time>
      </trkpt>
      <trkpt lat="47.4012" lon="0.07588">
        <ele>63</ele>
        <time>2013-02-17T14:21:33.000Z</time>
      </trkpt>
      <trkpt lat="47.40119" lon="0.07586">
        <ele>63</ele>
        <time>2013-02-17T14:21:34.000Z</time>
      </trkpt>
      <trkpt lat="47.40118" lon="0.0758">
        <ele>61</ele>
        <time>2013-02-17T14:21:37.000Z</time>
      </trkpt>
      <trkpt lat="47.40118" lon="0.07579">
        <ele>61</ele>
        <time>2013-02-17T14:21:38.000Z</time>
      </trkpt>
      <trkpt lat="47.40116" lon="0.07573">
        <ele>61</ele>
        <time>2013-02-17T14:21:44.000Z</time>
      </trkpt>
      <trkpt lat="47.40116" lon="0.07572">
        <ele>61</ele>
        <time>2013-02-17T14:21:45.000Z</time>
      </trkpt>
      <trkpt lat="47.40114" lon="0.07568">
        <ele>61</ele>
        <time>2013-02-17T14:21:47.000Z</time>
      </trkpt>
      <trkpt lat="47.40113" lon="0.07566">
        <ele>61</ele>
        <time>2013-02-17T14:21:48.000Z</time>
      </trkpt>
      <trkpt lat="47.40111" lon="0.07562">
        <ele>61</ele>
        <time>2013-02-17T14:21:50.000Z</time>
      </trkpt>
      <trkpt lat="47.4011" lon="0.0756">
        <ele>61</ele>
        <time>2013-02-17T14:21:51.000Z</time>
      </trkpt>
      <trkpt lat="47.40108" lon="0.07554">
        <ele>61</ele>
        <time>2013-02-17T14:21:53.000Z</time>
      </trkpt>
      <trkpt lat="47.40107" lon="0.07553">
        <ele>61</ele>
        <time>2013-02-17T14:21:54.000Z</time>
      </trkpt>
      <trkpt lat="47.40105" lon="0.07547">
        <ele>61</ele>
        <time>2013-02-17T14:21:57.000Z</time>
      </trkpt>
      <trkpt lat="47.40105" lon="0.07546">
        <ele>61</ele>
        <time>2013-02-17T14:21:58.000Z</time>
      </trkpt>
      <trkpt lat="47.40104" lon="0.0754">
        <ele>61</ele>
        <time>2013-02-17T14:22:02.000Z</time>
      </trkpt>
      <trkpt lat="47.40103" lon="0.07539">
        <ele>61</ele>
        <time>2013-02-17T14:22:03.000Z</time>
      </trkpt>
      <trkpt lat="47.40101" lon="0.07534">
        <ele>61</ele>
        <time>2013-02-17T14:22:08.000Z</time>
      </trkpt>
      <trkpt lat="47.40101" lon="0.07532">
        <ele>61</ele>
        <time>2013-02-17T14:22:09.000Z</time>
      </trkpt>
      <trkpt lat="47.40099" lon="0.07528">
        <ele>61</ele>
        <time>2013-02-17T14:22:11.000Z</time>
      </trkpt>
      <trkpt lat="47.40099" lon="0.07526">
        <ele>60</ele>
        <time>2013-02-17T14:22:12.000Z</time>
      </trkpt>
      <trkpt lat="47.40097" lon="0.07522">
        <ele>60</ele>
        <time>2013-02-17T14:22:14.000Z</time>
      </trkpt>
      <trkpt lat="47.40096" lon="0.0752">
        <ele>60</ele>
        <time>2013-02-17T14:22:15.000Z</time>
      </trkpt>
      <trkpt lat="47.40095" lon="0.07515">
        <ele>60</ele>
        <time>2013-02-17T14:22:18.000Z</time>
      </trkpt>
      <trkpt lat="47.40095" lon="0.07513">
        <ele>60</ele>
        <time>2013-02-17T14:22:19.000Z</time>
      </trkpt>
      <trkpt lat="47.40095" lon="0.07508">
        <ele>60</ele>
        <time>2013-02-17T14:22:22.000Z</time>
      </trkpt>
      <trkpt lat="47.40094" lon="0.07506">
        <ele>60</ele>
        <time>2013-02-17T14:22:23.000Z</time>
      </trkpt>
      <trkpt lat="47.40093" lon="0.07501">
        <ele>60</ele>
        <time>2013-02-17T14:22:26.000Z</time>
      </trkpt>
      <trkpt lat="47.40092" lon="0.075">
        <ele>60</ele>
        <time>2013-02-17T14:22:27.000Z</time>
      </trkpt>
      <trkpt lat="47.40091" lon="0.07494">
        <ele>60</ele>
        <time>2013-02-17T14:22:31.000Z</time>
      </trkpt>
      <trkpt lat="47.40091" lon="0.07493">
        <ele>60</ele>
        <time>2013-02-17T14:22:32.000Z</time>
      </trkpt>
      <trkpt lat="47.4009" lon="0.07488">
        <ele>60</ele>
        <time>2013-02-17T14:22:35.000Z</time>
      </trkpt>
      <trkpt lat="47.40089" lon="0.07487">
        <ele>60</ele>
        <time>2013-02-17T14:22:36.000Z</time>
      </trkpt>
      <trkpt lat="47.40087" lon="0.07482">
        <ele>60</ele>
        <time>2013-02-17T14:22:41.000Z</time>
      </trkpt>
      <trkpt lat="47.40086" lon="0.0748">
        <ele>60</ele>
        <time>2013-02-17T14:22:42.000Z</time>
      </trkpt>
      <trkpt lat="47.40083" lon="0.07476">
        <ele>60</ele>
        <time>2013-02-17T14:22:44.000Z</time>
      </trkpt>
      <trkpt lat="47.40083" lon="0.07474">
        <ele>59</ele>
        <time>2013-02-17T14:22:45.000Z</time>
      </trkpt>
      <trkpt lat="47.4008" lon="0.0747">
        <ele>59</ele>
        <time>2013-02-17T14:22:49.000Z</time>
      </trkpt>
      <trkpt lat="47.40079" lon="0.07468">
        <ele>59</ele>
        <time>2013-02-17T14:22:50.000Z</time>
      </trkpt>
      <trkpt lat="47.40077" lon="0.07462">
        <ele>59</ele>
        <time>2013-02-17T14:22:54.000Z</time>
      </trkpt>
      <trkpt lat="47.40077" lon="0.07462">
        <ele>59</ele>
        <time>2013-02-17T14:22:55.000Z</time>
      </trkpt>
      <trkpt lat="47.40075" lon="0.07456">
        <ele>59</ele>
        <time>2013-02-17T14:22:58.000Z</time>
      </trkpt>
      <trkpt lat="47.40075" lon="0.07456">
        <ele>59</ele>
        <time>2013-02-17T14:22:59.000Z</time>
      </trkpt>
      <trkpt lat="47.40072" lon="0.0745">
        <ele>59</ele>
        <time>2013-02-17T14:23:04.000Z</time>
      </trkpt>
      <trkpt lat="47.40072" lon="0.07448">
        <ele>59</ele>
        <time>2013-02-17T14:23:05.000Z</time>
      </trkpt>
      <trkpt lat="47.40071" lon="0.07443">
        <ele>59</ele>
        <time>2013-02-17T14:23:08.000Z</time>
      </trkpt>
      <trkpt lat="47.4007" lon="0.07441">
        <ele>59</ele>
        <time>2013-02-17T14:23:09.000Z</time>
      </trkpt>
      <trkpt lat="47.40069" lon="0.07435">
        <ele>59</ele>
        <time>2013-02-17T14:23:12.000Z</time>
      </trkpt>
      <trkpt lat="47.40069" lon="0.07435">
        <ele>59</ele>
        <time>2013-02-17T14:23:13.000Z</time>
      </trkpt>
      <trkpt lat="47.40067" lon="0.07429">
        <ele>59</ele>
        <time>2013-02-17T14:23:17.000Z</time>
      </trkpt>
      <trkpt lat="47.40067" lon="0.07428">
        <ele>59</ele>
        <time>2013-02-17T14:23:18.000Z</time>
      </trkpt>
      <trkpt lat="47.40066" lon="0.07422">
        <ele>59</ele>
        <time>2013-02-17T14:23:21.000Z</time>
      </trkpt>
      <trkpt lat="47.40066" lon="0.0742">
        <ele>59</ele>
        <time>2013-02-17T14:23:22.000Z</time>
      </trkpt>
      <trkpt lat="47.40064" lon="0.07415">
        <ele>59</ele>
        <time>2013-02-17T14:23:27.000Z</time>
      </trkpt>
      <trkpt lat="47.40064" lon="0.07414">
        <ele>59</ele>
        <time>2013-02-17T14:23:28.000Z</time>
      </trkpt>
      <trkpt lat="47.40062" lon="0.07408">
        <ele>59</ele>
        <time>2013-02-17T14:23:32.000Z</time>
      </trkpt>
      <trkpt lat="47.40062" lon="0.07406">
        <ele>59</ele>
        <time>2013-02-17T14:23:33.000Z</time>
      </trkpt>
      <trkpt lat="47.4006" lon="0.07401">
        <ele>59</ele>
        <time>2013-02-17T14:23:36.000Z</time>
      </trkpt>
      <trkpt lat="47.4006" lon="0.074">
        <ele>59</ele>
        <time>2013-02-17T14:23:37.000Z</time>
      </trkpt>
      <trkpt lat="47.40059" lon="0.07394">
        <ele>59</ele>
        <time>2013-02-17T14:23:41.000Z</time>
      </trkpt>
      <trkpt lat="47.40059" lon="0.07392">
        <ele>59</ele>
        <time>2013-02-17T14:23:42.000Z</time>
      </trkpt>
      <trkpt lat="47.40058" lon="0.07386">
        <ele>59</ele>
        <time>2013-02-17T14:23:46.000Z</time>
      </trkpt>
      <trkpt lat="47.40058" lon="0.07384">
        <ele>60</ele>
        <time>2013-02-17T14:23:47.000Z</time>
      </trkpt>
      <trkpt lat="47.40057" lon="0.07379">
        <ele>60</ele>
        <time>2013-02-17T14:23:50.000Z</time>
      </trkpt>
      <trkpt lat="47.40057" lon="0.07377">
        <ele>60</ele>
        <time>2013-02-17T14:23:51.000Z</time>
      </trkpt>
      <trkpt lat="47.40057" lon="0.07371">
        <ele>60</ele>
        <time>2013-02-17T14:23:54.000Z</time>
      </trkpt>
      <trkpt lat="47.40057" lon="0.0737">
        <ele>60</ele>
        <time>2013-02-17T14:23:55.000Z</time>
      </trkpt>
      <trkpt lat="47.40056" lon="0.07365">
        <ele>60</ele>
        <time>2013-02-17T14:23:58.000Z</time>
      </trkpt>
      <trkpt lat="47.40056" lon="0.07363">
        <ele>60</ele>
        <time>2013-02-17T14:23:59.000Z</time>
      </trkpt>
      <trkpt lat="47.40055" lon="0.07358">
        <ele>60</ele>
        <time>2013-02-17T14:24:02.000Z</time>
      </trkpt>
      <trkpt lat="47.40055" lon="0.07356">
        <ele>60</ele>
        <time>2013-02-17T14:24:03.000Z</time>
      </trkpt>
      <trkpt lat="47.40052" lon="0.07352">
        <ele>60</ele>
        <time>2013-02-17T14:24:09.000Z</time>
      </trkpt>
      <trkpt lat="47.40052" lon="0.07351">
        <ele>60</ele>
        <time>2013-02-17T14:24:10.000Z</time>
      </trkpt>
      <trkpt lat="47.4005" lon="0.07345">
        <ele>60</ele>
        <time>2013-02-17T14:24:14.000Z</time>
      </trkpt>
      <trkpt lat="47.40049" lon="0.07344">
        <ele>60</ele>
        <time>2013-02-17T14:24:15.000Z</time>
      </trkpt>
      <trkpt lat="47.40048" lon="0.07338">
        <ele>60</ele>
        <time>2013-02-17T14:24:18.000Z</time>
      </trkpt>
      <trkpt lat="47.40048" lon="0.07337">
        <ele>60</ele>
        <time>2013-02-17T14:24:19.000Z</time>
      </trkpt>
      <trkpt lat="47.40047" lon="0.07331">
        <ele>60</ele>
        <time>2013-02-17T14:24:23.000Z</time>
      </trkpt>
      <trkpt lat="47.40046" lon="0.0733">
        <ele>60</ele>
        <time>2013-02-17T14:24:24.000Z</time>
      </trkpt>
      <trkpt lat="47.40045" lon="0.07325">
        <ele>60</ele>
        <time>2013-02-17T14:24:27.000Z</time>
      </trkpt>
      <trkpt lat="47.40045" lon="0.07323">
        <ele>60</ele>
        <time>2013-02-17T14:24:28.000Z</time>
      </trkpt>
      <trkpt lat="47.40044" lon="0.07318">
        <ele>60</ele>
        <time>2013-02-17T14:24:31.000Z</time>
      </trkpt>
      <trkpt lat="47.40044" lon="0.07316">
        <ele>60</ele>
        <time>2013-02-17T14:24:32.000Z</time>
      </trkpt>
      <trkpt lat="47.40043" lon="0.0731">
        <ele>60</ele>
        <time>2013-02-17T14:24:35.000Z</time>
      </trkpt>
      <trkpt lat="47.40043" lon="0.07309">
        <ele>60</ele>
        <time>2013-02-17T14:24:36.000Z</time>
      </trkpt>
      <trkpt lat="47.40043" lon="0.07302">
        <ele>60</ele>
        <time>2013-02-17T14:24:42.000Z</time>
      </trkpt>
      <trkpt lat="47.40043" lon="0.07301">
        <ele>60</ele>
        <time>2013-02-17T14:24:43.000Z</time>
      </trkpt>
      <trkpt lat="47.40042" lon="0.07297">
        <ele>60</ele>
        <time>2013-02-17T14:24:47.000Z</time>
      </trkpt>
      <trkpt lat="47.40042" lon="0.07295">
        <ele>60</ele>
        <time>2013-02-17T14:24:48.000Z</time>
      </trkpt>
      <trkpt lat="47.40041" lon="0.07289">
        <ele>59</ele>
        <time>2013-02-17T14:24:51.000Z</time>
      </trkpt>
      <trkpt lat="47.4004" lon="0.07287">
        <ele>59</ele>
        <time>2013-02-17T14:24:52.000Z</time>
      </trkpt>
      <trkpt lat="47.40039" lon="0.07283">
        <ele>59</ele>
        <time>2013-02-17T14:24:54.000Z</time>
      </trkpt>
      <trkpt lat="47.40038" lon="0.07281">
        <ele>59</ele>
        <time>2013-02-17T14:24:55.000Z</time>
      </trkpt>
      <trkpt lat="47.40037" lon="0.07275">
        <ele>59</ele>
        <time>2013-02-17T14:24:58.000Z</time>
      </trkpt>
      <trkpt lat="47.40037" lon="0.07273">
        <ele>59</ele>
        <time>2013-02-17T14:24:59.000Z</time>
      </trkpt>
      <trkpt lat="47.40036" lon="0.07268">
        <ele>59</ele>
        <time>2013-02-17T14:25:02.000Z</time>
      </trkpt>
      <trkpt lat="47.40036" lon="0.07266">
        <ele>59</ele>
        <time>2013-02-17T14:25:03.000Z</time>
      </trkpt>
      <trkpt lat="47.40034" lon="0.07261">
        <ele>59</ele>
        <time>2013-02-17T14:25:05.000Z</time>
      </trkpt>
      <trkpt lat="47.40034" lon="0.07259">
        <ele>59</ele>
        <time>2013-02-17T14:25:06.000Z</time>
      </trkpt>
      <trkpt lat="47.40034" lon="0.07253">
        <ele>59</ele>
        <time>2013-02-17T14:25:09.000Z</time>
      </trkpt>
      <trkpt lat="47.40034" lon="0.0725">
        <ele>58</ele>
        <time>2013-02-17T14:25:10.000Z</time>
      </trkpt>
      <trkpt lat="47.40033" lon="0.07244">
        <ele>58</ele>
        <time>2013-02-17T14:25:13.000Z</time>
      </trkpt>
      <trkpt lat="47.40033" lon="0.07242">
        <ele>58</ele>
        <time>2013-02-17T14:25:14.000Z</time>
      </trkpt>
      <trkpt lat="47.40031" lon="0.07237">
        <ele>58</ele>
        <time>2013-02-17T14:25:17.000Z</time>
      </trkpt>
      <trkpt lat="47.40031" lon="0.07235">
        <ele>58</ele>
        <time>2013-02-17T14:25:18.000Z</time>
      </trkpt>
      <trkpt lat="47.40029" lon="0.0723">
        <ele>58</ele>
        <time>2013-02-17T14:25:21.000Z</time>
      </trkpt>
      <trkpt lat="47.40029" lon="0.07229">
        <ele>58</ele>
        <time>2013-02-17T14:25:22.000Z</time>
      </trkpt>
      <trkpt lat="47.40027" lon="0.07224">
        <ele>58</ele>
        <time>2013-02-17T14:25:25.000Z</time>
      </trkpt>
      <trkpt lat="47.40027" lon="0.07222">
        <ele>58</ele>
        <time>2013-02-17T14:25:26.000Z</time>
      </trkpt>
      <trkpt lat="47.40025" lon="0.07217">
        <ele>58</ele>
        <time>2013-02-17T14:25:30.000Z</time>
      </trkpt>
      <trkpt lat="47.40025" lon="0.07216">
        <ele>58</ele>
        <time>2013-02-17T14:25:31.000Z</time>
      </trkpt>
      <trkpt lat="47.40024" lon="0.0721">
        <ele>58</ele>
        <time>2013-02-17T14:25:35.000Z</time>
      </trkpt>
      <trkpt lat="47.40023" lon="0.07208">
        <ele>58</ele>
        <time>2013-02-17T14:25:36.000Z</time>
      </trkpt>
      <trkpt lat="47.40022" lon="0.07202">
        <ele>58</ele>
        <time>2013-02-17T14:25:39.000Z</time>
      </trkpt>
      <trkpt lat="47.40021" lon="0.072">
        <ele>58</ele>
        <time>2013-02-17T14:25:40.000Z</time>
      </trkpt>
      <trkpt lat="47.4002" lon="0.07194">
        <ele>58</ele>
        <time>2013-02-17T14:25:45.000Z</time>
      </trkpt>
      <trkpt lat="47.40019" lon="0.07193">
        <ele>58</ele>
        <time>2013-02-17T14:25:46.000Z</time>
      </trkpt>
      <trkpt lat="47.40017" lon="0.07188">
        <ele>57</ele>
        <time>2013-02-17T14:25:50.000Z</time>
      </trkpt>
      <trkpt lat="47.40017" lon="0.07186">
        <ele>57</ele>
        <time>2013-02-17T14:25:51.000Z</time>
      </trkpt>
      <trkpt lat="47.40015" lon="0.07181">
        <ele>57</ele>
        <time>2013-02-17T14:25:55.000Z</time>
      </trkpt>
      <trkpt lat="47.40015" lon="0.0718">
        <ele>57</ele>
        <time>2013-02-17T14:25:56.000Z</time>
      </trkpt>
      <trkpt lat="47.40014" lon="0.07174">
        <ele>57</ele>
        <time>2013-02-17T14:26:00.000Z</time>
      </trkpt>
      <trkpt lat="47.40014" lon="0.07173">
        <ele>57</ele>
        <time>2013-02-17T14:26:01.000Z</time>
      </trkpt>
      <trkpt lat="47.40013" lon="0.07167">
        <ele>57</ele>
        <time>2013-02-17T14:26:07.000Z</time>
      </trkpt>
      <trkpt lat="47.40012" lon="0.07165">
        <ele>57</ele>
        <time>2013-02-17T14:26:08.000Z</time>
      </trkpt>
      <trkpt lat="47.40011" lon="0.07161">
        <ele>57</ele>
        <time>2013-02-17T14:26:11.000Z</time>
      </trkpt>
      <trkpt lat="47.40011" lon="0.07159">
        <ele>57</ele>
        <time>2013-02-17T14:26:12.000Z</time>
      </trkpt>
      <trkpt lat="47.4001" lon="0.07153">
        <ele>57</ele>
        <time>2013-02-17T14:26:16.000Z</time>
      </trkpt>
      <trkpt lat="47.40009" lon="0.07151">
        <ele>57</ele>
        <time>2013-02-17T14:26:17.000Z</time>
      </trkpt>
      <trkpt lat="47.40007" lon="0.07146">
        <ele>56</ele>
        <time>2013-02-17T14:26:20.000Z</time>
      </trkpt>
      <trkpt lat="47.40006" lon="0.07145">
        <ele>56</ele>
        <time>2013-02-17T14:26:21.000Z</time>
      </trkpt>
      <trkpt lat="47.40005" lon="0.07139">
        <ele>56</ele>
        <time>2013-02-17T14:26:25.000Z</time>
      </trkpt>
      <trkpt lat="47.40005" lon="0.07138">
        <ele>56</ele>
        <time>2013-02-17T14:26:26.000Z</time>
      </trkpt>
      <trkpt lat="47.40003" lon="0.07133">
        <ele>56</ele>
        <time>2013-02-17T14:26:30.000Z</time>
      </trkpt>
      <trkpt lat="47.40002" lon="0.07131">
        <ele>56</ele>
        <time>2013-02-17T14:26:31.000Z</time>
      </trkpt>
      <trkpt lat="47.4" lon="0.07126">
        <ele>57</ele>
        <time>2013-02-17T14:26:34.000Z</time>
      </trkpt>
      <trkpt lat="47.39999" lon="0.07125">
        <ele>57</ele>
        <time>2013-02-17T14:26:35.000Z</time>
      </trkpt>
      <trkpt lat="47.39997" lon="0.07119">
        <ele>57</ele>
        <time>2013-02-17T14:26:41.000Z</time>
      </trkpt>
      <trkpt lat="47.39997" lon="0.07118">
        <ele>57</ele>
        <time>2013-02-17T14:26:42.000Z</time>
      </trkpt>
      <trkpt lat="47.39994" lon="0.07113">
        <ele>57</ele>
        <time>2013-02-17T14:26:45.000Z</time>
      </trkpt>
      <trkpt lat="47.39992" lon="0.07112">
        <ele>57</ele>
        <time>2013-02-17T14:26:46.000Z</time>
      </trkpt>
      <trkpt lat="47.3999" lon="0.07108">
        <ele>57</ele>
        <time>2013-02-17T14:26:49.000Z</time>
      </trkpt>
      <trkpt lat="47.39989" lon="0.07107">
        <ele>57</ele>
        <time>2013-02-17T14:26:50.000Z</time>
      </trkpt>
      <trkpt lat="47.39986" lon="0.07102">
        <ele>57</ele>
        <time>2013-02-17T14:26:54.000Z</time>
      </trkpt>
      <trkpt lat="47.39985" lon="0.071">
        <ele>57</ele>
        <time>2013-02-17T14:26:55.000Z</time>
      </trkpt>
      <trkpt lat="47.39983" lon="0.07096">
        <ele>57</ele>
        <time>2013-02-17T14:26:58.000Z</time>
      </trkpt>
      <trkpt lat="47.39983" lon="0.07094">
        <ele>57</ele>
        <time>2013-02-17T14:26:59.000Z</time>
      </trkpt>
      <trkpt lat="47.39981" lon="0.07089">
        <ele>57</ele>
        <time>2013-02-17T14:27:04.000Z</time>
      </trkpt>
      <trkpt lat="47.3998" lon="0.07089">
        <ele>57</ele>
        <time>2013-02-17T14:27:05.000Z</time>
      </trkpt>
      <trkpt lat="47.39978" lon="0.07084">
        <ele>57</ele>
        <time>2013-02-17T14:27:09.000Z</time>
      </trkpt>
      <trkpt lat="47.39978" lon="0.07082">
        <ele>58</ele>
        <time>2013-02-17T14:27:10.000Z</time>
      </trkpt>
      <trkpt lat="47.39978" lon="0.07077">
        <ele>58</ele>
        <time>2013-02-17T14:27:16.000Z</time>
      </trkpt>
      <trkpt lat="47.39978" lon="0.07075">
        <ele>58</ele>
        <time>2013-02-17T14:27:17.000Z</time>
      </trkpt>
      <trkpt lat="47.39978" lon="0.07069">
        <ele>58</ele>
        <time>2013-02-17T14:27:21.000Z</time>
      </trkpt>
      <trkpt lat="47.39977" lon="0.07068">
        <ele>58</ele>
        <time>2013-02-17T14:27:22.000Z</time>
      </trkpt>
      <trkpt lat="47.39977" lon="0.07062">
        <ele>58</ele>
        <time>2013-02-17T14:27:26.000Z</time>
      </trkpt>
      <trkpt lat="47.39977" lon="0.0706">
        <ele>58</ele>
        <time>2013-02-17T14:27:27.000Z</time>
      </trkpt>
      <trkpt lat="47.39976" lon="0.07054">
        <ele>58</ele>
        <time>2013-02-17T14:27:31.000Z</time>
      </trkpt>
      <trkpt lat="47.39976" lon="0.07052">
        <ele>58</ele>
        <time>2013-02-17T14:27:32.000Z</time>
      </trkpt>
      <trkpt lat="47.39976" lon="0.07046">
        <ele>59</ele>
        <time>2013-02-17T14:27:39.000Z</time>
      </trkpt>
      <trkpt lat="47.39976" lon="0.07045">
        <ele>59</ele>
        <time>2013-02-17T14:27:40.000Z</time>
      </trkpt>
      <trkpt lat="47.39975" lon="0.07039">
        <ele>59</ele>
        <time>2013-02-17T14:27:44.000Z</time>
      </trkpt>
      <trkpt lat="47.39975" lon="0.07038">
        <ele>59</ele>
        <time>2013-02-17T14:27:45.000Z</time>
      </trkpt>
      <trkpt lat="47.39975" lon="0.07034">
        <ele>59</ele>
        <time>2013-02-17T14:27:47.000Z</time>
      </trkpt>
      <trkpt lat="47.39975" lon="0.07031">
        <ele>59</ele>
        <time>2013-02-17T14:27:48.000Z</time>
      </trkpt>
      <trkpt lat="47.39973" lon="0.07025">
        <ele>59</ele>
        <time>2013-02-17T14:27:54.000Z</time>
      </trkpt>
      <trkpt lat="47.39973" lon="0.07024">
        <ele>59</ele>
        <time>2013-02-17T14:27:55.000Z</time>
      </trkpt>
      <trkpt lat="47.39969" lon="0.07023">
        <ele>59</ele>
        <time>2013-02-17T14:30:30.000Z</time>
      </trkpt>
      <trkpt lat="47.39967" lon="0.07025">
        <ele>59</ele>
        <time>2013-02-17T14:30:31.000Z</time>
      </trkpt>
      <trkpt lat="47.39964" lon="0.07029">
        <ele>59</ele>
        <time>2013-02-17T14:30:34.000Z</time>
      </trkpt>
      <trkpt lat="47.39963" lon="0.07029">
        <ele>59</ele>
        <time>2013-02-17T14:30:35.000Z</time>
      </trkpt>
      <trkpt lat="47.3996" lon="0.07033">
        <ele>59</ele>
        <time>2013-02-17T14:30:39.000Z</time>
      </trkpt>
      <trkpt lat="47.39959" lon="0.07033">
        <ele>59</ele>
        <time>2013-02-17T14:30:40.000Z</time>
      </trkpt>
      <trkpt lat="47.39955" lon="0.07037">
        <ele>59</ele>
        <time>2013-02-17T14:30:45.000Z</time>
      </trkpt>
      <trkpt lat="47.39954" lon="0.07038">
        <ele>59</ele>
        <time>2013-02-17T14:30:46.000Z</time>
      </trkpt>
      <trkpt lat="47.39951" lon="0.07043">
        <ele>58</ele>
        <time>2013-02-17T14:30:55.000Z</time>
      </trkpt>
      <trkpt lat="47.3995" lon="0.07044">
        <ele>58</ele>
        <time>2013-02-17T14:30:56.000Z</time>
      </trkpt>
      <trkpt lat="47.39946" lon="0.07046">
        <ele>58</ele>
        <time>2013-02-17T14:30:59.000Z</time>
      </trkpt>
      <trkpt lat="47.39945" lon="0.07047">
        <ele>58</ele>
        <time>2013-02-17T14:31:00.000Z</time>
      </trkpt>
      <trkpt lat="47.39942" lon="0.0705">
        <ele>58</ele>
        <time>2013-02-17T14:31:04.000Z</time>
      </trkpt>
      <trkpt lat="47.39941" lon="0.07052">
        <ele>58</ele>
        <time>2013-02-17T14:31:05.000Z</time>
      </trkpt>
      <trkpt lat="47.39939" lon="0.07055">
        <ele>58</ele>
        <time>2013-02-17T14:31:07.000Z</time>
      </trkpt>
      <trkpt lat="47.39937" lon="0.07057">
        <ele>58</ele>
        <time>2013-02-17T14:31:08.000Z</time>
      </trkpt>
      <trkpt lat="47.39935" lon="0.07062">
        <ele>58</ele>
        <time>2013-02-17T14:31:10.000Z</time>
      </trkpt>
      <trkpt lat="47.39934" lon="0.07064">
        <ele>58</ele>
        <time>2013-02-17T14:31:11.000Z</time>
      </trkpt>
      <trkpt lat="47.39931" lon="0.07067">
        <ele>58</ele>
        <time>2013-02-17T14:31:14.000Z</time>
      </trkpt>
      <trkpt lat="47.39929" lon="0.07068">
        <ele>58</ele>
        <time>2013-02-17T14:31:15.000Z</time>
      </trkpt>
      <trkpt lat="47.39925" lon="0.07071">
        <ele>58</ele>
        <time>2013-02-17T14:31:20.000Z</time>
      </trkpt>
      <trkpt lat="47.39924" lon="0.07072">
        <ele>58</ele>
        <time>2013-02-17T14:31:21.000Z</time>
      </trkpt>
      <trkpt lat="47.3992" lon="0.07074">
        <ele>57</ele>
        <time>2013-02-17T14:31:24.000Z</time>
      </trkpt>
      <trkpt lat="47.39919" lon="0.07074">
        <ele>57</ele>
        <time>2013-02-17T14:31:25.000Z</time>
      </trkpt>
      <trkpt lat="47.39915" lon="0.07076">
        <ele>57</ele>
        <time>2013-02-17T14:31:28.000Z</time>
      </trkpt>
      <trkpt lat="47.39914" lon="0.07077">
        <ele>57</ele>
        <time>2013-02-17T14:31:29.000Z</time>
      </trkpt>
      <trkpt lat="47.3991" lon="0.07079">
        <ele>57</ele>
        <time>2013-02-17T14:31:32.000Z</time>
      </trkpt>
      <trkpt lat="47.3991" lon="0.0708">
        <ele>57</ele>
        <time>2013-02-17T14:31:33.000Z</time>
      </trkpt>
      <trkpt lat="47.39907" lon="0.07081">
        <ele>57</ele>
        <time>2013-02-17T14:31:36.000Z</time>
      </trkpt>
      <trkpt lat="47.39905" lon="0.07082">
        <ele>57</ele>
        <time>2013-02-17T14:31:37.000Z</time>
      </trkpt>
      <trkpt lat="47.39901" lon="0.07082">
        <ele>57</ele>
        <time>2013-02-17T14:31:40.000Z</time>
      </trkpt>
      <trkpt lat="47.399" lon="0.07082">
        <ele>57</ele>
        <time>2013-02-17T14:31:41.000Z</time>
      </trkpt>
      <trkpt lat="47.39896" lon="0.07082">
        <ele>57</ele>
        <time>2013-02-17T14:31:45.000Z</time>
      </trkpt>
      <trkpt lat="47.39895" lon="0.07083">
        <ele>57</ele>
        <time>2013-02-17T14:31:46.000Z</time>
      </trkpt>
      <trkpt lat="47.3989" lon="0.07084">
        <ele>57</ele>
        <time>2013-02-17T14:31:52.000Z</time>
      </trkpt>
      <trkpt lat="47.39889" lon="0.07085">
        <ele>57</ele>
        <time>2013-02-17T14:31:53.000Z</time>
      </trkpt>
      <trkpt lat="47.39886" lon="0.07085">
        <ele>57</ele>
        <time>2013-02-17T14:31:57.000Z</time>
      </trkpt>
      <trkpt lat="47.39885" lon="0.07086">
        <ele>57</ele>
        <time>2013-02-17T14:31:58.000Z</time>
      </trkpt>
      <trkpt lat="47.39881" lon="0.07087">
        <ele>57</ele>
        <time>2013-02-17T14:32:02.000Z</time>
      </trkpt>
      <trkpt lat="47.3988" lon="0.07087">
        <ele>57</ele>
        <time>2013-02-17T14:32:03.000Z</time>
      </trkpt>
      <trkpt lat="47.39876" lon="0.07086">
        <ele>57</ele>
        <time>2013-02-17T14:32:07.000Z</time>
      </trkpt>
      <trkpt lat="47.39875" lon="0.07087">
        <ele>57</ele>
        <time>2013-02-17T14:32:08.000Z</time>
      </trkpt>
      <trkpt lat="47.39871" lon="0.07087">
        <ele>57</ele>
        <time>2013-02-17T14:32:12.000Z</time>
      </trkpt>
      <trkpt lat="47.3987" lon="0.07088">
        <ele>57</ele>
        <time>2013-02-17T14:32:13.000Z</time>
      </trkpt>
      <trkpt lat="47.39866" lon="0.07089">
        <ele>57</ele>
        <time>2013-02-17T14:32:16.000Z</time>
      </trkpt>
      <trkpt lat="47.39865" lon="0.07089">
        <ele>57</ele>
        <time>2013-02-17T14:32:17.000Z</time>
      </trkpt>
      <trkpt lat="47.39861" lon="0.0709">
        <ele>57</ele>
        <time>2013-02-17T14:32:21.000Z</time>
      </trkpt>
      <trkpt lat="47.3986" lon="0.07091">
        <ele>57</ele>
        <time>2013-02-17T14:32:22.000Z</time>
      </trkpt>
      <trkpt lat="47.39856" lon="0.07092">
        <ele>57</ele>
        <time>2013-02-17T14:32:26.000Z</time>
      </trkpt>
      <trkpt lat="47.39855" lon="0.07092">
        <ele>57</ele>
        <time>2013-02-17T14:32:27.000Z</time>
      </trkpt>
      <trkpt lat="47.39851" lon="0.07093">
        <ele>57</ele>
        <time>2013-02-17T14:32:31.000Z</time>
      </trkpt>
      <trkpt lat="47.3985" lon="0.07093">
        <ele>57</ele>
        <time>2013-02-17T14:32:32.000Z</time>
      </trkpt>
      <trkpt lat="47.39847" lon="0.0709">
        <ele>57</ele>
        <time>2013-02-17T14:32:37.000Z</time>
      </trkpt>
      <trkpt lat="47.39846" lon="0.07089">
        <ele>57</ele>
        <time>2013-02-17T14:32:38.000Z</time>
      </trkpt>
      <trkpt lat="47.39843" lon="0.07085">
        <ele>57</ele>
        <time>2013-02-17T14:32:41.000Z</time>
      </trkpt>
      <trkpt lat="47.39842" lon="0.07083">
        <ele>57</ele>
        <time>2013-02-17T14:32:42.000Z</time>
      </trkpt>
      <trkpt lat="47.3984" lon="0.07078">
        <ele>57</ele>
        <time>2013-02-17T14:32:45.000Z</time>
      </trkpt>
      <trkpt lat="47.3984" lon="0.07076">
        <ele>57</ele>
        <time>2013-02-17T14:32:46.000Z</time>
      </trkpt>
      <trkpt lat="47.39838" lon="0.0707">
        <ele>57</ele>
        <time>2013-02-17T14:32:50.000Z</time>
      </trkpt>
      <trkpt lat="47.39838" lon="0.07069">
        <ele>57</ele>
        <time>2013-02-17T14:32:51.000Z</time>
      </trkpt>
      <trkpt lat="47.39837" lon="0.07063">
        <ele>57</ele>
        <time>2013-02-17T14:32:55.000Z</time>
      </trkpt>
      <trkpt lat="47.39836" lon="0.07062">
        <ele>57</ele>
        <time>2013-02-17T14:32:56.000Z</time>
      </trkpt>
      <trkpt lat="47.39834" lon="0.07058">
        <ele>57</ele>
        <time>2013-02-17T14:32:59.000Z</time>
      </trkpt>
      <trkpt lat="47.39833" lon="0.07056">
        <ele>57</ele>
        <time>2013-02-17T14:33:00.000Z</time>
      </trkpt>
      <trkpt lat="47.39831" lon="0.07051">
        <ele>57</ele>
        <time>2013-02-17T14:33:03.000Z</time>
      </trkpt>
      <trkpt lat="47.39831" lon="0.0705">
        <ele>57</ele>
        <time>2013-02-17T14:33:04.000Z</time>
      </trkpt>
      <trkpt lat="47.39829" lon="0.07044">
        <ele>57</ele>
        <time>2013-02-17T14:33:08.000Z</time>
      </trkpt>
      <trkpt lat="47.39829" lon="0.07043">
        <ele>57</ele>
        <time>2013-02-17T14:33:09.000Z</time>
      </trkpt>
      <trkpt lat="47.39826" lon="0.07038">
        <ele>57</ele>
        <time>2013-02-17T14:33:14.000Z</time>
      </trkpt>
      <trkpt lat="47.39825" lon="0.07037">
        <ele>57</ele>
        <time>2013-02-17T14:33:15.000Z</time>
      </trkpt>
      <trkpt lat="47.39822" lon="0.07034">
        <ele>57</ele>
        <time>2013-02-17T14:33:18.000Z</time>
      </trkpt>
      <trkpt lat="47.39821" lon="0.07033">
        <ele>57</ele>
        <time>2013-02-17T14:33:19.000Z</time>
      </trkpt>
      <trkpt lat="47.39819" lon="0.07028">
        <ele>57</ele>
        <time>2013-02-17T14:33:23.000Z</time>
      </trkpt>
      <trkpt lat="47.39818" lon="0.07026">
        <ele>57</ele>
        <time>2013-02-17T14:33:24.000Z</time>
      </trkpt>
      <trkpt lat="47.39816" lon="0.07023">
        <ele>57</ele>
        <time>2013-02-17T14:33:27.000Z</time>
      </trkpt>
      <trkpt lat="47.39815" lon="0.07021">
        <ele>57</ele>
        <time>2013-02-17T14:33:28.000Z</time>
      </trkpt>
      <trkpt lat="47.39812" lon="0.07016">
        <ele>57</ele>
        <time>2013-02-17T14:33:31.000Z</time>
      </trkpt>
      <trkpt lat="47.39811" lon="0.07015">
        <ele>57</ele>
        <time>2013-02-17T14:33:32.000Z</time>
      </trkpt>
      <trkpt lat="47.39808" lon="0.07011">
        <ele>57</ele>
        <time>2013-02-17T14:33:36.000Z</time>
      </trkpt>
      <trkpt lat="47.39808" lon="0.0701">
        <ele>57</ele>
        <time>2013-02-17T14:33:37.000Z</time>
      </trkpt>
      <trkpt lat="47.39806" lon="0.07005">
        <ele>57</ele>
        <time>2013-02-17T14:33:42.000Z</time>
      </trkpt>
      <trkpt lat="47.39805" lon="0.07004">
        <ele>57</ele>
        <time>2013-02-17T14:33:43.000Z</time>
      </trkpt>
      <trkpt lat="47.39803" lon="0.07">
        <ele>58</ele>
        <time>2013-02-17T14:33:47.000Z</time>
      </trkpt>
      <trkpt lat="47.39803" lon="0.06998">
        <ele>58</ele>
        <time>2013-02-17T14:33:48.000Z</time>
      </trkpt>
      <trkpt lat="47.39801" lon="0.06993">
        <ele>58</ele>
        <time>2013-02-17T14:33:52.000Z</time>
      </trkpt>
      <trkpt lat="47.39801" lon="0.06991">
        <ele>58</ele>
        <time>2013-02-17T14:33:53.000Z</time>
      </trkpt>
      <trkpt lat="47.39799" lon="0.06986">
        <ele>58</ele>
        <time>2013-02-17T14:33:57.000Z</time>
      </trkpt>
      <trkpt lat="47.39798" lon="0.06985">
        <ele>58</ele>
        <time>2013-02-17T14:33:58.000Z</time>
      </trkpt>
      <trkpt lat="47.39796" lon="0.0698">
        <ele>58</ele>
        <time>2013-02-17T14:34:04.000Z</time>
      </trkpt>
      <trkpt lat="47.39795" lon="0.06979">
        <ele>58</ele>
        <time>2013-02-17T14:34:05.000Z</time>
      </trkpt>
      <trkpt lat="47.39792" lon="0.06974">
        <ele>58</ele>
        <time>2013-02-17T14:34:09.000Z</time>
      </trkpt>
      <trkpt lat="47.39791" lon="0.06972">
        <ele>58</ele>
        <time>2013-02-17T14:34:10.000Z</time>
      </trkpt>
      <trkpt lat="47.39789" lon="0.06968">
        <ele>58</ele>
        <time>2013-02-17T14:34:13.000Z</time>
      </trkpt>
      <trkpt lat="47.39788" lon="0.06967">
        <ele>58</ele>
        <time>2013-02-17T14:34:14.000Z</time>
      </trkpt>
      <trkpt lat="47.39785" lon="0.06963">
        <ele>58</ele>
        <time>2013-02-17T14:34:17.000Z</time>
      </trkpt>
      <trkpt lat="47.39784" lon="0.06962">
        <ele>58</ele>
        <time>2013-02-17T14:34:18.000Z</time>
      </trkpt>
      <trkpt lat="47.39781" lon="0.06959">
        <ele>58</ele>
        <time>2013-02-17T14:34:23.000Z</time>
      </trkpt>
      <trkpt lat="47.39779" lon="0.06959">
        <ele>58</ele>
        <time>2013-02-17T14:34:24.000Z</time>
      </trkpt>
      <trkpt lat="47.39776" lon="0.06956">
        <ele>58</ele>
        <time>2013-02-17T14:34:27.000Z</time>
      </trkpt>
      <trkpt lat="47.39774" lon="0.06955">
        <ele>58</ele>
        <time>2013-02-17T14:34:28.000Z</time>
      </trkpt>
      <trkpt lat="47.39772" lon="0.06953">
        <ele>58</ele>
        <time>2013-02-17T14:34:29.000Z</time>
      </trkpt>
      <trkpt lat="47.3977" lon="0.06951">
        <ele>58</ele>
        <time>2013-02-17T14:34:30.000Z</time>
      </trkpt>
      <trkpt lat="47.39766" lon="0.06947">
        <ele>58</ele>
        <time>2013-02-17T14:34:32.000Z</time>
      </trkpt>
      <trkpt lat="47.39765" lon="0.06945">
        <ele>58</ele>
        <time>2013-02-17T14:34:33.000Z</time>
      </trkpt>
      <trkpt lat="47.39761" lon="0.06943">
        <ele>58</ele>
        <time>2013-02-17T14:34:37.000Z</time>
      </trkpt>
      <trkpt lat="47.3976" lon="0.06942">
        <ele>58</ele>
        <time>2013-02-17T14:34:38.000Z</time>
      </trkpt>
      <trkpt lat="47.39756" lon="0.06941">
        <ele>58</ele>
        <time>2013-02-17T14:34:44.000Z</time>
      </trkpt>
      <trkpt lat="47.39756" lon="0.0694">
        <ele>58</ele>
        <time>2013-02-17T14:34:45.000Z</time>
      </trkpt>
      <trkpt lat="47.39752" lon="0.06937">
        <ele>58</ele>
        <time>2013-02-17T14:34:52.000Z</time>
      </trkpt>
      <trkpt lat="47.39751" lon="0.06937">
        <ele>58</ele>
        <time>2013-02-17T14:34:53.000Z</time>
      </trkpt>
      <trkpt lat="47.39748" lon="0.06933">
        <ele>57</ele>
        <time>2013-02-17T14:34:58.000Z</time>
      </trkpt>
      <trkpt lat="47.39747" lon="0.06932">
        <ele>57</ele>
        <time>2013-02-17T14:34:59.000Z</time>
      </trkpt>
      <trkpt lat="47.39744" lon="0.06928">
        <ele>57</ele>
        <time>2013-02-17T14:35:06.000Z</time>
      </trkpt>
      <trkpt lat="47.39744" lon="0.06927">
        <ele>57</ele>
        <time>2013-02-17T14:35:07.000Z</time>
      </trkpt>
      <trkpt lat="47.39742" lon="0.0692">
        <ele>58</ele>
        <time>2013-02-17T14:35:11.000Z</time>
      </trkpt>
      <trkpt lat="47.39742" lon="0.06919">
        <ele>58</ele>
        <time>2013-02-17T14:35:12.000Z</time>
      </trkpt>
      <trkpt lat="47.39741" lon="0.06913">
        <ele>57</ele>
        <time>2013-02-17T14:35:15.000Z</time>
      </trkpt>
      <trkpt lat="47.39741" lon="0.06912">
        <ele>57</ele>
        <time>2013-02-17T14:35:16.000Z</time>
      </trkpt>
      <trkpt lat="47.3974" lon="0.06906">
        <ele>57</ele>
        <time>2013-02-17T14:35:19.000Z</time>
      </trkpt>
      <trkpt lat="47.3974" lon="0.06905">
        <ele>57</ele>
        <time>2013-02-17T14:35:20.000Z</time>
      </trkpt>
      <trkpt lat="47.3974" lon="0.06898">
        <ele>57</ele>
        <time>2013-02-17T14:35:24.000Z</time>
      </trkpt>
      <trkpt lat="47.39739" lon="0.06897">
        <ele>57</ele>
        <time>2013-02-17T14:35:25.000Z</time>
      </trkpt>
      <trkpt lat="47.39739" lon="0.06891">
        <ele>57</ele>
        <time>2013-02-17T14:35:30.000Z</time>
      </trkpt>
      <trkpt lat="47.39738" lon="0.0689">
        <ele>57</ele>
        <time>2013-02-17T14:35:31.000Z</time>
      </trkpt>
      <trkpt lat="47.39739" lon="0.06883">
        <ele>57</ele>
        <time>2013-02-17T14:35:35.000Z</time>
      </trkpt>
      <trkpt lat="47.39739" lon="0.06881">
        <ele>57</ele>
        <time>2013-02-17T14:35:36.000Z</time>
      </trkpt>
      <trkpt lat="47.39739" lon="0.06876">
        <ele>57</ele>
        <time>2013-02-17T14:35:40.000Z</time>
      </trkpt>
      <trkpt lat="47.39739" lon="0.06875">
        <ele>57</ele>
        <time>2013-02-17T14:35:41.000Z</time>
      </trkpt>
      <trkpt lat="47.39738" lon="0.0687">
        <ele>57</ele>
        <time>2013-02-17T14:35:45.000Z</time>
      </trkpt>
      <trkpt lat="47.39738" lon="0.06868">
        <ele>57</ele>
        <time>2013-02-17T14:35:46.000Z</time>
      </trkpt>
      <trkpt lat="47.39736" lon="0.06864">
        <ele>57</ele>
        <time>2013-02-17T14:35:49.000Z</time>
      </trkpt>
      <trkpt lat="47.39735" lon="0.06862">
        <ele>57</ele>
        <time>2013-02-17T14:35:50.000Z</time>
      </trkpt>
      <trkpt lat="47.39733" lon="0.06857">
        <ele>57</ele>
        <time>2013-02-17T14:35:54.000Z</time>
      </trkpt>
      <trkpt lat="47.39732" lon="0.06855">
        <ele>57</ele>
        <time>2013-02-17T14:35:55.000Z</time>
      </trkpt>
      <trkpt lat="47.39731" lon="0.0685">
        <ele>57</ele>
        <time>2013-02-17T14:36:01.000Z</time>
      </trkpt>
      <trkpt lat="47.3973" lon="0.06848">
        <ele>57</ele>
        <time>2013-02-17T14:36:02.000Z</time>
      </trkpt>
      <trkpt lat="47.39727" lon="0.06843">
        <ele>56</ele>
        <time>2013-02-17T14:36:06.000Z</time>
      </trkpt>
      <trkpt lat="47.39726" lon="0.06842">
        <ele>56</ele>
        <time>2013-02-17T14:36:07.000Z</time>
      </trkpt>
      <trkpt lat="47.39723" lon="0.0684">
        <ele>56</ele>
        <time>2013-02-17T14:36:11.000Z</time>
      </trkpt>
      <trkpt lat="47.39722" lon="0.0684">
        <ele>56</ele>
        <time>2013-02-17T14:36:12.000Z</time>
      </trkpt>
      <trkpt lat="47.39719" lon="0.06838">
        <ele>56</ele>
        <time>2013-02-17T14:36:15.000Z</time>
      </trkpt>
      <trkpt lat="47.39718" lon="0.06837">
        <ele>56</ele>
        <time>2013-02-17T14:36:16.000Z</time>
      </trkpt>
      <trkpt lat="47.39714" lon="0.06834">
        <ele>56</ele>
        <time>2013-02-17T14:36:20.000Z</time>
      </trkpt>
      <trkpt lat="47.39713" lon="0.06834">
        <ele>56</ele>
        <time>2013-02-17T14:36:21.000Z</time>
      </trkpt>
      <trkpt lat="47.3971" lon="0.06831">
        <ele>56</ele>
        <time>2013-02-17T14:36:24.000Z</time>
      </trkpt>
      <trkpt lat="47.39709" lon="0.0683">
        <ele>56</ele>
        <time>2013-02-17T14:36:25.000Z</time>
      </trkpt>
      <trkpt lat="47.39705" lon="0.06827">
        <ele>56</ele>
        <time>2013-02-17T14:36:28.000Z</time>
      </trkpt>
      <trkpt lat="47.39704" lon="0.06826">
        <ele>56</ele>
        <time>2013-02-17T14:36:29.000Z</time>
      </trkpt>
      <trkpt lat="47.397" lon="0.06824">
        <ele>56</ele>
        <time>2013-02-17T14:36:33.000Z</time>
      </trkpt>
      <trkpt lat="47.39699" lon="0.06824">
        <ele>56</ele>
        <time>2013-02-17T14:36:34.000Z</time>
      </trkpt>
      <trkpt lat="47.39696" lon="0.06822">
        <ele>56</ele>
        <time>2013-02-17T14:36:37.000Z</time>
      </trkpt>
      <trkpt lat="47.39695" lon="0.06821">
        <ele>56</ele>
        <time>2013-02-17T14:36:38.000Z</time>
      </trkpt>
      <trkpt lat="47.39691" lon="0.06819">
        <ele>56</ele>
        <time>2013-02-17T14:36:42.000Z</time>
      </trkpt>
      <trkpt lat="47.3969" lon="0.06818">
        <ele>56</ele>
        <time>2013-02-17T14:36:43.000Z</time>
      </trkpt>
      <trkpt lat="47.39686" lon="0.06816">
        <ele>56</ele>
        <time>2013-02-17T14:36:46.000Z</time>
      </trkpt>
      <trkpt lat="47.39685" lon="0.06816">
        <ele>56</ele>
        <time>2013-02-17T14:36:47.000Z</time>
      </trkpt>
      <trkpt lat="47.39681" lon="0.06815">
        <ele>56</ele>
        <time>2013-02-17T14:36:51.000Z</time>
      </trkpt>
      <trkpt lat="47.3968" lon="0.06814">
        <ele>56</ele>
        <time>2013-02-17T14:36:52.000Z</time>
      </trkpt>
      <trkpt lat="47.39677" lon="0.06813">
        <ele>56</ele>
        <time>2013-02-17T14:36:56.000Z</time>
      </trkpt>
      <trkpt lat="47.39676" lon="0.06812">
        <ele>56</ele>
        <time>2013-02-17T14:36:57.000Z</time>
      </trkpt>
      <trkpt lat="47.39672" lon="0.0681">
        <ele>56</ele>
        <time>2013-02-17T14:37:00.000Z</time>
      </trkpt>
      <trkpt lat="47.39671" lon="0.0681">
        <ele>56</ele>
        <time>2013-02-17T14:37:01.000Z</time>
      </trkpt>
      <trkpt lat="47.39667" lon="0.06807">
        <ele>55</ele>
        <time>2013-02-17T14:37:05.000Z</time>
      </trkpt>
      <trkpt lat="47.39665" lon="0.06806">
        <ele>55</ele>
        <time>2013-02-17T14:37:06.000Z</time>
      </trkpt>
      <trkpt lat="47.39661" lon="0.06804">
        <ele>55</ele>
        <time>2013-02-17T14:37:10.000Z</time>
      </trkpt>
      <trkpt lat="47.3966" lon="0.06804">
        <ele>55</ele>
        <time>2013-02-17T14:37:11.000Z</time>
      </trkpt>
      <trkpt lat="47.39657" lon="0.06802">
        <ele>55</ele>
        <time>2013-02-17T14:37:14.000Z</time>
      </trkpt>
      <trkpt lat="47.39656" lon="0.06801">
        <ele>55</ele>
        <time>2013-02-17T14:37:15.000Z</time>
      </trkpt>
      <trkpt lat="47.39652" lon="0.068">
        <ele>55</ele>
        <time>2013-02-17T14:37:17.000Z</time>
      </trkpt>
      <trkpt lat="47.39651" lon="0.068">
        <ele>55</ele>
        <time>2013-02-17T14:37:18.000Z</time>
      </trkpt>
      <trkpt lat="47.39647" lon="0.06798">
        <ele>55</ele>
        <time>2013-02-17T14:37:23.000Z</time>
      </trkpt>
      <trkpt lat="47.39646" lon="0.06798">
        <ele>55</ele>
        <time>2013-02-17T14:37:24.000Z</time>
      </trkpt>
      <trkpt lat="47.39642" lon="0.06796">
        <ele>55</ele>
        <time>2013-02-17T14:37:28.000Z</time>
      </trkpt>
      <trkpt lat="47.39642" lon="0.06795">
        <ele>55</ele>
        <time>2013-02-17T14:37:29.000Z</time>
      </trkpt>
      <trkpt lat="47.39638" lon="0.06793">
        <ele>55</ele>
        <time>2013-02-17T14:37:34.000Z</time>
      </trkpt>
      <trkpt lat="47.39636" lon="0.06792">
        <ele>55</ele>
        <time>2013-02-17T14:37:35.000Z</time>
      </trkpt>
      <trkpt lat="47.39633" lon="0.0679">
        <ele>55</ele>
        <time>2013-02-17T14:37:37.000Z</time>
      </trkpt>
      <trkpt lat="47.39632" lon="0.06789">
        <ele>55</ele>
        <time>2013-02-17T14:37:38.000Z</time>
      </trkpt>
      <trkpt lat="47.39629" lon="0.06786">
        <ele>55</ele>
        <time>2013-02-17T14:37:42.000Z</time>
      </trkpt>
      <trkpt lat="47.39628" lon="0.06785">
        <ele>55</ele>
        <time>2013-02-17T14:37:43.000Z</time>
      </trkpt>
      <trkpt lat="47.39624" lon="0.06782">
        <ele>55</ele>
        <time>2013-02-17T14:37:47.000Z</time>
      </trkpt>
      <trkpt lat="47.39623" lon="0.06782">
        <ele>55</ele>
        <time>2013-02-17T14:37:48.000Z</time>
      </trkpt>
      <trkpt lat="47.39619" lon="0.06779">
        <ele>55</ele>
        <time>2013-02-17T14:37:53.000Z</time>
      </trkpt>
      <trkpt lat="47.39619" lon="0.06778">
        <ele>55</ele>
        <time>2013-02-17T14:37:54.000Z</time>
      </trkpt>
      <trkpt lat="47.39615" lon="0.06776">
        <ele>55</ele>
        <time>2013-02-17T14:37:58.000Z</time>
      </trkpt>
      <trkpt lat="47.39614" lon="0.06775">
        <ele>55</ele>
        <time>2013-02-17T14:37:59.000Z</time>
      </trkpt>
      <trkpt lat="47.3961" lon="0.06774">
        <ele>55</ele>
        <time>2013-02-17T14:38:02.000Z</time>
      </trkpt>
      <trkpt lat="47.39609" lon="0.06774">
        <ele>55</ele>
        <time>2013-02-17T14:38:03.000Z</time>
      </trkpt>
      <trkpt lat="47.39605" lon="0.06772">
        <ele>55</ele>
        <time>2013-02-17T14:38:07.000Z</time>
      </trkpt>
      <trkpt lat="47.39603" lon="0.0677">
        <ele>55</ele>
        <time>2013-02-17T14:38:08.000Z</time>
      </trkpt>
      <trkpt lat="47.396" lon="0.06767">
        <ele>55</ele>
        <time>2013-02-17T14:38:12.000Z</time>
      </trkpt>
      <trkpt lat="47.39599" lon="0.06766">
        <ele>55</ele>
        <time>2013-02-17T14:38:13.000Z</time>
      </trkpt>
      <trkpt lat="47.39595" lon="0.06764">
        <ele>55</ele>
        <time>2013-02-17T14:38:17.000Z</time>
      </trkpt>
      <trkpt lat="47.39594" lon="0.06764">
        <ele>55</ele>
        <time>2013-02-17T14:38:18.000Z</time>
      </trkpt>
      <trkpt lat="47.39591" lon="0.0676">
        <ele>55</ele>
        <time>2013-02-17T14:38:24.000Z</time>
      </trkpt>
      <trkpt lat="47.3959" lon="0.06759">
        <ele>55</ele>
        <time>2013-02-17T14:38:25.000Z</time>
      </trkpt>
      <trkpt lat="47.39587" lon="0.06757">
        <ele>55</ele>
        <time>2013-02-17T14:38:28.000Z</time>
      </trkpt>
      <trkpt lat="47.39586" lon="0.06755">
        <ele>55</ele>
        <time>2013-02-17T14:38:29.000Z</time>
      </trkpt>
      <trkpt lat="47.39582" lon="0.06753">
        <ele>55</ele>
        <time>2013-02-17T14:38:32.000Z</time>
      </trkpt>
      <trkpt lat="47.39581" lon="0.06752">
        <ele>55</ele>
        <time>2013-02-17T14:38:33.000Z</time>
      </trkpt>
      <trkpt lat="47.39577" lon="0.06748">
        <ele>55</ele>
        <time>2013-02-17T14:38:40.000Z</time>
      </trkpt>
      <trkpt lat="47.39577" lon="0.06748">
        <ele>55</ele>
        <time>2013-02-17T14:38:41.000Z</time>
      </trkpt>
      <trkpt lat="47.39573" lon="0.06745">
        <ele>55</ele>
        <time>2013-02-17T14:38:45.000Z</time>
      </trkpt>
      <trkpt lat="47.39572" lon="0.06743">
        <ele>55</ele>
        <time>2013-02-17T14:38:46.000Z</time>
      </trkpt>
      <trkpt lat="47.39569" lon="0.0674">
        <ele>55</ele>
        <time>2013-02-17T14:38:50.000Z</time>
      </trkpt>
      <trkpt lat="47.39568" lon="0.06739">
        <ele>55</ele>
        <time>2013-02-17T14:38:51.000Z</time>
      </trkpt>
      <trkpt lat="47.39566" lon="0.06736">
        <ele>55</ele>
        <time>2013-02-17T14:38:56.000Z</time>
      </trkpt>
      <trkpt lat="47.39565" lon="0.06734">
        <ele>55</ele>
        <time>2013-02-17T14:38:57.000Z</time>
      </trkpt>
      <trkpt lat="47.39562" lon="0.06729">
        <ele>55</ele>
        <time>2013-02-17T14:39:00.000Z</time>
      </trkpt>
      <trkpt lat="47.39561" lon="0.06728">
        <ele>55</ele>
        <time>2013-02-17T14:39:01.000Z</time>
      </trkpt>
      <trkpt lat="47.3956" lon="0.06722">
        <ele>55</ele>
        <time>2013-02-17T14:39:14.000Z</time>
      </trkpt>
      <trkpt lat="47.39559" lon="0.06721">
        <ele>55</ele>
        <time>2013-02-17T14:39:15.000Z</time>
      </trkpt>
      <trkpt lat="47.39555" lon="0.0672">
        <ele>55</ele>
        <time>2013-02-17T14:39:21.000Z</time>
      </trkpt>
      <trkpt lat="47.39554" lon="0.0672">
        <ele>55</ele>
        <time>2013-02-17T14:39:22.000Z</time>
      </trkpt>
      <trkpt lat="47.3955" lon="0.0672">
        <ele>55</ele>
        <time>2013-02-17T14:40:15.000Z</time>
      </trkpt>
      <trkpt lat="47.39547" lon="0.06721">
        <ele>56</ele>
        <time>2013-02-17T14:40:16.000Z</time>
      </trkpt>
      <trkpt lat="47.39544" lon="0.06721">
        <ele>56</ele>
        <time>2013-02-17T14:40:21.000Z</time>
      </trkpt>
      <trkpt lat="47.39542" lon="0.06721">
        <ele>56</ele>
        <time>2013-02-17T14:40:22.000Z</time>
      </trkpt>
      <trkpt lat="47.39538" lon="0.06722">
        <ele>56</ele>
        <time>2013-02-17T14:40:24.000Z</time>
      </trkpt>
      <trkpt lat="47.39537" lon="0.06723">
        <ele>56</ele>
        <time>2013-02-17T14:40:25.000Z</time>
      </trkpt>
      <trkpt lat="47.39534" lon="0.06725">
        <ele>56</ele>
        <time>2013-02-17T14:40:27.000Z</time>
      </trkpt>
      <trkpt lat="47.39532" lon="0.06725">
        <ele>56</ele>
        <time>2013-02-17T14:40:28.000Z</time>
      </trkpt>
      <trkpt lat="47.39528" lon="0.06727">
        <ele>56</ele>
        <time>2013-02-17T14:40:36.000Z</time>
      </trkpt>
      <trkpt lat="47.39526" lon="0.06728">
        <ele>56</ele>
        <time>2013-02-17T14:40:37.000Z</time>
      </trkpt>
      <trkpt lat="47.39522" lon="0.06731">
        <ele>56</ele>
        <time>2013-02-17T14:40:39.000Z</time>
      </trkpt>
      <trkpt lat="47.39521" lon="0.06732">
        <ele>56</ele>
        <time>2013-02-17T14:40:40.000Z</time>
      </trkpt>
      <trkpt lat="47.39517" lon="0.06734">
        <ele>56</ele>
        <time>2013-02-17T14:40:42.000Z</time>
      </trkpt>
      <trkpt lat="47.39515" lon="0.06734">
        <ele>56</ele>
        <time>2013-02-17T14:40:43.000Z</time>
      </trkpt>
      <trkpt lat="47.39512" lon="0.06736">
        <ele>56</ele>
        <time>2013-02-17T14:40:45.000Z</time>
      </trkpt>
      <trkpt lat="47.3951" lon="0.06736">
        <ele>56</ele>
        <time>2013-02-17T14:40:46.000Z</time>
      </trkpt>
      <trkpt lat="47.39506" lon="0.06736">
        <ele>56</ele>
        <time>2013-02-17T14:40:49.000Z</time>
      </trkpt>
      <trkpt lat="47.39505" lon="0.06736">
        <ele>56</ele>
        <time>2013-02-17T14:40:50.000Z</time>
      </trkpt>
      <trkpt lat="47.39501" lon="0.06738">
        <ele>56</ele>
        <time>2013-02-17T14:40:53.000Z</time>
      </trkpt>
      <trkpt lat="47.395" lon="0.06739">
        <ele>57</ele>
        <time>2013-02-17T14:40:54.000Z</time>
      </trkpt>
      <trkpt lat="47.39496" lon="0.0674">
        <ele>57</ele>
        <time>2013-02-17T14:40:57.000Z</time>
      </trkpt>
      <trkpt lat="47.39495" lon="0.0674">
        <ele>57</ele>
        <time>2013-02-17T14:40:58.000Z</time>
      </trkpt>
      <trkpt lat="47.39491" lon="0.0674">
        <ele>57</ele>
        <time>2013-02-17T14:41:02.000Z</time>
      </trkpt>
      <trkpt lat="47.3949" lon="0.06741">
        <ele>57</ele>
        <time>2013-02-17T14:41:03.000Z</time>
      </trkpt>
      <trkpt lat="47.39486" lon="0.0674">
        <ele>57</ele>
        <time>2013-02-17T14:41:06.000Z</time>
      </trkpt>
      <trkpt lat="47.39485" lon="0.06741">
        <ele>57</ele>
        <time>2013-02-17T14:41:07.000Z</time>
      </trkpt>
      <trkpt lat="47.39481" lon="0.06741">
        <ele>57</ele>
        <time>2013-02-17T14:41:10.000Z</time>
      </trkpt>
      <trkpt lat="47.3948" lon="0.06741">
        <ele>57</ele>
        <time>2013-02-17T14:41:11.000Z</time>
      </trkpt>
      <trkpt lat="47.39476" lon="0.06743">
        <ele>57</ele>
        <time>2013-02-17T14:41:14.000Z</time>
      </trkpt>
      <trkpt lat="47.39474" lon="0.06743">
        <ele>57</ele>
        <time>2013-02-17T14:41:15.000Z</time>
      </trkpt>
      <trkpt lat="47.39471" lon="0.06744">
        <ele>57</ele>
        <time>2013-02-17T14:41:19.000Z</time>
      </trkpt>
      <trkpt lat="47.3947" lon="0.06745">
        <ele>57</ele>
        <time>2013-02-17T14:41:20.000Z</time>
      </trkpt>
      <trkpt lat="47.39466" lon="0.06745">
        <ele>57</ele>
        <time>2013-02-17T14:41:24.000Z</time>
      </trkpt>
      <trkpt lat="47.39465" lon="0.06746">
        <ele>57</ele>
        <time>2013-02-17T14:41:25.000Z</time>
      </trkpt>
      <trkpt lat="47.39462" lon="0.06747">
        <ele>57</ele>
        <time>2013-02-17T14:41:30.000Z</time>
      </trkpt>
      <trkpt lat="47.3946" lon="0.06748">
        <ele>57</ele>
        <time>2013-02-17T14:41:31.000Z</time>
      </trkpt>
      <trkpt lat="47.39457" lon="0.06749">
        <ele>57</ele>
        <time>2013-02-17T14:41:34.000Z</time>
      </trkpt>
      <trkpt lat="47.39455" lon="0.06749">
        <ele>57</ele>
        <time>2013-02-17T14:41:35.000Z</time>
      </trkpt>
      <trkpt lat="47.39451" lon="0.06751">
        <ele>57</ele>
        <time>2013-02-17T14:41:38.000Z</time>
      </trkpt>
      <trkpt lat="47.39451" lon="0.06752">
        <ele>57</ele>
        <time>2013-02-17T14:41:39.000Z</time>
      </trkpt>
      <trkpt lat="47.39447" lon="0.06754">
        <ele>57</ele>
        <time>2013-02-17T14:41:44.000Z</time>
      </trkpt>
      <trkpt lat="47.39446" lon="0.06754">
        <ele>57</ele>
        <time>2013-02-17T14:41:45.000Z</time>
      </trkpt>
      <trkpt lat="47.39443" lon="0.06753">
        <ele>57</ele>
        <time>2013-02-17T14:41:48.000Z</time>
      </trkpt>
      <trkpt lat="47.39441" lon="0.06753">
        <ele>57</ele>
        <time>2013-02-17T14:41:49.000Z</time>
      </trkpt>
      <trkpt lat="47.39437" lon="0.06754">
        <ele>57</ele>
        <time>2013-02-17T14:41:52.000Z</time>
      </trkpt>
      <trkpt lat="47.39436" lon="0.06754">
        <ele>57</ele>
        <time>2013-02-17T14:41:53.000Z</time>
      </trkpt>
      <trkpt lat="47.39431" lon="0.06753">
        <ele>57</ele>
        <time>2013-02-17T14:41:59.000Z</time>
      </trkpt>
      <trkpt lat="47.39431" lon="0.06753">
        <ele>57</ele>
        <time>2013-02-17T14:42:00.000Z</time>
      </trkpt>
      <trkpt lat="47.39427" lon="0.06751">
        <ele>57</ele>
        <time>2013-02-17T14:42:08.000Z</time>
      </trkpt>
      <trkpt lat="47.39425" lon="0.0675">
        <ele>57</ele>
        <time>2013-02-17T14:42:09.000Z</time>
      </trkpt>
      <trkpt lat="47.39421" lon="0.06748">
        <ele>57</ele>
        <time>2013-02-17T14:42:14.000Z</time>
      </trkpt>
      <trkpt lat="47.3942" lon="0.06748">
        <ele>57</ele>
        <time>2013-02-17T14:42:15.000Z</time>
      </trkpt>
      <trkpt lat="47.39415" lon="0.0675">
        <ele>57</ele>
        <time>2013-02-17T14:42:20.000Z</time>
      </trkpt>
      <trkpt lat="47.39414" lon="0.06751">
        <ele>57</ele>
        <time>2013-02-17T14:42:21.000Z</time>
      </trkpt>
      <trkpt lat="47.39411" lon="0.06751">
        <ele>57</ele>
        <time>2013-02-17T14:42:24.000Z</time>
      </trkpt>
      <trkpt lat="47.3941" lon="0.06752">
        <ele>57</ele>
        <time>2013-02-17T14:42:25.000Z</time>
      </trkpt>
      <trkpt lat="47.39406" lon="0.06753">
        <ele>57</ele>
        <time>2013-02-17T14:42:28.000Z</time>
      </trkpt>
      <trkpt lat="47.39405" lon="0.06753">
        <ele>57</ele>
        <time>2013-02-17T14:42:29.000Z</time>
      </trkpt>
      <trkpt lat="47.39401" lon="0.06753">
        <ele>57</ele>
        <time>2013-02-17T14:42:33.000Z</time>
      </trkpt>
      <trkpt lat="47.394" lon="0.06753">
        <ele>57</ele>
        <time>2013-02-17T14:42:34.000Z</time>
      </trkpt>
      <trkpt lat="47.39396" lon="0.06755">
        <ele>57</ele>
        <time>2013-02-17T14:42:38.000Z</time>
      </trkpt>
      <trkpt lat="47.39395" lon="0.06756">
        <ele>57</ele>
        <time>2013-02-17T14:42:39.000Z</time>
      </trkpt>
      <trkpt lat="47.39392" lon="0.06756">
        <ele>57</ele>
        <time>2013-02-17T14:42:42.000Z</time>
      </trkpt>
      <trkpt lat="47.39391" lon="0.06757">
        <ele>57</ele>
        <time>2013-02-17T14:42:43.000Z</time>
      </trkpt>
      <trkpt lat="47.39387" lon="0.06755">
        <ele>57</ele>
        <time>2013-02-17T14:42:47.000Z</time>
      </trkpt>
      <trkpt lat="47.39385" lon="0.06755">
        <ele>58</ele>
        <time>2013-02-17T14:42:48.000Z</time>
      </trkpt>
      <trkpt lat="47.39382" lon="0.06756">
        <ele>58</ele>
        <time>2013-02-17T14:42:52.000Z</time>
      </trkpt>
      <trkpt lat="47.3938" lon="0.06757">
        <ele>58</ele>
        <time>2013-02-17T14:42:53.000Z</time>
      </trkpt>
      <trkpt lat="47.39378" lon="0.06752">
        <ele>58</ele>
        <time>2013-02-17T14:42:59.000Z</time>
      </trkpt>
      <trkpt lat="47.39377" lon="0.06751">
        <ele>58</ele>
        <time>2013-02-17T14:43:00.000Z</time>
      </trkpt>
      <trkpt lat="47.39373" lon="0.06748">
        <ele>58</ele>
        <time>2013-02-17T14:43:07.000Z</time>
      </trkpt>
      <trkpt lat="47.39373" lon="0.06747">
        <ele>58</ele>
        <time>2013-02-17T14:43:08.000Z</time>
      </trkpt>
      <trkpt lat="47.39368" lon="0.06746">
        <ele>58</ele>
        <time>2013-02-17T14:43:11.000Z</time>
      </trkpt>
      <trkpt lat="47.39367" lon="0.06746">
        <ele>58</ele>
        <time>2013-02-17T14:43:12.000Z</time>
      </trkpt>
      <trkpt lat="47.39363" lon="0.06745">
        <ele>58</ele>
        <time>2013-02-17T14:43:14.000Z</time>
      </trkpt>
      <trkpt lat="47.39362" lon="0.06745">
        <ele>58</ele>
        <time>2013-02-17T14:43:15.000Z</time>
      </trkpt>
      <trkpt lat="47.39358" lon="0.06745">
        <ele>58</ele>
        <time>2013-02-17T14:43:18.000Z</time>
      </trkpt>
      <trkpt lat="47.39356" lon="0.06746">
        <ele>58</ele>
        <time>2013-02-17T14:43:19.000Z</time>
      </trkpt>
      <trkpt lat="47.39353" lon="0.06748">
        <ele>58</ele>
        <time>2013-02-17T14:43:22.000Z</time>
      </trkpt>
      <trkpt lat="47.39352" lon="0.06749">
        <ele>58</ele>
        <time>2013-02-17T14:43:23.000Z</time>
      </trkpt>
      <trkpt lat="47.39348" lon="0.06752">
        <ele>58</ele>
        <time>2013-02-17T14:43:28.000Z</time>
      </trkpt>
      <trkpt lat="47.39348" lon="0.06754">
        <ele>58</ele>
        <time>2013-02-17T14:43:29.000Z</time>
      </trkpt>
      <trkpt lat="47.39346" lon="0.06759">
        <ele>58</ele>
        <time>2013-02-17T14:43:33.000Z</time>
      </trkpt>
      <trkpt lat="47.39345" lon="0.0676">
        <ele>58</ele>
        <time>2013-02-17T14:43:34.000Z</time>
      </trkpt>
      <trkpt lat="47.39343" lon="0.06764">
        <ele>58</ele>
        <time>2013-02-17T14:43:37.000Z</time>
      </trkpt>
      <trkpt lat="47.39342" lon="0.06765">
        <ele>58</ele>
        <time>2013-02-17T14:43:38.000Z</time>
      </trkpt>
      <trkpt lat="47.39339" lon="0.0677">
        <ele>58</ele>
        <time>2013-02-17T14:43:41.000Z</time>
      </trkpt>
      <trkpt lat="47.39338" lon="0.06771">
        <ele>58</ele>
        <time>2013-02-17T14:43:42.000Z</time>
      </trkpt>
      <trkpt lat="47.39335" lon="0.06776">
        <ele>58</ele>
        <time>2013-02-17T14:43:46.000Z</time>
      </trkpt>
      <trkpt lat="47.39335" lon="0.06777">
        <ele>58</ele>
        <time>2013-02-17T14:43:47.000Z</time>
      </trkpt>
      <trkpt lat="47.39333" lon="0.06782">
        <ele>59</ele>
        <time>2013-02-17T14:43:51.000Z</time>
      </trkpt>
      <trkpt lat="47.39332" lon="0.06784">
        <ele>59</ele>
        <time>2013-02-17T14:43:52.000Z</time>
      </trkpt>
      <trkpt lat="47.39331" lon="0.0679">
        <ele>59</ele>
        <time>2013-02-17T14:43:55.000Z</time>
      </trkpt>
      <trkpt lat="47.39331" lon="0.06792">
        <ele>58</ele>
        <time>2013-02-17T14:43:56.000Z</time>
      </trkpt>
      <trkpt lat="47.3933" lon="0.06798">
        <ele>58</ele>
        <time>2013-02-17T14:44:00.000Z</time>
      </trkpt>
      <trkpt lat="47.3933" lon="0.06799">
        <ele>58</ele>
        <time>2013-02-17T14:44:01.000Z</time>
      </trkpt>
      <trkpt lat="47.39331" lon="0.06804">
        <ele>58</ele>
        <time>2013-02-17T14:44:09.000Z</time>
      </trkpt>
      <trkpt lat="47.39332" lon="0.06806">
        <ele>58</ele>
        <time>2013-02-17T14:44:10.000Z</time>
      </trkpt>
      <trkpt lat="47.39331" lon="0.06811">
        <ele>58</ele>
        <time>2013-02-17T14:44:13.000Z</time>
      </trkpt>
      <trkpt lat="47.39332" lon="0.06814">
        <ele>58</ele>
        <time>2013-02-17T14:44:14.000Z</time>
      </trkpt>
      <trkpt lat="47.39332" lon="0.06819">
        <ele>58</ele>
        <time>2013-02-17T14:44:17.000Z</time>
      </trkpt>
      <trkpt lat="47.39333" lon="0.06821">
        <ele>58</ele>
        <time>2013-02-17T14:44:18.000Z</time>
      </trkpt>
      <trkpt lat="47.39334" lon="0.06826">
        <ele>58</ele>
        <time>2013-02-17T14:44:21.000Z</time>
      </trkpt>
      <trkpt lat="47.39334" lon="0.06828">
        <ele>58</ele>
        <time>2013-02-17T14:44:22.000Z</time>
      </trkpt>
      <trkpt lat="47.39333" lon="0.06833">
        <ele>58</ele>
        <time>2013-02-17T14:44:25.000Z</time>
      </trkpt>
      <trkpt lat="47.39332" lon="0.06835">
        <ele>58</ele>
        <time>2013-02-17T14:44:26.000Z</time>
      </trkpt>
      <trkpt lat="47.3933" lon="0.06841">
        <ele>58</ele>
        <time>2013-02-17T14:44:30.000Z</time>
      </trkpt>
      <trkpt lat="47.3933" lon="0.06842">
        <ele>58</ele>
        <time>2013-02-17T14:44:31.000Z</time>
      </trkpt>
      <trkpt lat="47.39327" lon="0.06846">
        <ele>58</ele>
        <time>2013-02-17T14:44:34.000Z</time>
      </trkpt>
      <trkpt lat="47.39327" lon="0.06847">
        <ele>58</ele>
        <time>2013-02-17T14:44:35.000Z</time>
      </trkpt>
      <trkpt lat="47.39323" lon="0.06851">
        <ele>58</ele>
        <time>2013-02-17T14:44:41.000Z</time>
      </trkpt>
      <trkpt lat="47.39322" lon="0.06852">
        <ele>58</ele>
        <time>2013-02-17T14:44:42.000Z</time>
      </trkpt>
      <trkpt lat="47.3932" lon="0.06855">
        <ele>57</ele>
        <time>2013-02-17T14:44:44.000Z</time>
      </trkpt>
      <trkpt lat="47.39319" lon="0.06856">
        <ele>57</ele>
        <time>2013-02-17T14:44:45.000Z</time>
      </trkpt>
      <trkpt lat="47.39314" lon="0.06857">
        <ele>57</ele>
        <time>2013-02-17T14:44:49.000Z</time>
      </trkpt>
      <trkpt lat="47.39314" lon="0.06857">
        <ele>57</ele>
        <time>2013-02-17T14:44:50.000Z</time>
      </trkpt>
      <trkpt lat="47.3931" lon="0.06859">
        <ele>57</ele>
        <time>2013-02-17T14:44:54.000Z</time>
      </trkpt>
      <trkpt lat="47.39309" lon="0.06859">
        <ele>57</ele>
        <time>2013-02-17T14:44:55.000Z</time>
      </trkpt>
      <trkpt lat="47.39306" lon="0.0686">
        <ele>57</ele>
        <time>2013-02-17T14:45:06.000Z</time>
      </trkpt>
      <trkpt lat="47.39304" lon="0.06861">
        <ele>57</ele>
        <time>2013-02-17T14:45:07.000Z</time>
      </trkpt>
      <trkpt lat="47.393" lon="0.06862">
        <ele>57</ele>
        <time>2013-02-17T14:45:13.000Z</time>
      </trkpt>
      <trkpt lat="47.39299" lon="0.06863">
        <ele>57</ele>
        <time>2013-02-17T14:45:14.000Z</time>
      </trkpt>
      <trkpt lat="47.39296" lon="0.06864">
        <ele>57</ele>
        <time>2013-02-17T14:45:18.000Z</time>
      </trkpt>
      <trkpt lat="47.39294" lon="0.06865">
        <ele>57</ele>
        <time>2013-02-17T14:45:19.000Z</time>
      </trkpt>
      <trkpt lat="47.39291" lon="0.06865">
        <ele>57</ele>
        <time>2013-02-17T14:45:21.000Z</time>
      </trkpt>
      <trkpt lat="47.39289" lon="0.06865">
        <ele>57</ele>
        <time>2013-02-17T14:45:22.000Z</time>
      </trkpt>
      <trkpt lat="47.39285" lon="0.06866">
        <ele>57</ele>
        <time>2013-02-17T14:45:24.000Z</time>
      </trkpt>
      <trkpt lat="47.39284" lon="0.06867">
        <ele>57</ele>
        <time>2013-02-17T14:45:25.000Z</time>
      </trkpt>
      <trkpt lat="47.3928" lon="0.06869">
        <ele>57</ele>
        <time>2013-02-17T14:45:27.000Z</time>
      </trkpt>
      <trkpt lat="47.39279" lon="0.0687">
        <ele>57</ele>
        <time>2013-02-17T14:45:28.000Z</time>
      </trkpt>
      <trkpt lat="47.39274" lon="0.06872">
        <ele>57</ele>
        <time>2013-02-17T14:45:31.000Z</time>
      </trkpt>
      <trkpt lat="47.39273" lon="0.06872">
        <ele>57</ele>
        <time>2013-02-17T14:45:32.000Z</time>
      </trkpt>
      <trkpt lat="47.39269" lon="0.06873">
        <ele>57</ele>
        <time>2013-02-17T14:45:36.000Z</time>
      </trkpt>
      <trkpt lat="47.39268" lon="0.06873">
        <ele>57</ele>
        <time>2013-02-17T14:45:37.000Z</time>
      </trkpt>
      <trkpt lat="47.39265" lon="0.06875">
        <ele>57</ele>
        <time>2013-02-17T14:45:41.000Z</time>
      </trkpt>
      <trkpt lat="47.39263" lon="0.06875">
        <ele>57</ele>
        <time>2013-02-17T14:45:42.000Z</time>
      </trkpt>
      <trkpt lat="47.3926" lon="0.06877">
        <ele>57</ele>
        <time>2013-02-17T14:45:44.000Z</time>
      </trkpt>
      <trkpt lat="47.39259" lon="0.06879">
        <ele>57</ele>
        <time>2013-02-17T14:45:45.000Z</time>
      </trkpt>
      <trkpt lat="47.39255" lon="0.0688">
        <ele>57</ele>
        <time>2013-02-17T14:45:49.000Z</time>
      </trkpt>
      <trkpt lat="47.39254" lon="0.0688">
        <ele>57</ele>
        <time>2013-02-17T14:45:50.000Z</time>
      </trkpt>
      <trkpt lat="47.3925" lon="0.06882">
        <ele>58</ele>
        <time>2013-02-17T14:45:54.000Z</time>
      </trkpt>
      <trkpt lat="47.39248" lon="0.06884">
        <ele>58</ele>
        <time>2013-02-17T14:45:55.000Z</time>
      </trkpt>
      <trkpt lat="47.39245" lon="0.06887">
        <ele>58</ele>
        <time>2013-02-17T14:45:58.000Z</time>
      </trkpt>
      <trkpt lat="47.39244" lon="0.06888">
        <ele>58</ele>
        <time>2013-02-17T14:45:59.000Z</time>
      </trkpt>
      <trkpt lat="47.3924" lon="0.06891">
        <ele>58</ele>
        <time>2013-02-17T14:46:03.000Z</time>
      </trkpt>
      <trkpt lat="47.39238" lon="0.06893">
        <ele>58</ele>
        <time>2013-02-17T14:46:04.000Z</time>
      </trkpt>
      <trkpt lat="47.39235" lon="0.06896">
        <ele>58</ele>
        <time>2013-02-17T14:46:07.000Z</time>
      </trkpt>
      <trkpt lat="47.39234" lon="0.06896">
        <ele>58</ele>
        <time>2013-02-17T14:46:08.000Z</time>
      </trkpt>
      <trkpt lat="47.39231" lon="0.06898">
        <ele>58</ele>
        <time>2013-02-17T14:46:11.000Z</time>
      </trkpt>
      <trkpt lat="47.3923" lon="0.06899">
        <ele>58</ele>
        <time>2013-02-17T14:46:12.000Z</time>
      </trkpt>
      <trkpt lat="47.39226" lon="0.069">
        <ele>58</ele>
        <time>2013-02-17T14:46:17.000Z</time>
      </trkpt>
      <trkpt lat="47.39225" lon="0.069">
        <ele>59</ele>
        <time>2013-02-17T14:46:18.000Z</time>
      </trkpt>
      <trkpt lat="47.39222" lon="0.06902">
        <ele>59</ele>
        <time>2013-02-17T14:46:22.000Z</time>
      </trkpt>
      <trkpt lat="47.3922" lon="0.06902">
        <ele>59</ele>
        <time>2013-02-17T14:46:23.000Z</time>
      </trkpt>
      <trkpt lat="47.39216" lon="0.06901">
        <ele>59</ele>
        <time>2013-02-17T14:46:26.000Z</time>
      </trkpt>
      <trkpt lat="47.39215" lon="0.069">
        <ele>59</ele>
        <time>2013-02-17T14:46:27.000Z</time>
      </trkpt>
      <trkpt lat="47.39212" lon="0.06898">
        <ele>59</ele>
        <time>2013-02-17T14:46:30.000Z</time>
      </trkpt>
      <trkpt lat="47.39211" lon="0.06897">
        <ele>59</ele>
        <time>2013-02-17T14:46:31.000Z</time>
      </trkpt>
      <trkpt lat="47.39207" lon="0.06896">
        <ele>59</ele>
        <time>2013-02-17T14:46:34.000Z</time>
      </trkpt>
      <trkpt lat="47.39206" lon="0.06896">
        <ele>59</ele>
        <time>2013-02-17T14:46:35.000Z</time>
      </trkpt>
      <trkpt lat="47.39202" lon="0.06896">
        <ele>59</ele>
        <time>2013-02-17T14:46:38.000Z</time>
      </trkpt>
      <trkpt lat="47.39201" lon="0.06895">
        <ele>59</ele>
        <time>2013-02-17T14:46:39.000Z</time>
      </trkpt>
      <trkpt lat="47.39198" lon="0.0689">
        <ele>59</ele>
        <time>2013-02-17T14:46:43.000Z</time>
      </trkpt>
      <trkpt lat="47.39197" lon="0.06889">
        <ele>59</ele>
        <time>2013-02-17T14:46:44.000Z</time>
      </trkpt>
      <trkpt lat="47.39195" lon="0.06884">
        <ele>59</ele>
        <time>2013-02-17T14:46:49.000Z</time>
      </trkpt>
      <trkpt lat="47.39195" lon="0.06882">
        <ele>59</ele>
        <time>2013-02-17T14:46:50.000Z</time>
      </trkpt>
      <trkpt lat="47.39192" lon="0.06879">
        <ele>59</ele>
        <time>2013-02-17T14:46:54.000Z</time>
      </trkpt>
      <trkpt lat="47.39191" lon="0.06878">
        <ele>59</ele>
        <time>2013-02-17T14:46:55.000Z</time>
      </trkpt>
      <trkpt lat="47.39187" lon="0.06876">
        <ele>59</ele>
        <time>2013-02-17T14:47:00.000Z</time>
      </trkpt>
      <trkpt lat="47.39186" lon="0.06875">
        <ele>59</ele>
        <time>2013-02-17T14:47:01.000Z</time>
      </trkpt>
      <trkpt lat="47.39182" lon="0.06874">
        <ele>59</ele>
        <time>2013-02-17T14:47:04.000Z</time>
      </trkpt>
      <trkpt lat="47.39181" lon="0.06874">
        <ele>59</ele>
        <time>2013-02-17T14:47:05.000Z</time>
      </trkpt>
      <trkpt lat="47.39177" lon="0.06874">
        <ele>59</ele>
        <time>2013-02-17T14:47:09.000Z</time>
      </trkpt>
      <trkpt lat="47.39176" lon="0.06874">
        <ele>59</ele>
        <time>2013-02-17T14:47:10.000Z</time>
      </trkpt>
      <trkpt lat="47.39172" lon="0.06874">
        <ele>60</ele>
        <time>2013-02-17T14:47:13.000Z</time>
      </trkpt>
      <trkpt lat="47.3917" lon="0.06874">
        <ele>60</ele>
        <time>2013-02-17T14:47:14.000Z</time>
      </trkpt>
      <trkpt lat="47.39166" lon="0.06874">
        <ele>60</ele>
        <time>2013-02-17T14:47:17.000Z</time>
      </trkpt>
      <trkpt lat="47.39164" lon="0.06874">
        <ele>60</ele>
        <time>2013-02-17T14:47:18.000Z</time>
      </trkpt>
      <trkpt lat="47.39161" lon="0.06873">
        <ele>60</ele>
        <time>2013-02-17T14:47:21.000Z</time>
      </trkpt>
      <trkpt lat="47.3916" lon="0.06873">
        <ele>60</ele>
        <time>2013-02-17T14:47:22.000Z</time>
      </trkpt>
      <trkpt lat="47.39156" lon="0.06874">
        <ele>59</ele>
        <time>2013-02-17T14:47:24.000Z</time>
      </trkpt>
      <trkpt lat="47.39155" lon="0.06874">
        <ele>59</ele>
        <time>2013-02-17T14:47:25.000Z</time>
      </trkpt>
      <trkpt lat="47.39151" lon="0.06872">
        <ele>59</ele>
        <time>2013-02-17T14:47:30.000Z</time>
      </trkpt>
      <trkpt lat="47.3915" lon="0.06871">
        <ele>59</ele>
        <time>2013-02-17T14:47:31.000Z</time>
      </trkpt>
      <trkpt lat="47.39147" lon="0.0687">
        <ele>59</ele>
        <time>2013-02-17T14:47:34.000Z</time>
      </trkpt>
      <trkpt lat="47.39146" lon="0.06869">
        <ele>59</ele>
        <time>2013-02-17T14:47:35.000Z</time>
      </trkpt>
      <trkpt lat="47.39142" lon="0.06866">
        <ele>59</ele>
        <time>2013-02-17T14:47:39.000Z</time>
      </trkpt>
      <trkpt lat="47.39141" lon="0.06865">
        <ele>59</ele>
        <time>2013-02-17T14:47:40.000Z</time>
      </trkpt>
      <trkpt lat="47.39138" lon="0.06864">
        <ele>59</ele>
        <time>2013-02-17T14:47:42.000Z</time>
      </trkpt>
      <trkpt lat="47.39137" lon="0.06862">
        <ele>59</ele>
        <time>2013-02-17T14:47:43.000Z</time>
      </trkpt>
      <trkpt lat="47.39133" lon="0.06859">
        <ele>59</ele>
        <time>2013-02-17T14:47:46.000Z</time>
      </trkpt>
      <trkpt lat="47.39132" lon="0.0686">
        <ele>59</ele>
        <time>2013-02-17T14:47:47.000Z</time>
      </trkpt>
      <trkpt lat="47.39128" lon="0.06858">
        <ele>59</ele>
        <time>2013-02-17T14:47:54.000Z</time>
      </trkpt>
      <trkpt lat="47.39126" lon="0.06858">
        <ele>59</ele>
        <time>2013-02-17T14:47:55.000Z</time>
      </trkpt>
      <trkpt lat="47.39123" lon="0.06857">
        <ele>59</ele>
        <time>2013-02-17T14:47:57.000Z</time>
      </trkpt>
      <trkpt lat="47.39122" lon="0.06856">
        <ele>59</ele>
        <time>2013-02-17T14:47:58.000Z</time>
      </trkpt>
      <trkpt lat="47.39118" lon="0.06854">
        <ele>59</ele>
        <time>2013-02-17T14:48:01.000Z</time>
      </trkpt>
      <trkpt lat="47.39117" lon="0.06854">
        <ele>59</ele>
        <time>2013-02-17T14:48:02.000Z</time>
      </trkpt>
      <trkpt lat="47.39114" lon="0.06852">
        <ele>59</ele>
        <time>2013-02-17T14:48:05.000Z</time>
      </trkpt>
      <trkpt lat="47.39113" lon="0.06852">
        <ele>59</ele>
        <time>2013-02-17T14:48:06.000Z</time>
      </trkpt>
      <trkpt lat="47.39109" lon="0.06849">
        <ele>59</ele>
        <time>2013-02-17T14:48:09.000Z</time>
      </trkpt>
      <trkpt lat="47.39108" lon="0.06848">
        <ele>59</ele>
        <time>2013-02-17T14:48:10.000Z</time>
      </trkpt>
      <trkpt lat="47.39105" lon="0.06846">
        <ele>59</ele>
        <time>2013-02-17T14:48:13.000Z</time>
      </trkpt>
      <trkpt lat="47.39104" lon="0.06845">
        <ele>59</ele>
        <time>2013-02-17T14:48:14.000Z</time>
      </trkpt>
      <trkpt lat="47.391" lon="0.06844">
        <ele>59</ele>
        <time>2013-02-17T14:48:18.000Z</time>
      </trkpt>
      <trkpt lat="47.39099" lon="0.06843">
        <ele>59</ele>
        <time>2013-02-17T14:48:19.000Z</time>
      </trkpt>
      <trkpt lat="47.39095" lon="0.06842">
        <ele>58</ele>
        <time>2013-02-17T14:48:23.000Z</time>
      </trkpt>
      <trkpt lat="47.39094" lon="0.06842">
        <ele>58</ele>
        <time>2013-02-17T14:48:24.000Z</time>
      </trkpt>
      <trkpt lat="47.39091" lon="0.06841">
        <ele>58</ele>
        <time>2013-02-17T14:48:28.000Z</time>
      </trkpt>
      <trkpt lat="47.39089" lon="0.06841">
        <ele>58</ele>
        <time>2013-02-17T14:48:29.000Z</time>
      </trkpt>
      <trkpt lat="47.39086" lon="0.06839">
        <ele>58</ele>
        <time>2013-02-17T14:48:32.000Z</time>
      </trkpt>
      <trkpt lat="47.39085" lon="0.06838">
        <ele>58</ele>
        <time>2013-02-17T14:48:33.000Z</time>
      </trkpt>
      <trkpt lat="47.39081" lon="0.06837">
        <ele>58</ele>
        <time>2013-02-17T14:48:36.000Z</time>
      </trkpt>
      <trkpt lat="47.3908" lon="0.06836">
        <ele>58</ele>
        <time>2013-02-17T14:48:37.000Z</time>
      </trkpt>
      <trkpt lat="47.39077" lon="0.06834">
        <ele>58</ele>
        <time>2013-02-17T14:48:40.000Z</time>
      </trkpt>
      <trkpt lat="47.39075" lon="0.06833">
        <ele>58</ele>
        <time>2013-02-17T14:48:41.000Z</time>
      </trkpt>
      <trkpt lat="47.39071" lon="0.06832">
        <ele>58</ele>
        <time>2013-02-17T14:48:44.000Z</time>
      </trkpt>
      <trkpt lat="47.3907" lon="0.06831">
        <ele>58</ele>
        <time>2013-02-17T14:48:45.000Z</time>
      </trkpt>
      <trkpt lat="47.39066" lon="0.06829">
        <ele>58</ele>
        <time>2013-02-17T14:48:48.000Z</time>
      </trkpt>
      <trkpt lat="47.39065" lon="0.06828">
        <ele>58</ele>
        <time>2013-02-17T14:48:49.000Z</time>
      </trkpt>
      <trkpt lat="47.39061" lon="0.06827">
        <ele>58</ele>
        <time>2013-02-17T14:48:55.000Z</time>
      </trkpt>
      <trkpt lat="47.3906" lon="0.06826">
        <ele>58</ele>
        <time>2013-02-17T14:48:56.000Z</time>
      </trkpt>
      <trkpt lat="47.39056" lon="0.06824">
        <ele>58</ele>
        <time>2013-02-17T14:49:01.000Z</time>
      </trkpt>
      <trkpt lat="47.39055" lon="0.06824">
        <ele>58</ele>
        <time>2013-02-17T14:49:02.000Z</time>
      </trkpt>
      <trkpt lat="47.39052" lon="0.06818">
        <ele>58</ele>
        <time>2013-02-17T14:49:06.000Z</time>
      </trkpt>
      <trkpt lat="47.39052" lon="0.06817">
        <ele>58</ele>
        <time>2013-02-17T14:49:07.000Z</time>
      </trkpt>
      <trkpt lat="47.39049" lon="0.06818">
        <ele>58</ele>
        <time>2013-02-17T14:49:12.000Z</time>
      </trkpt>
      <trkpt lat="47.39047" lon="0.06817">
        <ele>58</ele>
        <time>2013-02-17T14:49:13.000Z</time>
      </trkpt>
      <trkpt lat="47.39044" lon="0.06814">
        <ele>58</ele>
        <time>2013-02-17T14:49:16.000Z</time>
      </trkpt>
      <trkpt lat="47.39044" lon="0.06812">
        <ele>58</ele>
        <time>2013-02-17T14:49:17.000Z</time>
      </trkpt>
      <trkpt lat="47.3904" lon="0.0681">
        <ele>58</ele>
        <time>2013-02-17T14:49:22.000Z</time>
      </trkpt>
      <trkpt lat="47.39039" lon="0.06809">
        <ele>58</ele>
        <time>2013-02-17T14:49:23.000Z</time>
      </trkpt>
      <trkpt lat="47.39036" lon="0.06807">
        <ele>58</ele>
        <time>2013-02-17T14:49:28.000Z</time>
      </trkpt>
      <trkpt lat="47.39035" lon="0.06807">
        <ele>58</ele>
        <time>2013-02-17T14:49:29.000Z</time>
      </trkpt>
      <trkpt lat="47.39031" lon="0.06805">
        <ele>58</ele>
        <time>2013-02-17T14:49:32.000Z</time>
      </trkpt>
      <trkpt lat="47.3903" lon="0.06804">
        <ele>58</ele>
        <time>2013-02-17T14:49:33.000Z</time>
      </trkpt>
      <trkpt lat="47.39027" lon="0.06801">
        <ele>58</ele>
        <time>2013-02-17T14:49:36.000Z</time>
      </trkpt>
      <trkpt lat="47.39026" lon="0.06801">
        <ele>58</ele>
        <time>2013-02-17T14:49:37.000Z</time>
      </trkpt>
      <trkpt lat="47.39022" lon="0.06799">
        <ele>58</ele>
        <time>2013-02-17T14:49:41.000Z</time>
      </trkpt>
      <trkpt lat="47.39021" lon="0.06798">
        <ele>58</ele>
        <time>2013-02-17T14:49:42.000Z</time>
      </trkpt>
      <trkpt lat="47.39018" lon="0.06796">
        <ele>58</ele>
        <time>2013-02-17T14:49:47.000Z</time>
      </trkpt>
      <trkpt lat="47.39017" lon="0.06795">
        <ele>58</ele>
        <time>2013-02-17T14:49:48.000Z</time>
      </trkpt>
      <trkpt lat="47.39013" lon="0.06796">
        <ele>58</ele>
        <time>2013-02-17T14:50:22.000Z</time>
      </trkpt>
      <trkpt lat="47.39012" lon="0.06796">
        <ele>58</ele>
        <time>2013-02-17T14:50:23.000Z</time>
      </trkpt>
      <trkpt lat="47.39013" lon="0.06803">
        <ele>58</ele>
        <time>2013-02-17T14:50:37.000Z</time>
      </trkpt>
      <trkpt lat="47.39014" lon="0.06803">
        <ele>58</ele>
        <time>2013-02-17T14:50:38.000Z</time>
      </trkpt>
      <trkpt lat="47.39016" lon="0.06798">
        <ele>58</ele>
        <time>2013-02-17T14:52:44.000Z</time>
      </trkpt>
      <trkpt lat="47.39016" lon="0.06798">
        <ele>58</ele>
        <time>2013-02-17T14:52:45.000Z</time>
      </trkpt>
      <trkpt lat="47.39016" lon="0.06791">
        <ele>58</ele>
        <time>2013-02-17T14:53:55.000Z</time>
      </trkpt>
      <trkpt lat="47.39016" lon="0.0679">
        <ele>58</ele>
        <time>2013-02-17T14:53:56.000Z</time>
      </trkpt>
      <trkpt lat="47.39018" lon="0.06784">
        <ele>58</ele>
        <time>2013-02-17T14:54:01.000Z</time>
      </trkpt>
      <trkpt lat="47.39019" lon="0.06783">
        <ele>58</ele>
        <time>2013-02-17T14:54:02.000Z</time>
      </trkpt>
      <trkpt lat="47.39021" lon="0.06777">
        <ele>58</ele>
        <time>2013-02-17T14:54:07.000Z</time>
      </trkpt>
      <trkpt lat="47.39021" lon="0.06775">
        <ele>58</ele>
        <time>2013-02-17T14:54:08.000Z</time>
      </trkpt>
      <trkpt lat="47.39021" lon="0.06771">
        <ele>58</ele>
        <time>2013-02-17T14:54:11.000Z</time>
      </trkpt>
      <trkpt lat="47.39022" lon="0.06769">
        <ele>58</ele>
        <time>2013-02-17T14:54:12.000Z</time>
      </trkpt>
      <trkpt lat="47.39022" lon="0.06763">
        <ele>58</ele>
        <time>2013-02-17T14:54:15.000Z</time>
      </trkpt>
      <trkpt lat="47.39023" lon="0.06761">
        <ele>58</ele>
        <time>2013-02-17T14:54:16.000Z</time>
      </trkpt>
      <trkpt lat="47.39024" lon="0.06755">
        <ele>58</ele>
        <time>2013-02-17T14:54:19.000Z</time>
      </trkpt>
      <trkpt lat="47.39024" lon="0.06754">
        <ele>58</ele>
        <time>2013-02-17T14:54:20.000Z</time>
      </trkpt>
      <trkpt lat="47.39024" lon="0.06748">
        <ele>58</ele>
        <time>2013-02-17T14:54:23.000Z</time>
      </trkpt>
      <trkpt lat="47.39024" lon="0.06747">
        <ele>58</ele>
        <time>2013-02-17T14:54:24.000Z</time>
      </trkpt>
      <trkpt lat="47.39025" lon="0.06741">
        <ele>58</ele>
        <time>2013-02-17T14:54:32.000Z</time>
      </trkpt>
      <trkpt lat="47.39025" lon="0.0674">
        <ele>58</ele>
        <time>2013-02-17T14:54:33.000Z</time>
      </trkpt>
      <trkpt lat="47.39026" lon="0.06735">
        <ele>58</ele>
        <time>2013-02-17T14:54:36.000Z</time>
      </trkpt>
      <trkpt lat="47.39026" lon="0.06733">
        <ele>58</ele>
        <time>2013-02-17T14:54:37.000Z</time>
      </trkpt>
      <trkpt lat="47.39027" lon="0.06727">
        <ele>58</ele>
        <time>2013-02-17T14:54:40.000Z</time>
      </trkpt>
      <trkpt lat="47.39027" lon="0.06726">
        <ele>58</ele>
        <time>2013-02-17T14:54:41.000Z</time>
      </trkpt>
      <trkpt lat="47.39027" lon="0.06721">
        <ele>58</ele>
        <time>2013-02-17T14:54:44.000Z</time>
      </trkpt>
      <trkpt lat="47.39028" lon="0.06719">
        <ele>58</ele>
        <time>2013-02-17T14:54:45.000Z</time>
      </trkpt>
      <trkpt lat="47.39029" lon="0.06713">
        <ele>58</ele>
        <time>2013-02-17T14:54:48.000Z</time>
      </trkpt>
      <trkpt lat="47.39029" lon="0.06711">
        <ele>58</ele>
        <time>2013-02-17T14:54:49.000Z</time>
      </trkpt>
      <trkpt lat="47.3903" lon="0.06705">
        <ele>57</ele>
        <time>2013-02-17T14:54:53.000Z</time>
      </trkpt>
      <trkpt lat="47.39031" lon="0.06702">
        <ele>57</ele>
        <time>2013-02-17T14:54:54.000Z</time>
      </trkpt>
      <trkpt lat="47.39031" lon="0.06697">
        <ele>57</ele>
        <time>2013-02-17T14:54:57.000Z</time>
      </trkpt>
      <trkpt lat="47.39032" lon="0.06695">
        <ele>57</ele>
        <time>2013-02-17T14:54:58.000Z</time>
      </trkpt>
      <trkpt lat="47.39033" lon="0.0669">
        <ele>57</ele>
        <time>2013-02-17T14:55:01.000Z</time>
      </trkpt>
      <trkpt lat="47.39034" lon="0.06689">
        <ele>57</ele>
        <time>2013-02-17T14:55:02.000Z</time>
      </trkpt>
      <trkpt lat="47.39036" lon="0.06683">
        <ele>57</ele>
        <time>2013-02-17T14:55:06.000Z</time>
      </trkpt>
      <trkpt lat="47.39037" lon="0.06681">
        <ele>57</ele>
        <time>2013-02-17T14:55:07.000Z</time>
      </trkpt>
      <trkpt lat="47.39039" lon="0.06676">
        <ele>57</ele>
        <time>2013-02-17T14:55:10.000Z</time>
      </trkpt>
      <trkpt lat="47.3904" lon="0.06674">
        <ele>57</ele>
        <time>2013-02-17T14:55:11.000Z</time>
      </trkpt>
      <trkpt lat="47.39041" lon="0.0667">
        <ele>57</ele>
        <time>2013-02-17T14:55:14.000Z</time>
      </trkpt>
      <trkpt lat="47.39042" lon="0.06668">
        <ele>57</ele>
        <time>2013-02-17T14:55:15.000Z</time>
      </trkpt>
      <trkpt lat="47.39044" lon="0.06664">
        <ele>58</ele>
        <time>2013-02-17T14:55:19.000Z</time>
      </trkpt>
      <trkpt lat="47.39044" lon="0.06662">
        <ele>58</ele>
        <time>2013-02-17T14:55:20.000Z</time>
      </trkpt>
      <trkpt lat="47.39046" lon="0.06657">
        <ele>58</ele>
        <time>2013-02-17T14:55:24.000Z</time>
      </trkpt>
      <trkpt lat="47.39046" lon="0.06656">
        <ele>58</ele>
        <time>2013-02-17T14:55:25.000Z</time>
      </trkpt>
      <trkpt lat="47.39047" lon="0.0665">
        <ele>58</ele>
        <time>2013-02-17T14:55:30.000Z</time>
      </trkpt>
      <trkpt lat="47.39047" lon="0.06649">
        <ele>58</ele>
        <time>2013-02-17T14:55:31.000Z</time>
      </trkpt>
      <trkpt lat="47.39049" lon="0.06645">
        <ele>58</ele>
        <time>2013-02-17T14:55:34.000Z</time>
      </trkpt>
      <trkpt lat="47.3905" lon="0.06643">
        <ele>58</ele>
        <time>2013-02-17T14:55:35.000Z</time>
      </trkpt>
      <trkpt lat="47.39051" lon="0.06637">
        <ele>58</ele>
        <time>2013-02-17T14:55:39.000Z</time>
      </trkpt>
      <trkpt lat="47.39052" lon="0.06636">
        <ele>58</ele>
        <time>2013-02-17T14:55:40.000Z</time>
      </trkpt>
      <trkpt lat="47.39053" lon="0.06631">
        <ele>58</ele>
        <time>2013-02-17T14:55:43.000Z</time>
      </trkpt>
      <trkpt lat="47.39054" lon="0.06629">
        <ele>58</ele>
        <time>2013-02-17T14:55:44.000Z</time>
      </trkpt>
      <trkpt lat="47.39056" lon="0.06624">
        <ele>58</ele>
        <time>2013-02-17T14:55:48.000Z</time>
      </trkpt>
      <trkpt lat="47.39056" lon="0.06623">
        <ele>58</ele>
        <time>2013-02-17T14:55:49.000Z</time>
      </trkpt>
      <trkpt lat="47.39057" lon="0.06618">
        <ele>58</ele>
        <time>2013-02-17T14:55:53.000Z</time>
      </trkpt>
      <trkpt lat="47.39057" lon="0.06616">
        <ele>58</ele>
        <time>2013-02-17T14:55:54.000Z</time>
      </trkpt>
      <trkpt lat="47.39058" lon="0.0661">
        <ele>58</ele>
        <time>2013-02-17T14:55:57.000Z</time>
      </trkpt>
      <trkpt lat="47.39058" lon="0.06609">
        <ele>58</ele>
        <time>2013-02-17T14:55:58.000Z</time>
      </trkpt>
      <trkpt lat="47.39059" lon="0.06603">
        <ele>58</ele>
        <time>2013-02-17T14:56:02.000Z</time>
      </trkpt>
      <trkpt lat="47.3906" lon="0.06602">
        <ele>58</ele>
        <time>2013-02-17T14:56:03.000Z</time>
      </trkpt>
      <trkpt lat="47.39061" lon="0.06597">
        <ele>58</ele>
        <time>2013-02-17T14:56:06.000Z</time>
      </trkpt>
      <trkpt lat="47.39062" lon="0.06595">
        <ele>58</ele>
        <time>2013-02-17T14:56:07.000Z</time>
      </trkpt>
      <trkpt lat="47.39063" lon="0.0659">
        <ele>58</ele>
        <time>2013-02-17T14:56:12.000Z</time>
      </trkpt>
      <trkpt lat="47.39064" lon="0.06588">
        <ele>58</ele>
        <time>2013-02-17T14:56:13.000Z</time>
      </trkpt>
      <trkpt lat="47.39065" lon="0.06582">
        <ele>58</ele>
        <time>2013-02-17T14:56:17.000Z</time>
      </trkpt>
      <trkpt lat="47.39065" lon="0.0658">
        <ele>58</ele>
        <time>2013-02-17T14:56:18.000Z</time>
      </trkpt>
      <trkpt lat="47.39066" lon="0.06575">
        <ele>58</ele>
        <time>2013-02-17T14:56:21.000Z</time>
      </trkpt>
      <trkpt lat="47.39067" lon="0.06573">
        <ele>58</ele>
        <time>2013-02-17T14:56:22.000Z</time>
      </trkpt>
      <trkpt lat="47.39068" lon="0.06568">
        <ele>58</ele>
        <time>2013-02-17T14:56:25.000Z</time>
      </trkpt>
      <trkpt lat="47.39068" lon="0.06567">
        <ele>58</ele>
        <time>2013-02-17T14:56:26.000Z</time>
      </trkpt>
      <trkpt lat="47.3907" lon="0.06562">
        <ele>58</ele>
        <time>2013-02-17T14:56:29.000Z</time>
      </trkpt>
      <trkpt lat="47.39071" lon="0.0656">
        <ele>58</ele>
        <time>2013-02-17T14:56:30.000Z</time>
      </trkpt>
      <trkpt lat="47.39072" lon="0.06555">
        <ele>58</ele>
        <time>2013-02-17T14:56:35.000Z</time>
      </trkpt>
      <trkpt lat="47.39073" lon="0.06554">
        <ele>58</ele>
        <time>2013-02-17T14:56:36.000Z</time>
      </trkpt>
      <trkpt lat="47.39074" lon="0.06548">
        <ele>58</ele>
        <time>2013-02-17T14:56:39.000Z</time>
      </trkpt>
      <trkpt lat="47.39074" lon="0.06547">
        <ele>58</ele>
        <time>2013-02-17T14:56:40.000Z</time>
      </trkpt>
      <trkpt lat="47.39071" lon="0.06542">
        <ele>58</ele>
        <time>2013-02-17T14:57:02.000Z</time>
      </trkpt>
      <trkpt lat="47.3907" lon="0.06543">
        <ele>58</ele>
        <time>2013-02-17T14:57:03.000Z</time>
      </trkpt>
      <trkpt lat="47.39067" lon="0.0654">
        <ele>58</ele>
        <time>2013-02-17T14:57:06.000Z</time>
      </trkpt>
      <trkpt lat="47.39066" lon="0.06539">
        <ele>58</ele>
        <time>2013-02-17T14:57:07.000Z</time>
      </trkpt>
      <trkpt lat="47.39062" lon="0.06537">
        <ele>58</ele>
        <time>2013-02-17T14:57:10.000Z</time>
      </trkpt>
      <trkpt lat="47.39062" lon="0.06536">
        <ele>58</ele>
        <time>2013-02-17T14:57:11.000Z</time>
      </trkpt>
      <trkpt lat="47.39059" lon="0.0653">
        <ele>57</ele>
        <time>2013-02-17T14:57:16.000Z</time>
      </trkpt>
      <trkpt lat="47.39059" lon="0.0653">
        <ele>57</ele>
        <time>2013-02-17T14:57:17.000Z</time>
      </trkpt>
      <trkpt lat="47.39057" lon="0.06525">
        <ele>57</ele>
        <time>2013-02-17T14:57:20.000Z</time>
      </trkpt>
      <trkpt lat="47.39056" lon="0.06523">
        <ele>57</ele>
        <time>2013-02-17T14:57:21.000Z</time>
      </trkpt>
      <trkpt lat="47.39053" lon="0.0652">
        <ele>57</ele>
        <time>2013-02-17T14:57:27.000Z</time>
      </trkpt>
      <trkpt lat="47.39052" lon="0.06519">
        <ele>57</ele>
        <time>2013-02-17T14:57:28.000Z</time>
      </trkpt>
      <trkpt lat="47.39048" lon="0.06519">
        <ele>57</ele>
        <time>2013-02-17T14:57:31.000Z</time>
      </trkpt>
      <trkpt lat="47.39047" lon="0.06518">
        <ele>57</ele>
        <time>2013-02-17T14:57:32.000Z</time>
      </trkpt>
      <trkpt lat="47.39043" lon="0.06516">
        <ele>57</ele>
        <time>2013-02-17T14:57:36.000Z</time>
      </trkpt>
      <trkpt lat="47.39042" lon="0.06515">
        <ele>57</ele>
        <time>2013-02-17T14:57:37.000Z</time>
      </trkpt>
      <trkpt lat="47.39038" lon="0.06513">
        <ele>57</ele>
        <time>2013-02-17T14:57:40.000Z</time>
      </trkpt>
      <trkpt lat="47.39037" lon="0.06513">
        <ele>57</ele>
        <time>2013-02-17T14:57:41.000Z</time>
      </trkpt>
      <trkpt lat="47.39033" lon="0.06512">
        <ele>57</ele>
        <time>2013-02-17T14:57:44.000Z</time>
      </trkpt>
      <trkpt lat="47.39031" lon="0.06511">
        <ele>57</ele>
        <time>2013-02-17T14:57:45.000Z</time>
      </trkpt>
      <trkpt lat="47.39028" lon="0.06509">
        <ele>57</ele>
        <time>2013-02-17T14:57:48.000Z</time>
      </trkpt>
      <trkpt lat="47.39027" lon="0.06509">
        <ele>57</ele>
        <time>2013-02-17T14:57:49.000Z</time>
      </trkpt>
      <trkpt lat="47.39023" lon="0.06508">
        <ele>57</ele>
        <time>2013-02-17T14:57:52.000Z</time>
      </trkpt>
      <trkpt lat="47.39022" lon="0.06507">
        <ele>57</ele>
        <time>2013-02-17T14:57:53.000Z</time>
      </trkpt>
      <trkpt lat="47.39018" lon="0.06506">
        <ele>57</ele>
        <time>2013-02-17T14:57:56.000Z</time>
      </trkpt>
      <trkpt lat="47.39016" lon="0.06505">
        <ele>57</ele>
        <time>2013-02-17T14:57:57.000Z</time>
      </trkpt>
      <trkpt lat="47.39012" lon="0.06504">
        <ele>57</ele>
        <time>2013-02-17T14:58:00.000Z</time>
      </trkpt>
      <trkpt lat="47.3901" lon="0.06504">
        <ele>57</ele>
        <time>2013-02-17T14:58:01.000Z</time>
      </trkpt>
      <trkpt lat="47.39006" lon="0.06503">
        <ele>57</ele>
        <time>2013-02-17T14:58:06.000Z</time>
      </trkpt>
      <trkpt lat="47.39006" lon="0.06503">
        <ele>57</ele>
        <time>2013-02-17T14:58:07.000Z</time>
      </trkpt>
      <trkpt lat="47.39002" lon="0.06501">
        <ele>57</ele>
        <time>2013-02-17T14:58:11.000Z</time>
      </trkpt>
      <trkpt lat="47.39001" lon="0.06501">
        <ele>57</ele>
        <time>2013-02-17T14:58:12.000Z</time>
      </trkpt>
      <trkpt lat="47.38997" lon="0.06498">
        <ele>57</ele>
        <time>2013-02-17T14:58:16.000Z</time>
      </trkpt>
      <trkpt lat="47.38996" lon="0.06498">
        <ele>57</ele>
        <time>2013-02-17T14:58:17.000Z</time>
      </trkpt>
      <trkpt lat="47.38992" lon="0.06497">
        <ele>57</ele>
        <time>2013-02-17T14:58:20.000Z</time>
      </trkpt>
      <trkpt lat="47.38991" lon="0.06496">
        <ele>57</ele>
        <time>2013-02-17T14:58:21.000Z</time>
      </trkpt>
      <trkpt lat="47.38987" lon="0.06495">
        <ele>57</ele>
        <time>2013-02-17T14:58:24.000Z</time>
      </trkpt>
      <trkpt lat="47.38986" lon="0.06495">
        <ele>57</ele>
        <time>2013-02-17T14:58:25.000Z</time>
      </trkpt>
      <trkpt lat="47.38982" lon="0.06494">
        <ele>57</ele>
        <time>2013-02-17T14:58:28.000Z</time>
      </trkpt>
      <trkpt lat="47.38981" lon="0.06494">
        <ele>57</ele>
        <time>2013-02-17T14:58:29.000Z</time>
      </trkpt>
      <trkpt lat="47.38977" lon="0.06493">
        <ele>57</ele>
        <time>2013-02-17T14:58:32.000Z</time>
      </trkpt>
      <trkpt lat="47.38975" lon="0.06492">
        <ele>57</ele>
        <time>2013-02-17T14:58:33.000Z</time>
      </trkpt>
      <trkpt lat="47.38971" lon="0.06491">
        <ele>57</ele>
        <time>2013-02-17T14:58:36.000Z</time>
      </trkpt>
      <trkpt lat="47.3897" lon="0.0649">
        <ele>57</ele>
        <time>2013-02-17T14:58:37.000Z</time>
      </trkpt>
      <trkpt lat="47.38966" lon="0.06488">
        <ele>57</ele>
        <time>2013-02-17T14:58:42.000Z</time>
      </trkpt>
      <trkpt lat="47.38965" lon="0.06487">
        <ele>57</ele>
        <time>2013-02-17T14:58:43.000Z</time>
      </trkpt>
      <trkpt lat="47.38962" lon="0.06485">
        <ele>57</ele>
        <time>2013-02-17T14:58:46.000Z</time>
      </trkpt>
      <trkpt lat="47.38961" lon="0.06484">
        <ele>57</ele>
        <time>2013-02-17T14:58:47.000Z</time>
      </trkpt>
      <trkpt lat="47.38957" lon="0.06482">
        <ele>57</ele>
        <time>2013-02-17T14:58:50.000Z</time>
      </trkpt>
      <trkpt lat="47.38956" lon="0.06481">
        <ele>57</ele>
        <time>2013-02-17T14:58:51.000Z</time>
      </trkpt>
      <trkpt lat="47.38952" lon="0.06479">
        <ele>57</ele>
        <time>2013-02-17T14:58:54.000Z</time>
      </trkpt>
      <trkpt lat="47.38951" lon="0.06478">
        <ele>57</ele>
        <time>2013-02-17T14:58:55.000Z</time>
      </trkpt>
      <trkpt lat="47.38947" lon="0.06475">
        <ele>57</ele>
        <time>2013-02-17T14:58:58.000Z</time>
      </trkpt>
      <trkpt lat="47.38945" lon="0.06474">
        <ele>57</ele>
        <time>2013-02-17T14:58:59.000Z</time>
      </trkpt>
      <trkpt lat="47.38942" lon="0.06471">
        <ele>57</ele>
        <time>2013-02-17T14:59:01.000Z</time>
      </trkpt>
      <trkpt lat="47.38941" lon="0.0647">
        <ele>57</ele>
        <time>2013-02-17T14:59:02.000Z</time>
      </trkpt>
      <trkpt lat="47.38937" lon="0.06468">
        <ele>57</ele>
        <time>2013-02-17T14:59:06.000Z</time>
      </trkpt>
      <trkpt lat="47.38937" lon="0.06467">
        <ele>57</ele>
        <time>2013-02-17T14:59:07.000Z</time>
      </trkpt>
      <trkpt lat="47.38934" lon="0.06463">
        <ele>57</ele>
        <time>2013-02-17T14:59:11.000Z</time>
      </trkpt>
      <trkpt lat="47.38934" lon="0.06462">
        <ele>57</ele>
        <time>2013-02-17T14:59:12.000Z</time>
      </trkpt>
      <trkpt lat="47.38931" lon="0.06458">
        <ele>57</ele>
        <time>2013-02-17T14:59:16.000Z</time>
      </trkpt>
      <trkpt lat="47.3893" lon="0.06457">
        <ele>57</ele>
        <time>2013-02-17T14:59:17.000Z</time>
      </trkpt>
      <trkpt lat="47.38928" lon="0.06455">
        <ele>57</ele>
        <time>2013-02-17T14:59:19.000Z</time>
      </trkpt>
      <trkpt lat="47.38927" lon="0.06452">
        <ele>57</ele>
        <time>2013-02-17T14:59:20.000Z</time>
      </trkpt>
      <trkpt lat="47.38924" lon="0.06448">
        <ele>57</ele>
        <time>2013-02-17T14:59:24.000Z</time>
      </trkpt>
      <trkpt lat="47.38923" lon="0.06447">
        <ele>57</ele>
        <time>2013-02-17T14:59:25.000Z</time>
      </trkpt>
      <trkpt lat="47.3892" lon="0.06444">
        <ele>57</ele>
        <time>2013-02-17T14:59:29.000Z</time>
      </trkpt>
      <trkpt lat="47.38918" lon="0.06443">
        <ele>57</ele>
        <time>2013-02-17T14:59:30.000Z</time>
      </trkpt>
      <trkpt lat="47.38915" lon="0.06441">
        <ele>58</ele>
        <time>2013-02-17T14:59:33.000Z</time>
      </trkpt>
      <trkpt lat="47.38914" lon="0.0644">
        <ele>58</ele>
        <time>2013-02-17T14:59:34.000Z</time>
      </trkpt>
      <trkpt lat="47.38911" lon="0.06438">
        <ele>58</ele>
        <time>2013-02-17T14:59:37.000Z</time>
      </trkpt>
      <trkpt lat="47.38909" lon="0.06437">
        <ele>58</ele>
        <time>2013-02-17T14:59:38.000Z</time>
      </trkpt>
      <trkpt lat="47.38906" lon="0.06435">
        <ele>58</ele>
        <time>2013-02-17T14:59:41.000Z</time>
      </trkpt>
      <trkpt lat="47.38905" lon="0.06433">
        <ele>58</ele>
        <time>2013-02-17T14:59:42.000Z</time>
      </trkpt>
      <trkpt lat="47.38901" lon="0.06431">
        <ele>58</ele>
        <time>2013-02-17T14:59:46.000Z</time>
      </trkpt>
      <trkpt lat="47.389" lon="0.06431">
        <ele>58</ele>
        <time>2013-02-17T14:59:47.000Z</time>
      </trkpt>
      <trkpt lat="47.38897" lon="0.06429">
        <ele>58</ele>
        <time>2013-02-17T14:59:50.000Z</time>
      </trkpt>
      <trkpt lat="47.38896" lon="0.06428">
        <ele>58</ele>
        <time>2013-02-17T14:59:51.000Z</time>
      </trkpt>
      <trkpt lat="47.38893" lon="0.06426">
        <ele>58</ele>
        <time>2013-02-17T14:59:55.000Z</time>
      </trkpt>
      <trkpt lat="47.38891" lon="0.06425">
        <ele>58</ele>
        <time>2013-02-17T14:59:56.000Z</time>
      </trkpt>
      <trkpt lat="47.38888" lon="0.06423">
        <ele>58</ele>
        <time>2013-02-17T15:00:00.000Z</time>
      </trkpt>
      <trkpt lat="47.38886" lon="0.06423">
        <ele>58</ele>
        <time>2013-02-17T15:00:01.000Z</time>
      </trkpt>
      <trkpt lat="47.38883" lon="0.06421">
        <ele>58</ele>
        <time>2013-02-17T15:00:04.000Z</time>
      </trkpt>
      <trkpt lat="47.38881" lon="0.0642">
        <ele>58</ele>
        <time>2013-02-17T15:00:05.000Z</time>
      </trkpt>
      <trkpt lat="47.38878" lon="0.06417">
        <ele>58</ele>
        <time>2013-02-17T15:00:09.000Z</time>
      </trkpt>
      <trkpt lat="47.38877" lon="0.06417">
        <ele>59</ele>
        <time>2013-02-17T15:00:10.000Z</time>
      </trkpt>
      <trkpt lat="47.38873" lon="0.06415">
        <ele>59</ele>
        <time>2013-02-17T15:00:15.000Z</time>
      </trkpt>
      <trkpt lat="47.38872" lon="0.06415">
        <ele>59</ele>
        <time>2013-02-17T15:00:16.000Z</time>
      </trkpt>
      <trkpt lat="47.38869" lon="0.06413">
        <ele>59</ele>
        <time>2013-02-17T15:00:20.000Z</time>
      </trkpt>
      <trkpt lat="47.38868" lon="0.06413">
        <ele>59</ele>
        <time>2013-02-17T15:00:21.000Z</time>
      </trkpt>
      <trkpt lat="47.38863" lon="0.06412">
        <ele>59</ele>
        <time>2013-02-17T15:00:26.000Z</time>
      </trkpt>
      <trkpt lat="47.38862" lon="0.06411">
        <ele>59</ele>
        <time>2013-02-17T15:00:27.000Z</time>
      </trkpt>
      <trkpt lat="47.38859" lon="0.06407">
        <ele>59</ele>
        <time>2013-02-17T15:00:30.000Z</time>
      </trkpt>
      <trkpt lat="47.38858" lon="0.06406">
        <ele>59</ele>
        <time>2013-02-17T15:00:31.000Z</time>
      </trkpt>
      <trkpt lat="47.38854" lon="0.06403">
        <ele>59</ele>
        <time>2013-02-17T15:00:35.000Z</time>
      </trkpt>
      <trkpt lat="47.38853" lon="0.06403">
        <ele>59</ele>
        <time>2013-02-17T15:00:36.000Z</time>
      </trkpt>
      <trkpt lat="47.3885" lon="0.064">
        <ele>59</ele>
        <time>2013-02-17T15:00:40.000Z</time>
      </trkpt>
      <trkpt lat="47.38849" lon="0.06399">
        <ele>59</ele>
        <time>2013-02-17T15:00:41.000Z</time>
      </trkpt>
      <trkpt lat="47.38845" lon="0.06396">
        <ele>59</ele>
        <time>2013-02-17T15:00:44.000Z</time>
      </trkpt>
      <trkpt lat="47.38844" lon="0.06396">
        <ele>59</ele>
        <time>2013-02-17T15:00:45.000Z</time>
      </trkpt>
      <trkpt lat="47.3884" lon="0.06395">
        <ele>59</ele>
        <time>2013-02-17T15:00:48.000Z</time>
      </trkpt>
      <trkpt lat="47.38839" lon="0.06394">
        <ele>59</ele>
        <time>2013-02-17T15:00:49.000Z</time>
      </trkpt>
      <trkpt lat="47.38835" lon="0.06391">
        <ele>59</ele>
        <time>2013-02-17T15:00:52.000Z</time>
      </trkpt>
      <trkpt lat="47.38834" lon="0.06391">
        <ele>59</ele>
        <time>2013-02-17T15:00:53.000Z</time>
      </trkpt>
      <trkpt lat="47.38831" lon="0.06388">
        <ele>59</ele>
        <time>2013-02-17T15:00:56.000Z</time>
      </trkpt>
      <trkpt lat="47.3883" lon="0.06387">
        <ele>59</ele>
        <time>2013-02-17T15:00:57.000Z</time>
      </trkpt>
      <trkpt lat="47.38826" lon="0.06386">
        <ele>59</ele>
        <time>2013-02-17T15:01:00.000Z</time>
      </trkpt>
      <trkpt lat="47.38826" lon="0.06386">
        <ele>59</ele>
        <time>2013-02-17T15:01:01.000Z</time>
      </trkpt>
      <trkpt lat="47.38822" lon="0.06385">
        <ele>59</ele>
        <time>2013-02-17T15:01:04.000Z</time>
      </trkpt>
      <trkpt lat="47.38821" lon="0.06384">
        <ele>59</ele>
        <time>2013-02-17T15:01:05.000Z</time>
      </trkpt>
      <trkpt lat="47.38818" lon="0.0638">
        <ele>59</ele>
        <time>2013-02-17T15:01:08.000Z</time>
      </trkpt>
      <trkpt lat="47.38817" lon="0.06379">
        <ele>59</ele>
        <time>2013-02-17T15:01:09.000Z</time>
      </trkpt>
      <trkpt lat="47.38813" lon="0.06376">
        <ele>59</ele>
        <time>2013-02-17T15:01:13.000Z</time>
      </trkpt>
      <trkpt lat="47.38812" lon="0.06375">
        <ele>60</ele>
        <time>2013-02-17T15:01:14.000Z</time>
      </trkpt>
      <trkpt lat="47.38808" lon="0.06373">
        <ele>60</ele>
        <time>2013-02-17T15:01:20.000Z</time>
      </trkpt>
      <trkpt lat="47.38807" lon="0.06372">
        <ele>60</ele>
        <time>2013-02-17T15:01:21.000Z</time>
      </trkpt>
      <trkpt lat="47.38803" lon="0.06369">
        <ele>60</ele>
        <time>2013-02-17T15:01:25.000Z</time>
      </trkpt>
      <trkpt lat="47.38802" lon="0.06368">
        <ele>60</ele>
        <time>2013-02-17T15:01:26.000Z</time>
      </trkpt>
      <trkpt lat="47.38799" lon="0.06365">
        <ele>60</ele>
        <time>2013-02-17T15:01:29.000Z</time>
      </trkpt>
      <trkpt lat="47.38797" lon="0.06365">
        <ele>60</ele>
        <time>2013-02-17T15:01:30.000Z</time>
      </trkpt>
      <trkpt lat="47.38795" lon="0.06361">
        <ele>60</ele>
        <time>2013-02-17T15:01:34.000Z</time>
      </trkpt>
      <trkpt lat="47.38794" lon="0.0636">
        <ele>60</ele>
        <time>2013-02-17T15:01:35.000Z</time>
      </trkpt>
      <trkpt lat="47.3879" lon="0.06358">
        <ele>59</ele>
        <time>2013-02-17T15:01:38.000Z</time>
      </trkpt>
      <trkpt lat="47.38789" lon="0.06357">
        <ele>59</ele>
        <time>2013-02-17T15:01:39.000Z</time>
      </trkpt>
      <trkpt lat="47.38785" lon="0.06355">
        <ele>59</ele>
        <time>2013-02-17T15:01:42.000Z</time>
      </trkpt>
      <trkpt lat="47.38784" lon="0.06354">
        <ele>59</ele>
        <time>2013-02-17T15:01:43.000Z</time>
      </trkpt>
      <trkpt lat="47.3878" lon="0.06353">
        <ele>59</ele>
        <time>2013-02-17T15:01:47.000Z</time>
      </trkpt>
      <trkpt lat="47.38779" lon="0.06353">
        <ele>59</ele>
        <time>2013-02-17T15:01:48.000Z</time>
      </trkpt>
      <trkpt lat="47.38775" lon="0.06351">
        <ele>59</ele>
        <time>2013-02-17T15:01:52.000Z</time>
      </trkpt>
      <trkpt lat="47.38774" lon="0.06351">
        <ele>59</ele>
        <time>2013-02-17T15:01:53.000Z</time>
      </trkpt>
      <trkpt lat="47.3877" lon="0.0635">
        <ele>59</ele>
        <time>2013-02-17T15:01:56.000Z</time>
      </trkpt>
      <trkpt lat="47.38769" lon="0.0635">
        <ele>59</ele>
        <time>2013-02-17T15:01:57.000Z</time>
      </trkpt>
      <trkpt lat="47.38766" lon="0.06349">
        <ele>59</ele>
        <time>2013-02-17T15:02:00.000Z</time>
      </trkpt>
      <trkpt lat="47.38765" lon="0.06348">
        <ele>59</ele>
        <time>2013-02-17T15:02:01.000Z</time>
      </trkpt>
      <trkpt lat="47.38762" lon="0.06345">
        <ele>59</ele>
        <time>2013-02-17T15:02:05.000Z</time>
      </trkpt>
      <trkpt lat="47.38761" lon="0.06344">
        <ele>59</ele>
        <time>2013-02-17T15:02:06.000Z</time>
      </trkpt>
      <trkpt lat="47.38756" lon="0.06343">
        <ele>59</ele>
        <time>2013-02-17T15:02:10.000Z</time>
      </trkpt>
      <trkpt lat="47.38755" lon="0.06342">
        <ele>59</ele>
        <time>2013-02-17T15:02:11.000Z</time>
      </trkpt>
      <trkpt lat="47.38752" lon="0.0634">
        <ele>59</ele>
        <time>2013-02-17T15:02:15.000Z</time>
      </trkpt>
      <trkpt lat="47.38751" lon="0.06339">
        <ele>59</ele>
        <time>2013-02-17T15:02:16.000Z</time>
      </trkpt>
      <trkpt lat="47.38747" lon="0.06337">
        <ele>59</ele>
        <time>2013-02-17T15:02:20.000Z</time>
      </trkpt>
      <trkpt lat="47.38746" lon="0.06337">
        <ele>59</ele>
        <time>2013-02-17T15:02:21.000Z</time>
      </trkpt>
      <trkpt lat="47.38743" lon="0.06335">
        <ele>59</ele>
        <time>2013-02-17T15:02:24.000Z</time>
      </trkpt>
      <trkpt lat="47.38742" lon="0.06334">
        <ele>59</ele>
        <time>2013-02-17T15:02:25.000Z</time>
      </trkpt>
      <trkpt lat="47.38738" lon="0.06331">
        <ele>59</ele>
        <time>2013-02-17T15:02:28.000Z</time>
      </trkpt>
      <trkpt lat="47.38737" lon="0.0633">
        <ele>59</ele>
        <time>2013-02-17T15:02:29.000Z</time>
      </trkpt>
      <trkpt lat="47.38733" lon="0.06327">
        <ele>60</ele>
        <time>2013-02-17T15:02:34.000Z</time>
      </trkpt>
      <trkpt lat="47.38733" lon="0.06327">
        <ele>60</ele>
        <time>2013-02-17T15:02:35.000Z</time>
      </trkpt>
      <trkpt lat="47.38729" lon="0.06324">
        <ele>60</ele>
        <time>2013-02-17T15:02:40.000Z</time>
      </trkpt>
      <trkpt lat="47.38728" lon="0.06324">
        <ele>60</ele>
        <time>2013-02-17T15:02:41.000Z</time>
      </trkpt>
      <trkpt lat="47.38724" lon="0.06321">
        <ele>60</ele>
        <time>2013-02-17T15:02:45.000Z</time>
      </trkpt>
      <trkpt lat="47.38723" lon="0.06321">
        <ele>60</ele>
        <time>2013-02-17T15:02:46.000Z</time>
      </trkpt>
      <trkpt lat="47.38719" lon="0.06324">
        <ele>60</ele>
        <time>2013-02-17T15:03:21.000Z</time>
      </trkpt>
      <trkpt lat="47.38719" lon="0.06325">
        <ele>60</ele>
        <time>2013-02-17T15:03:22.000Z</time>
      </trkpt>
      <trkpt lat="47.38716" lon="0.06329">
        <ele>60</ele>
        <time>2013-02-17T15:03:50.001Z</time>
      </trkpt>
      <trkpt lat="47.38716" lon="0.0633">
        <ele>60</ele>
        <time>2013-02-17T15:03:51.001Z</time>
      </trkpt>
      <trkpt lat="47.38714" lon="0.06336">
        <ele>60</ele>
        <time>2013-02-17T15:03:57.001Z</time>
      </trkpt>
      <trkpt lat="47.38714" lon="0.06338">
        <ele>60</ele>
        <time>2013-02-17T15:03:58.001Z</time>
      </trkpt>
      <trkpt lat="47.38714" lon="0.06343">
        <ele>60</ele>
        <time>2013-02-17T15:04:01.001Z</time>
      </trkpt>
      <trkpt lat="47.38714" lon="0.06345">
        <ele>60</ele>
        <time>2013-02-17T15:04:02.001Z</time>
      </trkpt>
      <trkpt lat="47.38713" lon="0.06351">
        <ele>60</ele>
        <time>2013-02-17T15:04:06.001Z</time>
      </trkpt>
      <trkpt lat="47.38713" lon="0.06353">
        <ele>60</ele>
        <time>2013-02-17T15:04:07.001Z</time>
      </trkpt>
      <trkpt lat="47.38713" lon="0.06359">
        <ele>60</ele>
        <time>2013-02-17T15:04:11.001Z</time>
      </trkpt>
      <trkpt lat="47.38713" lon="0.0636">
        <ele>60</ele>
        <time>2013-02-17T15:04:12.001Z</time>
      </trkpt>
      <trkpt lat="47.38713" lon="0.06366">
        <ele>60</ele>
        <time>2013-02-17T15:04:15.001Z</time>
      </trkpt>
      <trkpt lat="47.38713" lon="0.06367">
        <ele>60</ele>
        <time>2013-02-17T15:04:16.001Z</time>
      </trkpt>
      <trkpt lat="47.38712" lon="0.06372">
        <ele>60</ele>
        <time>2013-02-17T15:04:20.001Z</time>
      </trkpt>
      <trkpt lat="47.38712" lon="0.06374">
        <ele>60</ele>
        <time>2013-02-17T15:04:21.001Z</time>
      </trkpt>
      <trkpt lat="47.38711" lon="0.06379">
        <ele>60</ele>
        <time>2013-02-17T15:04:24.001Z</time>
      </trkpt>
      <trkpt lat="47.38712" lon="0.06381">
        <ele>60</ele>
        <time>2013-02-17T15:04:25.001Z</time>
      </trkpt>
      <trkpt lat="47.38712" lon="0.06387">
        <ele>61</ele>
        <time>2013-02-17T15:04:28.001Z</time>
      </trkpt>
      <trkpt lat="47.38712" lon="0.06388">
        <ele>61</ele>
        <time>2013-02-17T15:04:29.001Z</time>
      </trkpt>
      <trkpt lat="47.3871" lon="0.06394">
        <ele>61</ele>
        <time>2013-02-17T15:04:33.001Z</time>
      </trkpt>
      <trkpt lat="47.3871" lon="0.06395">
        <ele>61</ele>
        <time>2013-02-17T15:04:34.001Z</time>
      </trkpt>
      <trkpt lat="47.3871" lon="0.06402">
        <ele>61</ele>
        <time>2013-02-17T15:04:38.001Z</time>
      </trkpt>
      <trkpt lat="47.38709" lon="0.06404">
        <ele>61</ele>
        <time>2013-02-17T15:04:39.001Z</time>
      </trkpt>
      <trkpt lat="47.38709" lon="0.06408">
        <ele>61</ele>
        <time>2013-02-17T15:04:41.001Z</time>
      </trkpt>
      <trkpt lat="47.38709" lon="0.0641">
        <ele>61</ele>
        <time>2013-02-17T15:04:42.001Z</time>
      </trkpt>
      <trkpt lat="47.38708" lon="0.06416">
        <ele>61</ele>
        <time>2013-02-17T15:04:47.001Z</time>
      </trkpt>
      <trkpt lat="47.38707" lon="0.06418">
        <ele>61</ele>
        <time>2013-02-17T15:04:48.001Z</time>
      </trkpt>
      <trkpt lat="47.38707" lon="0.06423">
        <ele>61</ele>
        <time>2013-02-17T15:04:52.001Z</time>
      </trkpt>
      <trkpt lat="47.38707" lon="0.06425">
        <ele>61</ele>
        <time>2013-02-17T15:04:53.001Z</time>
      </trkpt>
      <trkpt lat="47.38707" lon="0.06431">
        <ele>61</ele>
        <time>2013-02-17T15:04:56.001Z</time>
      </trkpt>
      <trkpt lat="47.38706" lon="0.06433">
        <ele>61</ele>
        <time>2013-02-17T15:04:57.001Z</time>
      </trkpt>
      <trkpt lat="47.38705" lon="0.06438">
        <ele>61</ele>
        <time>2013-02-17T15:05:00.001Z</time>
      </trkpt>
      <trkpt lat="47.38705" lon="0.0644">
        <ele>61</ele>
        <time>2013-02-17T15:05:01.001Z</time>
      </trkpt>
      <trkpt lat="47.38705" lon="0.06444">
        <ele>61</ele>
        <time>2013-02-17T15:05:04.001Z</time>
      </trkpt>
      <trkpt lat="47.38705" lon="0.06447">
        <ele>61</ele>
        <time>2013-02-17T15:05:05.001Z</time>
      </trkpt>
      <trkpt lat="47.38705" lon="0.06453">
        <ele>61</ele>
        <time>2013-02-17T15:05:08.001Z</time>
      </trkpt>
      <trkpt lat="47.38705" lon="0.06455">
        <ele>61</ele>
        <time>2013-02-17T15:05:09.001Z</time>
      </trkpt>
      <trkpt lat="47.38706" lon="0.0646">
        <ele>61</ele>
        <time>2013-02-17T15:05:12.001Z</time>
      </trkpt>
      <trkpt lat="47.38706" lon="0.06462">
        <ele>61</ele>
        <time>2013-02-17T15:05:13.001Z</time>
      </trkpt>
      <trkpt lat="47.38706" lon="0.06467">
        <ele>61</ele>
        <time>2013-02-17T15:05:16.001Z</time>
      </trkpt>
      <trkpt lat="47.38706" lon="0.06469">
        <ele>61</ele>
        <time>2013-02-17T15:05:17.001Z</time>
      </trkpt>
      <trkpt lat="47.38706" lon="0.06474">
        <ele>61</ele>
        <time>2013-02-17T15:05:20.001Z</time>
      </trkpt>
      <trkpt lat="47.38706" lon="0.06476">
        <ele>61</ele>
        <time>2013-02-17T15:05:21.001Z</time>
      </trkpt>
      <trkpt lat="47.38705" lon="0.06481">
        <ele>61</ele>
        <time>2013-02-17T15:05:24.001Z</time>
      </trkpt>
      <trkpt lat="47.38705" lon="0.06482">
        <ele>61</ele>
        <time>2013-02-17T15:05:25.001Z</time>
      </trkpt>
      <trkpt lat="47.38705" lon="0.06488">
        <ele>61</ele>
        <time>2013-02-17T15:05:28.001Z</time>
      </trkpt>
      <trkpt lat="47.38705" lon="0.06489">
        <ele>61</ele>
        <time>2013-02-17T15:05:29.001Z</time>
      </trkpt>
      <trkpt lat="47.38704" lon="0.06495">
        <ele>61</ele>
        <time>2013-02-17T15:05:33.001Z</time>
      </trkpt>
      <trkpt lat="47.38704" lon="0.06497">
        <ele>61</ele>
        <time>2013-02-17T15:05:34.001Z</time>
      </trkpt>
      <trkpt lat="47.38704" lon="0.06503">
        <ele>61</ele>
        <time>2013-02-17T15:05:38.001Z</time>
      </trkpt>
      <trkpt lat="47.38704" lon="0.06504">
        <ele>61</ele>
        <time>2013-02-17T15:05:39.001Z</time>
      </trkpt>
      <trkpt lat="47.38703" lon="0.06509">
        <ele>61</ele>
        <time>2013-02-17T15:05:44.001Z</time>
      </trkpt>
      <trkpt lat="47.38703" lon="0.06511">
        <ele>61</ele>
        <time>2013-02-17T15:05:45.001Z</time>
      </trkpt>
      <trkpt lat="47.38702" lon="0.06516">
        <ele>61</ele>
        <time>2013-02-17T15:05:48.001Z</time>
      </trkpt>
      <trkpt lat="47.38701" lon="0.06517">
        <ele>61</ele>
        <time>2013-02-17T15:05:49.001Z</time>
      </trkpt>
      <trkpt lat="47.38701" lon="0.06522">
        <ele>61</ele>
        <time>2013-02-17T15:05:52.001Z</time>
      </trkpt>
      <trkpt lat="47.38701" lon="0.06524">
        <ele>61</ele>
        <time>2013-02-17T15:05:53.001Z</time>
      </trkpt>
      <trkpt lat="47.38701" lon="0.06529">
        <ele>61</ele>
        <time>2013-02-17T15:05:56.001Z</time>
      </trkpt>
      <trkpt lat="47.38701" lon="0.06531">
        <ele>61</ele>
        <time>2013-02-17T15:05:57.001Z</time>
      </trkpt>
      <trkpt lat="47.38701" lon="0.06537">
        <ele>61</ele>
        <time>2013-02-17T15:06:01.001Z</time>
      </trkpt>
      <trkpt lat="47.38701" lon="0.06539">
        <ele>61</ele>
        <time>2013-02-17T15:06:02.001Z</time>
      </trkpt>
      <trkpt lat="47.387" lon="0.06544">
        <ele>61</ele>
        <time>2013-02-17T15:06:05.001Z</time>
      </trkpt>
      <trkpt lat="47.38699" lon="0.06546">
        <ele>61</ele>
        <time>2013-02-17T15:06:06.001Z</time>
      </trkpt>
      <trkpt lat="47.38698" lon="0.06552">
        <ele>61</ele>
        <time>2013-02-17T15:06:09.001Z</time>
      </trkpt>
      <trkpt lat="47.38698" lon="0.06553">
        <ele>61</ele>
        <time>2013-02-17T15:06:10.001Z</time>
      </trkpt>
      <trkpt lat="47.38698" lon="0.06559">
        <ele>61</ele>
        <time>2013-02-17T15:06:14.001Z</time>
      </trkpt>
      <trkpt lat="47.38698" lon="0.0656">
        <ele>61</ele>
        <time>2013-02-17T15:06:15.001Z</time>
      </trkpt>
      <trkpt lat="47.38698" lon="0.06566">
        <ele>60</ele>
        <time>2013-02-17T15:06:19.001Z</time>
      </trkpt>
      <trkpt lat="47.38698" lon="0.06568">
        <ele>60</ele>
        <time>2013-02-17T15:06:20.001Z</time>
      </trkpt>
      <trkpt lat="47.38697" lon="0.06573">
        <ele>60</ele>
        <time>2013-02-17T15:06:23.001Z</time>
      </trkpt>
      <trkpt lat="47.38697" lon="0.06576">
        <ele>60</ele>
        <time>2013-02-17T15:06:24.001Z</time>
      </trkpt>
      <trkpt lat="47.38697" lon="0.06581">
        <ele>60</ele>
        <time>2013-02-17T15:06:27.001Z</time>
      </trkpt>
      <trkpt lat="47.38696" lon="0.06583">
        <ele>60</ele>
        <time>2013-02-17T15:06:28.001Z</time>
      </trkpt>
      <trkpt lat="47.38696" lon="0.06587">
        <ele>60</ele>
        <time>2013-02-17T15:06:30.001Z</time>
      </trkpt>
      <trkpt lat="47.38696" lon="0.06589">
        <ele>60</ele>
        <time>2013-02-17T15:06:31.001Z</time>
      </trkpt>
      <trkpt lat="47.38695" lon="0.06594">
        <ele>60</ele>
        <time>2013-02-17T15:06:34.001Z</time>
      </trkpt>
      <trkpt lat="47.38696" lon="0.06596">
        <ele>60</ele>
        <time>2013-02-17T15:06:35.001Z</time>
      </trkpt>
      <trkpt lat="47.38696" lon="0.06603">
        <ele>60</ele>
        <time>2013-02-17T15:06:39.001Z</time>
      </trkpt>
      <trkpt lat="47.38696" lon="0.06605">
        <ele>60</ele>
        <time>2013-02-17T15:06:40.001Z</time>
      </trkpt>
      <trkpt lat="47.38696" lon="0.06611">
        <ele>60</ele>
        <time>2013-02-17T15:06:43.001Z</time>
      </trkpt>
      <trkpt lat="47.38696" lon="0.06613">
        <ele>60</ele>
        <time>2013-02-17T15:06:44.001Z</time>
      </trkpt>
      <trkpt lat="47.38695" lon="0.06617">
        <ele>60</ele>
        <time>2013-02-17T15:06:47.001Z</time>
      </trkpt>
      <trkpt lat="47.38695" lon="0.0662">
        <ele>60</ele>
        <time>2013-02-17T15:06:48.001Z</time>
      </trkpt>
      <trkpt lat="47.38694" lon="0.06624">
        <ele>60</ele>
        <time>2013-02-17T15:06:51.001Z</time>
      </trkpt>
      <trkpt lat="47.38694" lon="0.06626">
        <ele>60</ele>
        <time>2013-02-17T15:06:52.001Z</time>
      </trkpt>
      <trkpt lat="47.38693" lon="0.06632">
        <ele>60</ele>
        <time>2013-02-17T15:06:56.001Z</time>
      </trkpt>
      <trkpt lat="47.38693" lon="0.06634">
        <ele>60</ele>
        <time>2013-02-17T15:06:57.001Z</time>
      </trkpt>
      <trkpt lat="47.38693" lon="0.0664">
        <ele>60</ele>
        <time>2013-02-17T15:07:00.001Z</time>
      </trkpt>
      <trkpt lat="47.38693" lon="0.06641">
        <ele>60</ele>
        <time>2013-02-17T15:07:01.001Z</time>
      </trkpt>
      <trkpt lat="47.38693" lon="0.06648">
        <ele>60</ele>
        <time>2013-02-17T15:07:05.001Z</time>
      </trkpt>
      <trkpt lat="47.38693" lon="0.0665">
        <ele>60</ele>
        <time>2013-02-17T15:07:06.001Z</time>
      </trkpt>
      <trkpt lat="47.38693" lon="0.06655">
        <ele>60</ele>
        <time>2013-02-17T15:07:09.001Z</time>
      </trkpt>
      <trkpt lat="47.38693" lon="0.06657">
        <ele>60</ele>
        <time>2013-02-17T15:07:10.001Z</time>
      </trkpt>
      <trkpt lat="47.38692" lon="0.06663">
        <ele>60</ele>
        <time>2013-02-17T15:07:14.001Z</time>
      </trkpt>
      <trkpt lat="47.38692" lon="0.06664">
        <ele>60</ele>
        <time>2013-02-17T15:07:15.001Z</time>
      </trkpt>
      <trkpt lat="47.38691" lon="0.06669">
        <ele>60</ele>
        <time>2013-02-17T15:07:18.001Z</time>
      </trkpt>
      <trkpt lat="47.38691" lon="0.0667">
        <ele>60</ele>
        <time>2013-02-17T15:07:19.001Z</time>
      </trkpt>
      <trkpt lat="47.38691" lon="0.06675">
        <ele>60</ele>
        <time>2013-02-17T15:07:22.001Z</time>
      </trkpt>
      <trkpt lat="47.38691" lon="0.06678">
        <ele>60</ele>
        <time>2013-02-17T15:07:23.001Z</time>
      </trkpt>
      <trkpt lat="47.38691" lon="0.06683">
        <ele>60</ele>
        <time>2013-02-17T15:07:26.001Z</time>
      </trkpt>
      <trkpt lat="47.3869" lon="0.06684">
        <ele>60</ele>
        <time>2013-02-17T15:07:27.001Z</time>
      </trkpt>
      <trkpt lat="47.38689" lon="0.0669">
        <ele>60</ele>
        <time>2013-02-17T15:07:31.001Z</time>
      </trkpt>
      <trkpt lat="47.38689" lon="0.06692">
        <ele>60</ele>
        <time>2013-02-17T15:07:32.001Z</time>
      </trkpt>
      <trkpt lat="47.38688" lon="0.06697">
        <ele>60</ele>
        <time>2013-02-17T15:07:36.001Z</time>
      </trkpt>
      <trkpt lat="47.38688" lon="0.067">
        <ele>60</ele>
        <time>2013-02-17T15:07:37.001Z</time>
      </trkpt>
      <trkpt lat="47.38687" lon="0.06706">
        <ele>60</ele>
        <time>2013-02-17T15:07:41.001Z</time>
      </trkpt>
      <trkpt lat="47.38687" lon="0.06707">
        <ele>60</ele>
        <time>2013-02-17T15:07:42.001Z</time>
      </trkpt>
      <trkpt lat="47.38686" lon="0.06713">
        <ele>60</ele>
        <time>2013-02-17T15:07:47.001Z</time>
      </trkpt>
      <trkpt lat="47.38686" lon="0.06714">
        <ele>60</ele>
        <time>2013-02-17T15:07:48.001Z</time>
      </trkpt>
      <trkpt lat="47.38685" lon="0.06719">
        <ele>60</ele>
        <time>2013-02-17T15:07:51.001Z</time>
      </trkpt>
      <trkpt lat="47.38685" lon="0.06721">
        <ele>60</ele>
        <time>2013-02-17T15:07:52.001Z</time>
      </trkpt>
      <trkpt lat="47.38685" lon="0.06726">
        <ele>60</ele>
        <time>2013-02-17T15:07:55.001Z</time>
      </trkpt>
      <trkpt lat="47.38686" lon="0.06727">
        <ele>60</ele>
        <time>2013-02-17T15:07:56.001Z</time>
      </trkpt>
      <trkpt lat="47.38686" lon="0.06732">
        <ele>60</ele>
        <time>2013-02-17T15:07:58.001Z</time>
      </trkpt>
      <trkpt lat="47.38685" lon="0.06734">
        <ele>60</ele>
        <time>2013-02-17T15:07:59.001Z</time>
      </trkpt>
      <trkpt lat="47.38686" lon="0.06739">
        <ele>60</ele>
        <time>2013-02-17T15:08:02.001Z</time>
      </trkpt>
      <trkpt lat="47.38686" lon="0.06741">
        <ele>60</ele>
        <time>2013-02-17T15:08:03.001Z</time>
      </trkpt>
      <trkpt lat="47.38687" lon="0.06747">
        <ele>60</ele>
        <time>2013-02-17T15:08:07.001Z</time>
      </trkpt>
      <trkpt lat="47.38686" lon="0.06748">
        <ele>60</ele>
        <time>2013-02-17T15:08:08.001Z</time>
      </trkpt>
      <trkpt lat="47.38686" lon="0.06754">
        <ele>60</ele>
        <time>2013-02-17T15:08:14.001Z</time>
      </trkpt>
      <trkpt lat="47.38686" lon="0.06757">
        <ele>60</ele>
        <time>2013-02-17T15:08:15.001Z</time>
      </trkpt>
      <trkpt lat="47.38686" lon="0.06762">
        <ele>60</ele>
        <time>2013-02-17T15:08:17.001Z</time>
      </trkpt>
      <trkpt lat="47.38686" lon="0.06764">
        <ele>60</ele>
        <time>2013-02-17T15:08:18.001Z</time>
      </trkpt>
      <trkpt lat="47.38685" lon="0.06769">
        <ele>60</ele>
        <time>2013-02-17T15:08:20.001Z</time>
      </trkpt>
      <trkpt lat="47.38685" lon="0.06771">
        <ele>60</ele>
        <time>2013-02-17T15:08:21.001Z</time>
      </trkpt>
      <trkpt lat="47.38685" lon="0.06778">
        <ele>60</ele>
        <time>2013-02-17T15:08:24.001Z</time>
      </trkpt>
      <trkpt lat="47.38685" lon="0.0678">
        <ele>60</ele>
        <time>2013-02-17T15:08:25.001Z</time>
      </trkpt>
      <trkpt lat="47.38684" lon="0.06783">
        <ele>60</ele>
        <time>2013-02-17T15:08:27.001Z</time>
      </trkpt>
      <trkpt lat="47.38684" lon="0.06786">
        <ele>60</ele>
        <time>2013-02-17T15:08:28.001Z</time>
      </trkpt>
      <trkpt lat="47.38682" lon="0.06792">
        <ele>60</ele>
        <time>2013-02-17T15:08:32.001Z</time>
      </trkpt>
      <trkpt lat="47.38682" lon="0.06794">
        <ele>60</ele>
        <time>2013-02-17T15:08:33.001Z</time>
      </trkpt>
      <trkpt lat="47.38682" lon="0.06799">
        <ele>60</ele>
        <time>2013-02-17T15:08:36.001Z</time>
      </trkpt>
      <trkpt lat="47.38682" lon="0.06802">
        <ele>60</ele>
        <time>2013-02-17T15:08:37.001Z</time>
      </trkpt>
      <trkpt lat="47.38682" lon="0.06807">
        <ele>60</ele>
        <time>2013-02-17T15:08:39.001Z</time>
      </trkpt>
      <trkpt lat="47.38682" lon="0.06808">
        <ele>60</ele>
        <time>2013-02-17T15:08:40.001Z</time>
      </trkpt>
      <trkpt lat="47.38681" lon="0.06814">
        <ele>60</ele>
        <time>2013-02-17T15:08:43.001Z</time>
      </trkpt>
      <trkpt lat="47.38682" lon="0.06816">
        <ele>60</ele>
        <time>2013-02-17T15:08:44.001Z</time>
      </trkpt>
      <trkpt lat="47.38681" lon="0.06822">
        <ele>60</ele>
        <time>2013-02-17T15:08:50.001Z</time>
      </trkpt>
      <trkpt lat="47.3868" lon="0.06824">
        <ele>60</ele>
        <time>2013-02-17T15:08:51.001Z</time>
      </trkpt>
      <trkpt lat="47.3868" lon="0.06829">
        <ele>60</ele>
        <time>2013-02-17T15:08:55.001Z</time>
      </trkpt>
      <trkpt lat="47.3868" lon="0.06832">
        <ele>60</ele>
        <time>2013-02-17T15:08:56.001Z</time>
      </trkpt>
      <trkpt lat="47.3868" lon="0.06838">
        <ele>60</ele>
        <time>2013-02-17T15:08:59.001Z</time>
      </trkpt>
      <trkpt lat="47.3868" lon="0.06839">
        <ele>60</ele>
        <time>2013-02-17T15:09:00.001Z</time>
      </trkpt>
      <trkpt lat="47.3868" lon="0.06846">
        <ele>60</ele>
        <time>2013-02-17T15:09:03.001Z</time>
      </trkpt>
      <trkpt lat="47.3868" lon="0.06848">
        <ele>60</ele>
        <time>2013-02-17T15:09:04.001Z</time>
      </trkpt>
      <trkpt lat="47.38679" lon="0.06854">
        <ele>60</ele>
        <time>2013-02-17T15:09:07.001Z</time>
      </trkpt>
      <trkpt lat="47.38679" lon="0.06855">
        <ele>60</ele>
        <time>2013-02-17T15:09:08.001Z</time>
      </trkpt>
      <trkpt lat="47.38677" lon="0.0686">
        <ele>60</ele>
        <time>2013-02-17T15:09:12.001Z</time>
      </trkpt>
      <trkpt lat="47.38677" lon="0.06861">
        <ele>60</ele>
        <time>2013-02-17T15:09:13.001Z</time>
      </trkpt>
      <trkpt lat="47.38677" lon="0.06868">
        <ele>60</ele>
        <time>2013-02-17T15:09:18.001Z</time>
      </trkpt>
      <trkpt lat="47.38677" lon="0.0687">
        <ele>60</ele>
        <time>2013-02-17T15:09:19.001Z</time>
      </trkpt>
      <trkpt lat="47.38677" lon="0.06876">
        <ele>60</ele>
        <time>2013-02-17T15:09:22.001Z</time>
      </trkpt>
      <trkpt lat="47.38677" lon="0.06879">
        <ele>60</ele>
        <time>2013-02-17T15:09:23.001Z</time>
      </trkpt>
      <trkpt lat="47.38677" lon="0.06884">
        <ele>60</ele>
        <time>2013-02-17T15:09:26.001Z</time>
      </trkpt>
      <trkpt lat="47.38677" lon="0.06886">
        <ele>60</ele>
        <time>2013-02-17T15:09:27.001Z</time>
      </trkpt>
      <trkpt lat="47.38677" lon="0.06892">
        <ele>60</ele>
        <time>2013-02-17T15:09:31.001Z</time>
      </trkpt>
      <trkpt lat="47.38677" lon="0.06894">
        <ele>60</ele>
        <time>2013-02-17T15:09:32.001Z</time>
      </trkpt>
      <trkpt lat="47.38676" lon="0.069">
        <ele>60</ele>
        <time>2013-02-17T15:09:36.001Z</time>
      </trkpt>
      <trkpt lat="47.38676" lon="0.06902">
        <ele>60</ele>
        <time>2013-02-17T15:09:37.001Z</time>
      </trkpt>
      <trkpt lat="47.38675" lon="0.06908">
        <ele>61</ele>
        <time>2013-02-17T15:09:41.001Z</time>
      </trkpt>
      <trkpt lat="47.38675" lon="0.06909">
        <ele>61</ele>
        <time>2013-02-17T15:09:42.001Z</time>
      </trkpt>
      <trkpt lat="47.38674" lon="0.06915">
        <ele>61</ele>
        <time>2013-02-17T15:09:45.001Z</time>
      </trkpt>
      <trkpt lat="47.38674" lon="0.06917">
        <ele>61</ele>
        <time>2013-02-17T15:09:46.001Z</time>
      </trkpt>
      <trkpt lat="47.38674" lon="0.06923">
        <ele>61</ele>
        <time>2013-02-17T15:09:49.001Z</time>
      </trkpt>
      <trkpt lat="47.38674" lon="0.06925">
        <ele>61</ele>
        <time>2013-02-17T15:09:50.001Z</time>
      </trkpt>
      <trkpt lat="47.38674" lon="0.06929">
        <ele>61</ele>
        <time>2013-02-17T15:09:53.001Z</time>
      </trkpt>
      <trkpt lat="47.38674" lon="0.06931">
        <ele>61</ele>
        <time>2013-02-17T15:09:54.001Z</time>
      </trkpt>
      <trkpt lat="47.38674" lon="0.06937">
        <ele>61</ele>
        <time>2013-02-17T15:09:57.001Z</time>
      </trkpt>
      <trkpt lat="47.38674" lon="0.06939">
        <ele>61</ele>
        <time>2013-02-17T15:09:58.001Z</time>
      </trkpt>
      <trkpt lat="47.38674" lon="0.06944">
        <ele>61</ele>
        <time>2013-02-17T15:10:01.001Z</time>
      </trkpt>
      <trkpt lat="47.38674" lon="0.06946">
        <ele>61</ele>
        <time>2013-02-17T15:10:02.001Z</time>
      </trkpt>
      <trkpt lat="47.38673" lon="0.06952">
        <ele>61</ele>
        <time>2013-02-17T15:10:06.001Z</time>
      </trkpt>
      <trkpt lat="47.38673" lon="0.06954">
        <ele>61</ele>
        <time>2013-02-17T15:10:07.001Z</time>
      </trkpt>
      <trkpt lat="47.38673" lon="0.06959">
        <ele>61</ele>
        <time>2013-02-17T15:10:10.001Z</time>
      </trkpt>
      <trkpt lat="47.38673" lon="0.0696">
        <ele>61</ele>
        <time>2013-02-17T15:10:11.001Z</time>
      </trkpt>
      <trkpt lat="47.38673" lon="0.06967">
        <ele>61</ele>
        <time>2013-02-17T15:10:16.001Z</time>
      </trkpt>
      <trkpt lat="47.38674" lon="0.06968">
        <ele>61</ele>
        <time>2013-02-17T15:10:17.001Z</time>
      </trkpt>
      <trkpt lat="47.38673" lon="0.06973">
        <ele>61</ele>
        <time>2013-02-17T15:10:22.001Z</time>
      </trkpt>
      <trkpt lat="47.38673" lon="0.06975">
        <ele>61</ele>
        <time>2013-02-17T15:10:23.001Z</time>
      </trkpt>
      <trkpt lat="47.38673" lon="0.06981">
        <ele>61</ele>
        <time>2013-02-17T15:10:27.001Z</time>
      </trkpt>
      <trkpt lat="47.38673" lon="0.06982">
        <ele>61</ele>
        <time>2013-02-17T15:10:28.001Z</time>
      </trkpt>
      <trkpt lat="47.38672" lon="0.06988">
        <ele>61</ele>
        <time>2013-02-17T15:10:31.001Z</time>
      </trkpt>
      <trkpt lat="47.38672" lon="0.0699">
        <ele>61</ele>
        <time>2013-02-17T15:10:32.001Z</time>
      </trkpt>
      <trkpt lat="47.38671" lon="0.06996">
        <ele>62</ele>
        <time>2013-02-17T15:10:37.001Z</time>
      </trkpt>
      <trkpt lat="47.3867" lon="0.06998">
        <ele>62</ele>
        <time>2013-02-17T15:10:38.001Z</time>
      </trkpt>
      <trkpt lat="47.38669" lon="0.07003">
        <ele>62</ele>
        <time>2013-02-17T15:10:41.001Z</time>
      </trkpt>
      <trkpt lat="47.38669" lon="0.07004">
        <ele>62</ele>
        <time>2013-02-17T15:10:42.001Z</time>
      </trkpt>
      <trkpt lat="47.38668" lon="0.07011">
        <ele>62</ele>
        <time>2013-02-17T15:10:46.001Z</time>
      </trkpt>
      <trkpt lat="47.38668" lon="0.07012">
        <ele>62</ele>
        <time>2013-02-17T15:10:47.001Z</time>
      </trkpt>
      <trkpt lat="47.38668" lon="0.07017">
        <ele>62</ele>
        <time>2013-02-17T15:10:50.001Z</time>
      </trkpt>
      <trkpt lat="47.38668" lon="0.07019">
        <ele>62</ele>
        <time>2013-02-17T15:10:51.001Z</time>
      </trkpt>
      <trkpt lat="47.38668" lon="0.07025">
        <ele>62</ele>
        <time>2013-02-17T15:10:54.001Z</time>
      </trkpt>
      <trkpt lat="47.38668" lon="0.07027">
        <ele>62</ele>
        <time>2013-02-17T15:10:55.001Z</time>
      </trkpt>
      <trkpt lat="47.38667" lon="0.07033">
        <ele>62</ele>
        <time>2013-02-17T15:11:00.001Z</time>
      </trkpt>
      <trkpt lat="47.38667" lon="0.07035">
        <ele>62</ele>
        <time>2013-02-17T15:11:01.001Z</time>
      </trkpt>
      <trkpt lat="47.38666" lon="0.07041">
        <ele>63</ele>
        <time>2013-02-17T15:11:06.001Z</time>
      </trkpt>
      <trkpt lat="47.38666" lon="0.07042">
        <ele>63</ele>
        <time>2013-02-17T15:11:07.001Z</time>
      </trkpt>
      <trkpt lat="47.38666" lon="0.07047">
        <ele>63</ele>
        <time>2013-02-17T15:11:10.001Z</time>
      </trkpt>
      <trkpt lat="47.38666" lon="0.07049">
        <ele>63</ele>
        <time>2013-02-17T15:11:11.001Z</time>
      </trkpt>
      <trkpt lat="47.38666" lon="0.07054">
        <ele>63</ele>
        <time>2013-02-17T15:11:15.001Z</time>
      </trkpt>
      <trkpt lat="47.38666" lon="0.07056">
        <ele>63</ele>
        <time>2013-02-17T15:11:16.001Z</time>
      </trkpt>
      <trkpt lat="47.38665" lon="0.07061">
        <ele>63</ele>
        <time>2013-02-17T15:11:19.001Z</time>
      </trkpt>
      <trkpt lat="47.38665" lon="0.07063">
        <ele>63</ele>
        <time>2013-02-17T15:11:20.001Z</time>
      </trkpt>
      <trkpt lat="47.38665" lon="0.07069">
        <ele>63</ele>
        <time>2013-02-17T15:11:24.001Z</time>
      </trkpt>
      <trkpt lat="47.38665" lon="0.0707">
        <ele>63</ele>
        <time>2013-02-17T15:11:25.001Z</time>
      </trkpt>
      <trkpt lat="47.38665" lon="0.07076">
        <ele>63</ele>
        <time>2013-02-17T15:11:28.001Z</time>
      </trkpt>
      <trkpt lat="47.38665" lon="0.07077">
        <ele>63</ele>
        <time>2013-02-17T15:11:29.001Z</time>
      </trkpt>
      <trkpt lat="47.38664" lon="0.07083">
        <ele>63</ele>
        <time>2013-02-17T15:11:33.001Z</time>
      </trkpt>
      <trkpt lat="47.38664" lon="0.07084">
        <ele>63</ele>
        <time>2013-02-17T15:11:34.001Z</time>
      </trkpt>
      <trkpt lat="47.38663" lon="0.0709">
        <ele>63</ele>
        <time>2013-02-17T15:11:37.001Z</time>
      </trkpt>
      <trkpt lat="47.38663" lon="0.07091">
        <ele>63</ele>
        <time>2013-02-17T15:11:38.001Z</time>
      </trkpt>
      <trkpt lat="47.38663" lon="0.07097">
        <ele>64</ele>
        <time>2013-02-17T15:11:42.001Z</time>
      </trkpt>
      <trkpt lat="47.38663" lon="0.07099">
        <ele>64</ele>
        <time>2013-02-17T15:11:43.001Z</time>
      </trkpt>
      <trkpt lat="47.38662" lon="0.07105">
        <ele>64</ele>
        <time>2013-02-17T15:11:48.001Z</time>
      </trkpt>
      <trkpt lat="47.38662" lon="0.07106">
        <ele>64</ele>
        <time>2013-02-17T15:11:49.001Z</time>
      </trkpt>
      <trkpt lat="47.38661" lon="0.07111">
        <ele>64</ele>
        <time>2013-02-17T15:11:52.001Z</time>
      </trkpt>
      <trkpt lat="47.38661" lon="0.07113">
        <ele>64</ele>
        <time>2013-02-17T15:11:53.001Z</time>
      </trkpt>
      <trkpt lat="47.38658" lon="0.07117">
        <ele>64</ele>
        <time>2013-02-17T15:11:57.001Z</time>
      </trkpt>
      <trkpt lat="47.38658" lon="0.07119">
        <ele>64</ele>
        <time>2013-02-17T15:11:58.001Z</time>
      </trkpt>
      <trkpt lat="47.38658" lon="0.07125">
        <ele>64</ele>
        <time>2013-02-17T15:12:00.001Z</time>
      </trkpt>
      <trkpt lat="47.38658" lon="0.07126">
        <ele>64</ele>
        <time>2013-02-17T15:12:01.001Z</time>
      </trkpt>
      <trkpt lat="47.38658" lon="0.07131">
        <ele>64</ele>
        <time>2013-02-17T15:12:03.001Z</time>
      </trkpt>
      <trkpt lat="47.38657" lon="0.07133">
        <ele>64</ele>
        <time>2013-02-17T15:12:04.001Z</time>
      </trkpt>
      <trkpt lat="47.38658" lon="0.07139">
        <ele>64</ele>
        <time>2013-02-17T15:12:08.001Z</time>
      </trkpt>
      <trkpt lat="47.38658" lon="0.07141">
        <ele>64</ele>
        <time>2013-02-17T15:12:09.001Z</time>
      </trkpt>
      <trkpt lat="47.38658" lon="0.07147">
        <ele>64</ele>
        <time>2013-02-17T15:12:12.001Z</time>
      </trkpt>
      <trkpt lat="47.38658" lon="0.07149">
        <ele>64</ele>
        <time>2013-02-17T15:12:13.001Z</time>
      </trkpt>
      <trkpt lat="47.38657" lon="0.07155">
        <ele>64</ele>
        <time>2013-02-17T15:12:17.001Z</time>
      </trkpt>
      <trkpt lat="47.38657" lon="0.07157">
        <ele>64</ele>
        <time>2013-02-17T15:12:18.001Z</time>
      </trkpt>
      <trkpt lat="47.38656" lon="0.07163">
        <ele>64</ele>
        <time>2013-02-17T15:12:22.001Z</time>
      </trkpt>
      <trkpt lat="47.38656" lon="0.07165">
        <ele>64</ele>
        <time>2013-02-17T15:12:23.001Z</time>
      </trkpt>
      <trkpt lat="47.38656" lon="0.0717">
        <ele>64</ele>
        <time>2013-02-17T15:12:26.001Z</time>
      </trkpt>
      <trkpt lat="47.38656" lon="0.07172">
        <ele>64</ele>
        <time>2013-02-17T15:12:27.001Z</time>
      </trkpt>
      <trkpt lat="47.38656" lon="0.07177">
        <ele>65</ele>
        <time>2013-02-17T15:12:30.001Z</time>
      </trkpt>
      <trkpt lat="47.38656" lon="0.07178">
        <ele>65</ele>
        <time>2013-02-17T15:12:31.001Z</time>
      </trkpt>
      <trkpt lat="47.38656" lon="0.07184">
        <ele>65</ele>
        <time>2013-02-17T15:12:35.001Z</time>
      </trkpt>
      <trkpt lat="47.38655" lon="0.07186">
        <ele>65</ele>
        <time>2013-02-17T15:12:36.001Z</time>
      </trkpt>
      <trkpt lat="47.38655" lon="0.07191">
        <ele>65</ele>
        <time>2013-02-17T15:12:40.001Z</time>
      </trkpt>
      <trkpt lat="47.38654" lon="0.07193">
        <ele>65</ele>
        <time>2013-02-17T15:12:41.001Z</time>
      </trkpt>
      <trkpt lat="47.38654" lon="0.07198">
        <ele>65</ele>
        <time>2013-02-17T15:12:44.001Z</time>
      </trkpt>
      <trkpt lat="47.38654" lon="0.072">
        <ele>65</ele>
        <time>2013-02-17T15:12:45.001Z</time>
      </trkpt>
      <trkpt lat="47.38654" lon="0.07206">
        <ele>65</ele>
        <time>2013-02-17T15:12:47.001Z</time>
      </trkpt>
      <trkpt lat="47.38653" lon="0.07208">
        <ele>65</ele>
        <time>2013-02-17T15:12:48.001Z</time>
      </trkpt>
      <trkpt lat="47.38653" lon="0.07213">
        <ele>65</ele>
        <time>2013-02-17T15:12:52.001Z</time>
      </trkpt>
      <trkpt lat="47.38653" lon="0.07215">
        <ele>65</ele>
        <time>2013-02-17T15:12:53.001Z</time>
      </trkpt>
      <trkpt lat="47.38654" lon="0.0722">
        <ele>65</ele>
        <time>2013-02-17T15:12:56.001Z</time>
      </trkpt>
      <trkpt lat="47.38653" lon="0.07222">
        <ele>65</ele>
        <time>2013-02-17T15:12:57.001Z</time>
      </trkpt>
      <trkpt lat="47.38653" lon="0.07228">
        <ele>65</ele>
        <time>2013-02-17T15:13:00.001Z</time>
      </trkpt>
      <trkpt lat="47.38653" lon="0.0723">
        <ele>65</ele>
        <time>2013-02-17T15:13:01.001Z</time>
      </trkpt>
      <trkpt lat="47.38653" lon="0.07236">
        <ele>65</ele>
        <time>2013-02-17T15:13:04.001Z</time>
      </trkpt>
      <trkpt lat="47.38653" lon="0.07239">
        <ele>65</ele>
        <time>2013-02-17T15:13:05.001Z</time>
      </trkpt>
      <trkpt lat="47.38653" lon="0.07244">
        <ele>65</ele>
        <time>2013-02-17T15:13:07.001Z</time>
      </trkpt>
      <trkpt lat="47.38652" lon="0.07246">
        <ele>65</ele>
        <time>2013-02-17T15:13:08.001Z</time>
      </trkpt>
      <trkpt lat="47.38652" lon="0.07252">
        <ele>65</ele>
        <time>2013-02-17T15:13:12.001Z</time>
      </trkpt>
      <trkpt lat="47.38652" lon="0.07254">
        <ele>65</ele>
        <time>2013-02-17T15:13:13.001Z</time>
      </trkpt>
      <trkpt lat="47.38651" lon="0.07259">
        <ele>65</ele>
        <time>2013-02-17T15:13:16.001Z</time>
      </trkpt>
      <trkpt lat="47.38651" lon="0.07261">
        <ele>65</ele>
        <time>2013-02-17T15:13:17.001Z</time>
      </trkpt>
      <trkpt lat="47.3865" lon="0.07266">
        <ele>65</ele>
        <time>2013-02-17T15:13:22.001Z</time>
      </trkpt>
      <trkpt lat="47.3865" lon="0.07268">
        <ele>65</ele>
        <time>2013-02-17T15:13:23.001Z</time>
      </trkpt>
      <trkpt lat="47.38648" lon="0.07272">
        <ele>65</ele>
        <time>2013-02-17T15:13:27.001Z</time>
      </trkpt>
      <trkpt lat="47.38647" lon="0.07273">
        <ele>65</ele>
        <time>2013-02-17T15:13:28.001Z</time>
      </trkpt>
      <trkpt lat="47.38644" lon="0.07277">
        <ele>66</ele>
        <time>2013-02-17T15:13:36.001Z</time>
      </trkpt>
      <trkpt lat="47.38643" lon="0.07278">
        <ele>66</ele>
        <time>2013-02-17T15:13:37.001Z</time>
      </trkpt>
      <trkpt lat="47.3864" lon="0.07282">
        <ele>66</ele>
        <time>2013-02-17T15:13:41.001Z</time>
      </trkpt>
      <trkpt lat="47.3864" lon="0.07283">
        <ele>66</ele>
        <time>2013-02-17T15:13:42.001Z</time>
      </trkpt>
      <trkpt lat="47.38637" lon="0.07287">
        <ele>66</ele>
        <time>2013-02-17T15:13:46.001Z</time>
      </trkpt>
      <trkpt lat="47.38637" lon="0.07289">
        <ele>66</ele>
        <time>2013-02-17T15:13:47.001Z</time>
      </trkpt>
      <trkpt lat="47.38636" lon="0.07295">
        <ele>66</ele>
        <time>2013-02-17T15:13:51.001Z</time>
      </trkpt>
      <trkpt lat="47.38636" lon="0.07297">
        <ele>66</ele>
        <time>2013-02-17T15:13:52.001Z</time>
      </trkpt>
      <trkpt lat="47.38636" lon="0.07303">
        <ele>66</ele>
        <time>2013-02-17T15:13:55.001Z</time>
      </trkpt>
      <trkpt lat="47.38636" lon="0.07304">
        <ele>66</ele>
        <time>2013-02-17T15:13:56.001Z</time>
      </trkpt>
      <trkpt lat="47.38637" lon="0.0731">
        <ele>66</ele>
        <time>2013-02-17T15:13:59.001Z</time>
      </trkpt>
      <trkpt lat="47.38637" lon="0.07311">
        <ele>66</ele>
        <time>2013-02-17T15:14:00.001Z</time>
      </trkpt>
      <trkpt lat="47.38638" lon="0.07318">
        <ele>66</ele>
        <time>2013-02-17T15:14:03.001Z</time>
      </trkpt>
      <trkpt lat="47.38638" lon="0.07319">
        <ele>66</ele>
        <time>2013-02-17T15:14:04.001Z</time>
      </trkpt>
      <trkpt lat="47.38638" lon="0.07324">
        <ele>66</ele>
        <time>2013-02-17T15:14:08.001Z</time>
      </trkpt>
      <trkpt lat="47.38638" lon="0.07326">
        <ele>66</ele>
        <time>2013-02-17T15:14:09.001Z</time>
      </trkpt>
      <trkpt lat="47.38638" lon="0.07331">
        <ele>66</ele>
        <time>2013-02-17T15:14:13.001Z</time>
      </trkpt>
      <trkpt lat="47.38638" lon="0.07333">
        <ele>66</ele>
        <time>2013-02-17T15:14:14.001Z</time>
      </trkpt>
      <trkpt lat="47.38638" lon="0.07338">
        <ele>66</ele>
        <time>2013-02-17T15:14:17.001Z</time>
      </trkpt>
      <trkpt lat="47.38638" lon="0.0734">
        <ele>66</ele>
        <time>2013-02-17T15:14:18.001Z</time>
      </trkpt>
      <trkpt lat="47.38638" lon="0.07344">
        <ele>66</ele>
        <time>2013-02-17T15:14:20.001Z</time>
      </trkpt>
      <trkpt lat="47.38638" lon="0.07346">
        <ele>66</ele>
        <time>2013-02-17T15:14:21.001Z</time>
      </trkpt>
      <trkpt lat="47.38637" lon="0.07352">
        <ele>66</ele>
        <time>2013-02-17T15:14:24.001Z</time>
      </trkpt>
      <trkpt lat="47.38637" lon="0.07354">
        <ele>66</ele>
        <time>2013-02-17T15:14:25.001Z</time>
      </trkpt>
      <trkpt lat="47.38637" lon="0.07359">
        <ele>66</ele>
        <time>2013-02-17T15:14:29.001Z</time>
      </trkpt>
      <trkpt lat="47.38637" lon="0.07361">
        <ele>66</ele>
        <time>2013-02-17T15:14:30.001Z</time>
      </trkpt>
      <trkpt lat="47.38638" lon="0.07367">
        <ele>67</ele>
        <time>2013-02-17T15:14:34.001Z</time>
      </trkpt>
      <trkpt lat="47.38638" lon="0.07369">
        <ele>67</ele>
        <time>2013-02-17T15:14:35.001Z</time>
      </trkpt>
      <trkpt lat="47.38637" lon="0.07373">
        <ele>67</ele>
        <time>2013-02-17T15:14:38.001Z</time>
      </trkpt>
      <trkpt lat="47.38637" lon="0.07375">
        <ele>67</ele>
        <time>2013-02-17T15:14:39.001Z</time>
      </trkpt>
      <trkpt lat="47.38638" lon="0.07381">
        <ele>67</ele>
        <time>2013-02-17T15:14:42.001Z</time>
      </trkpt>
      <trkpt lat="47.38638" lon="0.07383">
        <ele>67</ele>
        <time>2013-02-17T15:14:43.001Z</time>
      </trkpt>
      <trkpt lat="47.38638" lon="0.07389">
        <ele>67</ele>
        <time>2013-02-17T15:14:47.001Z</time>
      </trkpt>
      <trkpt lat="47.38638" lon="0.07391">
        <ele>67</ele>
        <time>2013-02-17T15:14:48.001Z</time>
      </trkpt>
      <trkpt lat="47.38639" lon="0.07397">
        <ele>67</ele>
        <time>2013-02-17T15:14:52.001Z</time>
      </trkpt>
      <trkpt lat="47.38639" lon="0.07399">
        <ele>67</ele>
        <time>2013-02-17T15:14:53.001Z</time>
      </trkpt>
      <trkpt lat="47.38639" lon="0.07404">
        <ele>67</ele>
        <time>2013-02-17T15:14:56.001Z</time>
      </trkpt>
      <trkpt lat="47.38638" lon="0.07407">
        <ele>67</ele>
        <time>2013-02-17T15:14:57.001Z</time>
      </trkpt>
      <trkpt lat="47.38638" lon="0.07412">
        <ele>67</ele>
        <time>2013-02-17T15:15:00.001Z</time>
      </trkpt>
      <trkpt lat="47.38639" lon="0.07414">
        <ele>67</ele>
        <time>2013-02-17T15:15:01.001Z</time>
      </trkpt>
      <trkpt lat="47.38638" lon="0.0742">
        <ele>67</ele>
        <time>2013-02-17T15:15:05.001Z</time>
      </trkpt>
      <trkpt lat="47.38639" lon="0.07421">
        <ele>67</ele>
        <time>2013-02-17T15:15:06.001Z</time>
      </trkpt>
      <trkpt lat="47.3864" lon="0.07427">
        <ele>67</ele>
        <time>2013-02-17T15:15:10.001Z</time>
      </trkpt>
      <trkpt lat="47.3864" lon="0.07428">
        <ele>67</ele>
        <time>2013-02-17T15:15:11.001Z</time>
      </trkpt>
      <trkpt lat="47.38638" lon="0.07432">
        <ele>67</ele>
        <time>2013-02-17T15:15:14.001Z</time>
      </trkpt>
      <trkpt lat="47.38637" lon="0.07434">
        <ele>67</ele>
        <time>2013-02-17T15:15:15.001Z</time>
      </trkpt>
      <trkpt lat="47.38637" lon="0.0744">
        <ele>67</ele>
        <time>2013-02-17T15:15:18.001Z</time>
      </trkpt>
      <trkpt lat="47.38636" lon="0.07442">
        <ele>67</ele>
        <time>2013-02-17T15:15:19.001Z</time>
      </trkpt>
      <trkpt lat="47.38637" lon="0.07448">
        <ele>67</ele>
        <time>2013-02-17T15:15:23.001Z</time>
      </trkpt>
      <trkpt lat="47.38637" lon="0.07449">
        <ele>67</ele>
        <time>2013-02-17T15:15:24.001Z</time>
      </trkpt>
      <trkpt lat="47.38637" lon="0.07455">
        <ele>68</ele>
        <time>2013-02-17T15:15:28.001Z</time>
      </trkpt>
      <trkpt lat="47.38637" lon="0.07456">
        <ele>68</ele>
        <time>2013-02-17T15:15:29.001Z</time>
      </trkpt>
      <trkpt lat="47.38637" lon="0.07463">
        <ele>68</ele>
        <time>2013-02-17T15:15:34.001Z</time>
      </trkpt>
      <trkpt lat="47.38637" lon="0.07465">
        <ele>68</ele>
        <time>2013-02-17T15:15:35.001Z</time>
      </trkpt>
      <trkpt lat="47.38636" lon="0.07469">
        <ele>68</ele>
        <time>2013-02-17T15:15:37.001Z</time>
      </trkpt>
      <trkpt lat="47.38635" lon="0.07472">
        <ele>68</ele>
        <time>2013-02-17T15:15:38.001Z</time>
      </trkpt>
      <trkpt lat="47.38636" lon="0.07479">
        <ele>68</ele>
        <time>2013-02-17T15:15:41.001Z</time>
      </trkpt>
      <trkpt lat="47.38635" lon="0.0748">
        <ele>68</ele>
        <time>2013-02-17T15:15:42.001Z</time>
      </trkpt>
      <trkpt lat="47.38635" lon="0.07486">
        <ele>68</ele>
        <time>2013-02-17T15:15:47.001Z</time>
      </trkpt>
      <trkpt lat="47.38635" lon="0.07487">
        <ele>68</ele>
        <time>2013-02-17T15:15:48.001Z</time>
      </trkpt>
      <trkpt lat="47.38635" lon="0.07493">
        <ele>68</ele>
        <time>2013-02-17T15:15:51.001Z</time>
      </trkpt>
      <trkpt lat="47.38634" lon="0.07494">
        <ele>68</ele>
        <time>2013-02-17T15:15:52.001Z</time>
      </trkpt>
      <trkpt lat="47.38634" lon="0.07501">
        <ele>69</ele>
        <time>2013-02-17T15:15:57.001Z</time>
      </trkpt>
      <trkpt lat="47.38634" lon="0.07501">
        <ele>69</ele>
        <time>2013-02-17T15:15:58.001Z</time>
      </trkpt>
      <trkpt lat="47.38634" lon="0.07508">
        <ele>69</ele>
        <time>2013-02-17T15:16:01.001Z</time>
      </trkpt>
      <trkpt lat="47.38634" lon="0.07509">
        <ele>69</ele>
        <time>2013-02-17T15:16:02.001Z</time>
      </trkpt>
      <trkpt lat="47.38635" lon="0.07515">
        <ele>69</ele>
        <time>2013-02-17T15:16:07.001Z</time>
      </trkpt>
      <trkpt lat="47.38635" lon="0.07517">
        <ele>69</ele>
        <time>2013-02-17T15:16:08.001Z</time>
      </trkpt>
      <trkpt lat="47.38635" lon="0.07523">
        <ele>69</ele>
        <time>2013-02-17T15:16:12.001Z</time>
      </trkpt>
      <trkpt lat="47.38635" lon="0.07525">
        <ele>69</ele>
        <time>2013-02-17T15:16:13.001Z</time>
      </trkpt>
      <trkpt lat="47.38635" lon="0.0753">
        <ele>69</ele>
        <time>2013-02-17T15:16:16.001Z</time>
      </trkpt>
      <trkpt lat="47.38635" lon="0.07531">
        <ele>69</ele>
        <time>2013-02-17T15:16:17.001Z</time>
      </trkpt>
      <trkpt lat="47.38635" lon="0.07537">
        <ele>69</ele>
        <time>2013-02-17T15:16:22.001Z</time>
      </trkpt>
      <trkpt lat="47.38635" lon="0.07538">
        <ele>69</ele>
        <time>2013-02-17T15:16:23.001Z</time>
      </trkpt>
      <trkpt lat="47.38635" lon="0.07544">
        <ele>69</ele>
        <time>2013-02-17T15:16:27.001Z</time>
      </trkpt>
      <trkpt lat="47.38635" lon="0.07546">
        <ele>69</ele>
        <time>2013-02-17T15:16:28.001Z</time>
      </trkpt>
      <trkpt lat="47.38634" lon="0.07551">
        <ele>69</ele>
        <time>2013-02-17T15:16:34.001Z</time>
      </trkpt>
      <trkpt lat="47.38634" lon="0.07553">
        <ele>69</ele>
        <time>2013-02-17T15:16:35.001Z</time>
      </trkpt>
      <trkpt lat="47.38632" lon="0.07559">
        <ele>69</ele>
        <time>2013-02-17T15:16:38.001Z</time>
      </trkpt>
      <trkpt lat="47.38632" lon="0.0756">
        <ele>69</ele>
        <time>2013-02-17T15:16:39.001Z</time>
      </trkpt>
      <trkpt lat="47.38631" lon="0.07565">
        <ele>69</ele>
        <time>2013-02-17T15:16:42.001Z</time>
      </trkpt>
      <trkpt lat="47.38631" lon="0.07567">
        <ele>69</ele>
        <time>2013-02-17T15:16:43.001Z</time>
      </trkpt>
      <trkpt lat="47.38632" lon="0.07573">
        <ele>69</ele>
        <time>2013-02-17T15:16:47.001Z</time>
      </trkpt>
      <trkpt lat="47.38631" lon="0.07574">
        <ele>69</ele>
        <time>2013-02-17T15:16:48.001Z</time>
      </trkpt>
      <trkpt lat="47.38632" lon="0.07579">
        <ele>70</ele>
        <time>2013-02-17T15:16:53.001Z</time>
      </trkpt>
      <trkpt lat="47.38631" lon="0.07581">
        <ele>70</ele>
        <time>2013-02-17T15:16:54.001Z</time>
      </trkpt>
      <trkpt lat="47.3863" lon="0.07587">
        <ele>70</ele>
        <time>2013-02-17T15:16:58.001Z</time>
      </trkpt>
      <trkpt lat="47.3863" lon="0.07588">
        <ele>70</ele>
        <time>2013-02-17T15:16:59.001Z</time>
      </trkpt>
      <trkpt lat="47.38629" lon="0.07594">
        <ele>70</ele>
        <time>2013-02-17T15:17:03.001Z</time>
      </trkpt>
      <trkpt lat="47.38629" lon="0.07595">
        <ele>70</ele>
        <time>2013-02-17T15:17:04.001Z</time>
      </trkpt>
      <trkpt lat="47.38627" lon="0.076">
        <ele>70</ele>
        <time>2013-02-17T15:17:07.001Z</time>
      </trkpt>
      <trkpt lat="47.38627" lon="0.07602">
        <ele>70</ele>
        <time>2013-02-17T15:17:08.001Z</time>
      </trkpt>
      <trkpt lat="47.38626" lon="0.07607">
        <ele>70</ele>
        <time>2013-02-17T15:17:11.001Z</time>
      </trkpt>
      <trkpt lat="47.38626" lon="0.07608">
        <ele>70</ele>
        <time>2013-02-17T15:17:12.001Z</time>
      </trkpt>
      <trkpt lat="47.38626" lon="0.07614">
        <ele>70</ele>
        <time>2013-02-17T15:17:15.001Z</time>
      </trkpt>
      <trkpt lat="47.38626" lon="0.07616">
        <ele>70</ele>
        <time>2013-02-17T15:17:16.001Z</time>
      </trkpt>
      <trkpt lat="47.38627" lon="0.07621">
        <ele>70</ele>
        <time>2013-02-17T15:17:19.001Z</time>
      </trkpt>
      <trkpt lat="47.38627" lon="0.07623">
        <ele>70</ele>
        <time>2013-02-17T15:17:20.001Z</time>
      </trkpt>
      <trkpt lat="47.38627" lon="0.07629">
        <ele>71</ele>
        <time>2013-02-17T15:17:25.001Z</time>
      </trkpt>
      <trkpt lat="47.38626" lon="0.07631">
        <ele>71</ele>
        <time>2013-02-17T15:17:26.001Z</time>
      </trkpt>
      <trkpt lat="47.38626" lon="0.07637">
        <ele>71</ele>
        <time>2013-02-17T15:17:29.001Z</time>
      </trkpt>
      <trkpt lat="47.38626" lon="0.07638">
        <ele>71</ele>
        <time>2013-02-17T15:17:30.001Z</time>
      </trkpt>
      <trkpt lat="47.38625" lon="0.07643">
        <ele>71</ele>
        <time>2013-02-17T15:17:33.001Z</time>
      </trkpt>
      <trkpt lat="47.38624" lon="0.07645">
        <ele>71</ele>
        <time>2013-02-17T15:17:34.001Z</time>
      </trkpt>
      <trkpt lat="47.38623" lon="0.0765">
        <ele>71</ele>
        <time>2013-02-17T15:17:37.001Z</time>
      </trkpt>
      <trkpt lat="47.38623" lon="0.07652">
        <ele>71</ele>
        <time>2013-02-17T15:17:38.001Z</time>
      </trkpt>
      <trkpt lat="47.38623" lon="0.07658">
        <ele>71</ele>
        <time>2013-02-17T15:17:45.001Z</time>
      </trkpt>
      <trkpt lat="47.38623" lon="0.07659">
        <ele>71</ele>
        <time>2013-02-17T15:17:46.001Z</time>
      </trkpt>
      <trkpt lat="47.38624" lon="0.07665">
        <ele>71</ele>
        <time>2013-02-17T15:17:51.001Z</time>
      </trkpt>
      <trkpt lat="47.38624" lon="0.07666">
        <ele>71</ele>
        <time>2013-02-17T15:17:52.001Z</time>
      </trkpt>
      <trkpt lat="47.38625" lon="0.07671">
        <ele>71</ele>
        <time>2013-02-17T15:17:56.001Z</time>
      </trkpt>
      <trkpt lat="47.38625" lon="0.07673">
        <ele>71</ele>
        <time>2013-02-17T15:17:57.001Z</time>
      </trkpt>
      <trkpt lat="47.38624" lon="0.07679">
        <ele>71</ele>
        <time>2013-02-17T15:18:03.001Z</time>
      </trkpt>
      <trkpt lat="47.38623" lon="0.07679">
        <ele>71</ele>
        <time>2013-02-17T15:18:04.001Z</time>
      </trkpt>
      <trkpt lat="47.38624" lon="0.07683">
        <ele>71</ele>
        <time>2013-02-17T15:18:06.001Z</time>
      </trkpt>
      <trkpt lat="47.38625" lon="0.07687">
        <ele>71</ele>
        <time>2013-02-17T15:18:07.001Z</time>
      </trkpt>
      <trkpt lat="47.38626" lon="0.0769">
        <ele>71</ele>
        <time>2013-02-17T15:18:09.001Z</time>
      </trkpt>
      <trkpt lat="47.38627" lon="0.07693">
        <ele>71</ele>
        <time>2013-02-17T15:18:10.001Z</time>
      </trkpt>
      <trkpt lat="47.38628" lon="0.07698">
        <ele>71</ele>
        <time>2013-02-17T15:18:12.001Z</time>
      </trkpt>
      <trkpt lat="47.38628" lon="0.07699">
        <ele>71</ele>
        <time>2013-02-17T15:18:13.001Z</time>
      </trkpt>
      <trkpt lat="47.38629" lon="0.07704">
        <ele>71</ele>
        <time>2013-02-17T15:18:16.001Z</time>
      </trkpt>
      <trkpt lat="47.3863" lon="0.07706">
        <ele>71</ele>
        <time>2013-02-17T15:18:17.001Z</time>
      </trkpt>
      <trkpt lat="47.38632" lon="0.07711">
        <ele>71</ele>
        <time>2013-02-17T15:18:21.001Z</time>
      </trkpt>
      <trkpt lat="47.38632" lon="0.07712">
        <ele>71</ele>
        <time>2013-02-17T15:18:22.001Z</time>
      </trkpt>
      <trkpt lat="47.38633" lon="0.07718">
        <ele>71</ele>
        <time>2013-02-17T15:18:30.001Z</time>
      </trkpt>
    </trkseg>
  </trk>
</gpx>